[[{"header":{"parameterUnit":"m.s-1","parameterCategory":1,"la1":31.0,"la2":29.5877,"lo1":-88.7671,"lo2":-86.6584,"dx":0.0162,"dy":0.0185,"nx":115,"ny":88,"refTime":"2023-02-01T06:00:00:Z","depth":0,"parameterNumber":2,"parameterNumberName":"U-component_of_WINDS"},"data":[0.0,0.0,0.0,0.0,0.0,0.0,0.0,0.0,0.0,0.0,0.0,0.0,0.0,0.0,0.0,0.0,0.0,0.0,0.0,0.0,0.0,0.0,0.0,0.0,0.0,0.0,0.0,0.0,0.0,0.0,0.0,0.0,0.0,0.0,0.0,0.0,0.0,0.0,0.0,0.0,0.0,0.0,0.0,0.0,0.0,0.0,0.0,0.0,0.0,0.0,0.0,0.0,0.0,0.0,0.0,0.0,0.0,0.0,0.0,0.0,0.0,0.0,0.0,0.0,0.0,0.0,0.0,0.0,0.0,0.0,0.0,0.0,0.0,0.0,0.0,0.0,0.0,0.0,0.0,0.0,0.0,0.0,0.0,0.0,0.0,0.0,0.0,0.0,0.0,0.0,0.0,0.0,0.0,0.0,0.0,0.0,0.0,0.0,0.0,0.0,0.0,0.0,0.0,0.0,0.0,0.0,0.0,0.0,0.0,0.0,0.0,0.0,0.0,0.0,0.0,0.0,0.0,0.0,0.0,0.0,0.0,0.0,0.0,0.0,0.0,0.0,0.0,0.0,0.0,0.0,0.0,0.0,0.0,0.0,0.0,0.0,0.0,0.0,0.0,0.0,0.0,0.0,0.0,0.0,0.0,0.0,0.0,0.0,0.0,0.0,0.0,0.0,0.0,0.0,0.0,0.0,0.0,0.0,0.0,0.0,0.0,0.0,0.0,0.0,0.0,0.0,0.0,0.0,0.0,0.0,0.0,0.0,0.0,0.0,0.0,0.0,0.0,0.0,0.0,0.0,0.0,0.0,0.0,0.0,0.0,0.0,0.0,0.0,0.0,0.0,0.0,0.0,0.0,0.0,0.0,0.0,0.0,0.0,0.0,0.0,0.0,0.0,0.0,0.0,0.0,0.0,0.0,0.0,0.0,0.0,0.0,0.0,0.0,0.0,0.0,0.0,0.0,0.0,0.0,0.0,0.0,0.0,0.0,0.0,0.0,0.0,0.0,0.0,0.0,0.0,0.0,0.0,0.0,0.0,0.0,0.0,0.0,0.0,0.0,0.0,0.0,0.0,0.0,0.0,0.0,0.0,0.0,0.0,0.0,0.0,0.0,0.0,0.0,0.0,0.0,0.0,0.0,0.0,0.0,0.0,0.0,0.0,0.0,0.0,0.0,0.0,0.0,0.0,0.0,0.0,0.0,0.0,0.0,0.0,0.0,0.0,0.0,0.0,0.0,0.0,0.0,0.0,0.0,0.0,0.0,0.0,0.0,0.0,0.0,0.0,0.0,0.0,0.0,0.0,0.0,0.0,0.0,0.0,0.0,0.0,0.0,0.0,0.0,0.0,0.0,0.0,0.0,0.0,0.0,0.0,0.0,0.0,0.0,0.0,0.0,0.0,0.0,0.0,0.0,0.0,0.0,0.0,0.0,0.0,0.0,0.0,0.0,0.0,0.0,0.0,0.0,0.0,0.0,0.0,0.0,0.0,0.0,0.0,0.0,0.0,0.0,0.0,0.0,0.0,0.0,0.0,0.0,0.0,0.0,0.0,0.0,0.0,0.0,0.0,0.0,0.0,0.0,0.0,0.0,0.0,0.0,0.0,0.0,0.0,0.0,0.0,0.0,0.0,0.0,0.0,0.0,0.0,0.0,0.0,0.0,0.0,0.0,0.0,0.0,0.0,0.0,0.0,0.0,0.0,0.0,0.0,0.0,0.0,0.0,0.0,0.0,0.0,0.0,0.0,0.0,0.0,0.0,0.0,0.0,0.0,0.0,0.0,0.0,0.0,0.0,0.0,0.0,0.0,0.0,0.0,0.0,0.0,0.0,0.0,0.0,0.0,0.0,0.0,0.0,0.0,0.0,0.0,0.0,0.0,0.0,0.0,0.0,0.0,0.0,0.0,0.0,0.0,0.0,0.0,0.0,0.0,0.0,0.0,0.0,0.0,0.0,0.0,0.0,0.0,0.0,0.0,0.0,0.0,0.0,0.0,0.0,0.0,0.0,0.0,0.0,0.0,0.0,0.0,0.0,0.0,0.0,0.0,0.0,0.0,0.0,0.0,0.0,0.0,0.0,0.0,0.0,0.0,0.0,0.0,0.0,0.0,0.0,0.0,0.0,0.0,0.0,0.0,0.0,0.0,0.0,0.0,0.0,0.0,0.0,0.0,0.0,0.0,0.0,0.0,0.0,0.0,0.0,0.0,0.0,0.0,0.0,0.0,0.0,0.0,0.0,0.0,0.0,0.0,0.0,0.0,0.0,0.0,0.0,0.0,0.0,0.0,0.0,0.0,0.0,0.0,0.0,0.0,0.0,0.0,0.0,0.0,0.0,0.0,0.0,0.0,0.0,0.0,0.0,0.0,0.0,0.0,0.0,0.0,0.0,0.0,0.0,0.0,0.0,0.0,0.0,0.0,0.0,0.0,0.0,0.0,0.0,0.0,0.0,0.0,0.0,0.0,0.0,0.0,0.0,0.0,0.0,0.0,0.0,0.0,0.0,0.0,0.0,0.0,0.0,0.0,0.0,0.0,0.0,0.0,0.0,0.0,0.0,0.0,0.0,0.0,0.0,0.0,0.0,0.0,0.0,0.0,0.0,0.0,0.0,0.0,0.0,0.0,0.0,0.0,0.0,0.0,0.0,0.0,0.0,0.0,0.0,0.0,0.0,0.0,0.0,0.0,0.0,0.0,0.0,0.0,0.0,0.0,0.0,0.0,0.0,0.0,0.0,0.0,0.0,0.0,0.0,0.0,0.0,0.0,0.0,0.0,0.0,0.0,0.0,0.0,0.0,0.0,0.0,0.0,0.0,0.0,0.0,0.0,0.0,0.0,0.0,0.0,0.0,0.0,0.0,0.0,0.0,0.0,0.0,0.0,0.0,0.0,0.0,0.0,0.0,0.0,0.0,0.0,0.0,0.0,0.0,0.0,0.0,0.0,0.0,0.0,0.0,0.0,0.0,0.0,0.0,0.0,0.0,0.0,0.0,0.0,0.0,0.0,0.0,0.0,0.0,0.0,0.0,0.0,0.0,0.0,0.0,0.0,0.0,0.0,0.0,0.0,0.0,0.0,0.0,0.0,0.0,0.0,0.0,0.0,0.0,0.0,0.0,0.0,0.0,0.0,0.0,0.0,0.0,0.0,0.0,0.0,0.0,0.0,0.0,0.0,0.0,0.0,0.0,0.0,0.0,0.0,0.0,0.0,0.0,0.0,0.0,0.0,0.0,0.0,0.0,0.0,0.0,0.0,0.0,0.0,0.0,0.0,0.0,0.0,0.0,0.0,0.0,0.0,0.0,0.0,0.0,0.0,0.0,0.0,0.0,0.0,0.0,0.0,0.0,0.0,0.0,0.0,0.0,0.0,0.0,0.0,0.0,0.0,0.0,0.0,0.0,0.0,0.0,0.0,0.0,0.0,0.0,0.0,0.0,0.0,0.0,0.0,0.0,0.0,0.0,0.0,0.0,0.0,0.0,0.0,0.0,0.0,0.0,0.0,0.0,0.0,0.0,0.0,0.0,0.0,0.0,0.0,0.0,0.0,0.0,0.0,0.0,0.0,0.0,0.0,0.0,0.0,0.0,0.0,0.0,0.0,0.0,0.0,0.0,0.0,0.0,0.0,0.0,0.0,0.0,0.0,0.0,0.0,0.0,0.0,0.0,0.0,0.0,0.0,0.0,0.0,0.0,0.0,0.0,0.0,0.0,0.0,0.0,0.0,0.0,0.0,0.0,0.0,0.0,0.0,0.0,0.0,0.0,0.0,0.0,0.0,0.0,0.0,0.0,0.0,0.0,0.0,0.0,0.0,0.0,0.0,0.0,0.0,0.0,0.0,0.0,0.0,0.0,0.0,0.0,0.0,0.0,0.0,0.0,0.0,0.0,0.0,0.0,0.0,0.0,0.0,0.0,0.0,0.0,0.0,0.0,0.0,0.0,0.0,0.0,0.0,0.0,0.0,0.0,0.0,0.0,0.0,0.0,0.0,0.0,0.0,0.0,0.0,0.0,0.0,0.0,0.0,0.0,0.0,0.0,0.0,0.0,0.0,0.0,0.0,0.0,0.0,0.0,0.0,0.0,0.0,0.0,0.0,0.0,0.0,0.0,0.0,0.0,0.0,0.0,0.0,0.0,0.0,0.0,0.0,0.0,0.0,0.0,0.0,0.0,0.0,0.0,0.0,0.0,0.0,0.0,0.0,0.0,0.0,0.0,0.0,0.0,0.0,0.0,0.0,0.0,0.0,0.0,0.0,0.0,0.0,0.0,0.0,0.0,0.0,1.8148,0.0,0.0,0.0,0.0,0.0,0.0,0.0,0.0,0.0,0.0,0.0,0.0,0.0,0.0,0.0,0.0,0.0,0.0,0.0,0.0,0.0,0.0,0.0,0.0,0.0,0.0,0.0,0.0,0.0,0.0,0.0,0.0,0.0,0.0,0.0,0.0,0.0,0.0,0.0,0.0,0.0,0.0,0.0,0.0,0.0,0.0,0.0,0.0,0.0,0.0,0.0,0.0,0.0,0.0,0.0,0.0,0.0,0.0,0.0,0.0,0.0,0.0,0.0,0.0,0.0,0.0,0.0,0.0,0.0,0.0,0.0,0.0,0.0,0.0,0.0,0.0,0.0,0.0,0.0,0.0,0.0,0.0,0.0,0.0,0.0,0.0,0.0,0.0,0.0,0.0,0.0,0.0,0.0,0.0,0.0,0.0,0.0,0.0,0.0,0.0,0.0,0.0,0.0,0.0,0.0,0.0,0.0,0.0,0.0,0.0,1.8663,1.8336,1.8943,1.9128,1.8777,0.0,0.0,0.0,0.0,0.0,0.0,0.0,0.0,0.0,0.0,0.0,0.0,0.0,0.0,0.0,0.0,0.0,0.0,0.0,0.0,0.0,0.0,0.0,0.0,0.0,0.0,0.0,0.0,0.0,0.0,0.0,0.0,0.0,0.0,0.0,0.0,0.0,0.0,0.0,0.0,0.0,0.0,0.0,0.0,0.0,0.0,0.0,0.0,0.0,0.0,0.0,0.0,0.0,0.0,0.0,0.0,0.0,0.0,0.0,0.0,0.0,0.0,0.0,0.0,0.0,0.0,0.0,0.0,0.0,0.0,0.0,0.0,0.0,0.0,0.0,0.0,0.0,0.0,0.0,0.0,0.0,0.0,0.0,0.0,0.0,0.0,0.0,0.0,0.0,0.0,0.0,0.0,0.0,0.0,0.0,0.0,0.0,0.0,0.0,0.0,0.0,0.0,0.0,0.0,0.0,0.0,0.0,0.0,0.0,0.0,0.0,0.0,1.9281,1.9281,1.9281,0.0,0.0,0.0,0.0,0.0,0.0,0.0,0.0,0.0,0.0,0.0,0.0,0.0,0.0,0.0,0.0,0.0,0.0,0.0,0.0,0.0,0.0,0.0,0.0,0.0,0.0,0.0,0.0,0.0,0.0,0.0,0.0,0.0,0.0,0.0,0.0,0.0,0.0,0.0,0.0,0.0,0.0,0.0,0.0,0.0,0.0,0.0,0.0,0.0,0.0,0.0,0.0,0.0,0.0,0.0,0.0,0.0,0.0,0.0,0.0,0.0,0.0,0.0,0.0,0.0,0.0,0.0,0.0,0.0,0.0,0.0,0.0,0.0,0.0,0.0,0.0,0.0,0.0,0.0,0.0,0.0,0.0,0.0,0.0,0.0,0.0,0.0,0.0,0.0,0.0,0.0,0.0,0.0,0.0,0.0,0.0,0.0,0.0,0.0,0.0,0.0,0.0,0.0,0.0,0.0,0.0,0.0,0.0,0.0,0.0,1.9281,1.9281,1.9281,0.0,1.9281,0.0,0.0,0.0,0.0,0.0,0.0,0.0,0.0,0.0,0.0,0.0,0.0,0.0,0.0,0.0,0.0,0.0,0.0,0.0,0.0,0.0,0.0,0.0,0.0,0.0,0.0,0.0,0.0,0.0,0.0,0.0,0.0,0.0,0.0,0.0,0.0,0.0,0.0,0.0,0.0,0.0,0.0,0.0,0.0,0.0,0.0,0.0,0.0,0.0,0.0,0.0,0.0,0.0,0.0,0.0,0.0,0.0,0.0,0.0,0.0,0.0,0.0,0.0,0.0,0.0,0.0,0.0,0.0,0.0,0.0,0.0,0.0,0.0,0.0,0.0,0.0,0.0,0.0,0.0,0.0,0.0,0.0,0.0,0.0,0.0,0.0,0.0,0.0,0.0,0.0,0.0,0.0,0.0,0.0,0.0,0.0,0.0,0.0,0.0,0.0,0.0,0.0,0.0,0.0,0.0,0.0,0.0,0.0,0.0,0.0,1.9281,1.9281,1.9281,1.9281,0.0,0.0,0.0,0.0,0.0,0.0,0.0,0.0,0.0,0.0,0.0,0.0,0.0,0.0,0.0,0.0,0.0,0.0,0.0,0.0,0.0,0.0,0.0,0.0,0.0,0.0,0.0,0.0,0.0,0.0,0.0,0.0,0.0,0.0,0.0,0.0,0.0,0.0,0.0,0.0,0.0,0.0,0.0,0.0,0.0,0.0,0.0,0.0,0.0,0.0,0.0,0.0,0.0,0.0,0.0,0.0,0.0,0.0,0.0,0.0,0.0,0.0,0.0,0.0,0.0,0.0,0.0,0.0,0.0,0.0,0.0,0.0,0.0,0.0,0.0,0.0,0.0,0.0,0.0,0.0,0.0,0.0,0.0,0.0,0.0,0.0,0.0,0.0,0.0,0.0,0.0,0.0,0.0,0.0,0.0,0.0,0.0,0.0,0.0,0.0,0.0,0.0,0.0,0.0,0.0,0.0,0.0,0.0,0.0,0.0,1.9281,1.9281,1.9281,1.9281,1.9281,1.9281,0.0,0.0,0.0,0.0,0.0,0.0,0.0,0.0,0.0,0.0,0.0,0.0,0.0,0.0,0.0,0.0,0.0,0.0,0.0,0.0,0.0,0.0,0.0,0.0,0.0,0.0,0.0,0.0,0.0,0.0,0.0,0.0,0.0,0.0,0.0,0.0,0.0,0.0,0.0,0.0,0.0,0.0,0.0,0.0,0.0,0.0,0.0,0.0,0.0,0.0,0.0,0.0,0.0,0.0,0.0,0.0,0.0,0.0,0.0,0.0,0.0,0.0,0.0,0.0,0.0,0.0,0.0,0.0,0.0,0.0,0.0,0.0,0.0,0.0,0.0,0.0,0.0,0.0,0.0,0.0,0.0,0.0,0.0,0.0,0.0,0.0,0.0,0.0,0.0,0.0,0.0,0.0,0.0,0.0,0.0,0.0,0.0,0.0,0.0,0.0,0.0,0.0,0.0,0.0,0.0,0.0,0.0,0.0,1.9281,1.9281,1.9281,1.9281,1.9281,1.9281,0.0,0.0,0.0,0.0,0.0,0.0,0.0,0.0,0.0,0.0,0.0,0.0,0.0,0.0,0.0,0.0,0.0,0.0,0.0,0.0,0.0,0.0,0.0,0.0,0.0,0.0,0.0,0.0,0.0,0.0,0.0,0.0,0.0,0.0,0.0,0.0,0.0,0.0,0.0,0.0,0.0,0.0,0.0,0.0,0.0,0.0,0.0,0.0,0.0,0.0,0.0,0.0,0.0,0.0,0.0,0.0,0.0,0.0,0.0,0.0,0.0,0.0,0.0,0.0,0.0,0.0,0.0,0.0,0.0,0.0,0.0,0.0,0.0,0.0,0.0,0.0,0.0,0.0,0.0,0.0,0.0,0.0,0.0,0.0,0.0,0.0,0.0,0.0,0.0,0.0,0.0,0.0,0.0,0.0,0.0,0.0,0.0,0.0,0.0,0.0,0.0,0.0,0.0,0.0,0.0,0.0,0.0,0.0,0.0,1.9307,1.9281,1.9281,1.9281,1.9281,1.9281,0.0,0.0,0.0,0.0,0.0,0.0,0.0,0.0,0.0,0.0,0.0,0.0,0.0,0.0,0.0,0.0,0.0,0.0,0.0,0.0,0.0,0.0,0.0,0.0,0.0,0.0,0.0,0.0,0.0,0.0,0.0,0.0,0.0,0.0,0.0,0.0,0.0,0.0,0.0,0.0,0.0,0.0,0.0,0.0,0.0,0.0,0.0,0.0,0.0,0.0,0.0,0.0,0.0,0.0,0.0,0.0,0.0,0.0,0.0,0.0,0.0,0.0,0.0,0.0,0.0,0.0,0.0,0.0,0.0,0.0,0.0,0.0,0.0,0.0,0.0,0.0,0.0,0.0,0.0,0.0,0.0,0.0,0.0,0.0,0.0,0.0,0.0,0.0,0.0,0.0,0.0,0.0,0.0,0.0,0.0,0.0,0.0,0.0,0.0,0.0,0.0,0.0,0.0,0.0,0.0,0.0,0.0,0.0,0.0,1.9288,0.0,1.9281,1.9281,1.9281,1.9281,0.0,0.0,0.0,0.0,0.0,0.0,0.0,0.0,0.0,0.0,0.0,0.0,0.0,0.0,0.0,0.0,0.0,0.0,0.0,0.0,0.0,0.0,0.0,0.0,0.0,0.0,0.0,0.0,0.0,0.0,0.0,0.0,0.0,0.0,0.0,0.0,0.0,0.0,0.0,0.0,0.0,0.0,0.0,0.0,0.0,0.0,0.0,0.0,0.0,0.0,0.0,0.0,0.0,0.0,0.0,0.0,0.0,0.0,0.0,0.0,0.0,0.0,0.0,0.0,0.0,0.0,0.0,0.0,0.0,0.0,0.0,0.0,0.0,0.0,0.0,0.0,0.0,0.0,0.0,0.0,0.0,0.0,0.0,0.0,0.0,0.0,0.0,0.0,0.0,0.0,0.0,0.0,0.0,0.0,0.0,0.0,0.0,0.0,0.0,0.0,0.0,0.0,0.0,0.0,0.0,0.0,0.0,0.0,1.9303,1.9281,1.9281,1.9281,1.9281,1.9281,1.9281,0.0,0.0,0.0,0.0,0.0,0.0,0.0,0.0,0.0,0.0,0.0,0.0,0.0,0.0,0.0,0.0,0.0,0.0,0.0,0.0,0.0,0.0,0.0,0.0,0.0,0.0,0.0,0.0,0.0,0.0,0.0,0.0,0.0,0.0,0.0,0.0,0.0,0.0,0.0,0.0,0.0,0.0,0.0,0.0,0.0,0.0,0.0,0.0,0.0,0.0,0.0,0.0,0.0,0.0,0.0,0.0,0.0,0.0,0.0,0.0,0.0,0.0,0.0,0.0,0.0,0.0,0.0,0.0,0.0,0.0,0.0,0.0,0.0,0.0,0.0,0.0,0.0,0.0,0.0,0.0,0.0,0.0,0.0,0.0,0.0,0.0,0.0,0.0,0.0,0.0,0.0,0.0,0.0,0.0,0.0,0.0,0.0,0.0,0.0,0.0,0.0,0.0,0.0,0.0,0.0,0.0,0.0,0.0,0.0,1.9281,1.9281,1.9281,1.9281,1.9281,1.9281,0.0,0.0,0.0,0.0,0.0,0.0,0.0,0.0,0.0,0.0,0.0,0.0,0.0,0.0,0.0,0.0,0.0,0.0,0.0,0.0,0.0,0.0,0.0,0.0,0.0,0.0,0.0,0.0,0.0,0.0,0.0,0.0,0.0,0.0,0.0,0.0,0.0,0.0,0.0,0.0,0.0,0.0,0.0,0.0,0.0,0.0,0.0,0.0,0.0,0.0,0.0,0.0,0.0,0.0,0.0,0.0,0.0,0.0,0.0,0.0,0.0,0.0,0.0,0.0,0.0,0.0,0.0,0.0,0.0,0.0,0.0,0.0,0.0,0.0,0.0,0.0,0.0,0.0,0.0,0.0,0.0,0.0,0.0,0.0,0.0,0.0,0.0,0.0,0.0,0.0,0.0,0.0,0.0,0.0,0.0,0.0,0.0,0.0,0.0,0.0,0.0,0.0,0.0,0.0,0.0,0.0,0.0,0.0,0.0,1.9281,1.9281,1.9281,1.9281,1.9281,1.9281,1.9281,0.0,0.0,0.0,0.0,0.0,0.0,0.0,0.0,0.0,0.0,0.0,0.0,0.0,0.0,0.0,0.0,0.0,0.0,0.0,0.0,0.0,0.0,0.0,0.0,0.0,0.0,0.0,0.0,0.0,0.0,0.0,0.0,0.0,0.0,0.0,0.0,0.0,0.0,0.0,0.0,0.0,0.0,0.0,0.0,0.0,0.0,0.0,0.0,0.0,0.0,0.0,0.0,0.0,0.0,0.0,0.0,0.0,0.0,0.0,0.0,0.0,0.0,0.0,0.0,0.0,0.0,0.0,0.0,0.0,0.0,0.0,0.0,0.0,0.0,0.0,0.0,0.0,0.0,0.0,0.0,0.0,0.0,0.0,0.0,0.0,0.0,0.0,0.0,0.0,0.0,0.0,0.0,0.0,0.0,0.0,0.0,0.0,0.0,0.0,0.0,0.0,0.0,0.0,0.0,0.0,0.0,0.0,0.0,1.9367,1.9409,1.9409,1.9281,1.9335,1.9341,0.0,0.0,0.0,0.0,0.0,0.0,0.0,0.0,0.0,0.0,0.0,0.0,0.0,0.0,0.0,0.0,0.0,0.0,0.0,0.0,0.0,0.0,0.0,0.0,0.0,0.0,0.0,0.0,0.0,0.0,0.0,0.0,0.0,0.0,0.0,0.0,0.0,0.0,0.0,0.0,0.0,0.0,0.0,0.0,0.0,0.0,0.0,0.0,0.0,0.0,0.0,0.0,0.0,0.0,0.0,0.0,0.0,0.0,0.0,0.0,0.0,0.0,0.0,0.0,0.0,0.0,0.0,0.0,0.0,0.0,0.0,0.0,0.0,0.0,0.0,0.0,0.0,0.0,0.0,0.0,0.0,0.0,0.0,0.0,0.0,0.0,0.0,0.0,0.0,0.0,0.0,0.0,0.0,0.0,0.0,0.0,0.0,0.0,0.0,0.0,0.0,0.0,0.0,0.0,0.0,0.0,0.0,0.0,0.0,2.0203,2.0813,2.0546,1.9365,1.9695,1.9987,0.0,0.0,0.0,0.0,0.0,0.0,0.0,0.0,0.0,0.0,0.0,0.0,0.0,0.0,0.0,0.0,0.0,0.0,0.0,0.0,0.0,0.0,0.0,0.0,0.0,0.0,0.0,0.0,0.0,0.0,0.0,0.0,0.0,0.0,0.0,0.0,0.0,0.0,0.0,0.0,0.0,0.0,0.0,0.0,0.0,0.0,0.0,0.0,0.0,0.0,0.0,0.0,0.0,0.0,0.0,0.0,0.0,0.0,0.0,0.0,0.0,0.0,0.0,0.0,0.0,0.0,0.0,0.0,0.0,0.0,0.0,0.0,0.0,0.0,0.0,0.0,0.0,0.0,0.0,0.0,0.0,0.0,0.0,0.0,0.0,0.0,0.0,0.0,0.0,0.0,0.0,0.0,0.0,0.0,0.0,0.0,0.0,0.0,0.0,0.0,0.0,0.0,0.0,0.0,0.0,0.0,0.0,0.0,2.1049,2.1047,2.1535,2.1341,2.0384,2.0673,2.0821,0.0,0.0,0.0,0.0,0.0,0.0,0.0,0.0,0.0,0.0,0.0,0.0,0.0,0.0,0.0,0.0,0.0,0.0,0.0,0.0,0.0,0.0,0.0,0.0,0.0,0.0,0.0,0.0,0.0,0.0,0.0,0.0,0.0,0.0,0.0,0.0,0.0,0.0,0.0,0.0,0.0,0.0,0.0,0.0,0.0,0.0,0.0,0.0,0.0,0.0,0.0,0.0,0.0,0.0,0.0,0.0,0.0,0.0,0.0,0.0,0.0,0.0,0.0,0.0,0.0,0.0,0.0,0.0,0.0,0.0,0.0,0.0,0.0,0.0,0.0,0.0,0.0,0.0,0.0,0.0,0.0,0.0,0.0,0.0,0.0,0.0,0.0,0.0,0.0,0.0,0.0,0.0,0.0,0.0,0.0,0.0,0.0,0.0,0.0,0.0,0.0,0.0,0.0,0.0,0.0,0.0,0.0,0.0,2.192,2.1943,2.2014,2.2055,2.2053,2.1933,2.1737,0.0,0.0,0.0,0.0,0.0,0.0,0.0,0.0,0.0,0.0,0.0,0.0,0.0,0.0,0.0,0.0,0.0,0.0,0.0,0.0,0.0,0.0,0.0,0.0,0.0,0.0,0.0,0.0,0.0,0.0,0.0,0.0,0.0,0.0,0.0,0.0,0.0,0.0,0.0,0.0,0.0,0.0,0.0,0.0,0.0,0.0,0.0,0.0,0.0,0.0,0.0,0.0,0.0,0.0,0.0,0.0,0.0,0.0,0.0,0.0,0.0,0.0,0.0,0.0,0.0,0.0,0.0,0.0,0.0,0.0,0.0,0.0,0.0,0.0,0.0,0.0,0.0,0.0,0.0,0.0,0.0,0.0,0.0,0.0,0.0,0.0,0.0,0.0,0.0,0.0,0.0,0.0,0.0,0.0,0.0,0.0,0.0,0.0,0.0,0.0,0.0,0.0,0.0,0.0,0.0,0.0,0.0,0.0,2.2735,2.2758,2.3364,2.3697,2.3699,2.281,2.232,0.0,0.0,0.0,0.0,0.0,0.0,0.0,0.0,0.0,0.0,0.0,0.0,0.0,0.0,0.0,0.0,0.0,0.0,0.0,0.0,0.0,0.0,0.0,0.0,0.0,0.0,0.0,0.0,0.0,0.0,0.0,0.0,0.0,0.0,0.0,0.0,0.0,0.0,0.0,0.0,0.0,0.0,0.0,0.0,0.0,0.0,0.0,0.0,2.4197,0.0,0.0,0.0,0.0,0.0,0.0,0.0,0.0,0.0,0.0,0.0,0.0,0.0,0.0,0.0,0.0,0.0,0.0,0.0,0.0,0.0,0.0,0.0,0.0,0.0,0.0,0.0,0.0,0.0,0.0,0.0,0.0,0.0,0.0,0.0,0.0,0.0,0.0,0.0,0.0,0.0,0.0,0.0,0.0,0.0,0.0,0.0,0.0,0.0,0.0,0.0,0.0,0.0,0.0,0.0,0.0,0.0,0.0,0.0,2.3561,2.3566,2.3974,2.4197,2.4171,2.3612,2.3223,0.0,0.0,0.0,0.0,0.0,0.0,0.0,0.0,0.0,0.0,0.0,0.0,0.0,0.0,0.0,0.0,0.0,0.0,0.0,0.0,0.0,0.0,0.0,0.0,0.0,0.0,0.0,0.0,0.0,0.0,0.0,0.0,0.0,0.0,0.0,0.0,0.0,0.0,0.0,0.0,0.0,0.0,0.0,0.0,0.0,0.0,0.0,0.0,0.0,0.0,0.0,0.0,0.0,0.0,0.0,0.0,0.0,0.0,0.0,0.0,0.0,0.0,0.0,0.0,0.0,0.0,0.0,0.0,0.0,0.0,0.0,0.0,0.0,0.0,0.0,0.0,0.0,0.0,0.0,0.0,0.0,0.0,0.0,0.0,0.0,0.0,0.0,0.0,0.0,0.0,0.0,0.0,0.0,0.0,0.0,0.0,0.0,0.0,0.0,0.0,0.0,0.0,0.0,0.0,0.0,0.0,0.0,2.3841,2.4197,2.4197,2.4197,2.4197,2.4197,2.4197,2.4036,2.3711,0.0,0.0,0.0,0.0,0.0,0.0,0.0,0.0,0.0,0.0,0.0,0.0,0.0,0.0,0.0,0.0,0.0,0.0,0.0,0.0,0.0,0.0,0.0,0.0,0.0,0.0,0.0,0.0,0.0,0.0,0.0,0.0,0.0,0.0,0.0,0.0,0.0,0.0,2.5011,2.474,0.0,0.0,0.0,0.0,0.0,0.0,0.0,0.0,2.4197,0.0,0.0,0.0,0.0,0.0,0.0,0.0,0.0,0.0,0.0,0.0,0.0,0.0,0.0,0.0,0.0,0.0,0.0,0.0,0.0,0.0,0.0,0.0,0.0,0.0,0.0,0.0,0.0,0.0,0.0,0.0,0.0,0.0,0.0,0.0,0.0,0.0,0.0,0.0,0.0,0.0,0.0,0.0,0.0,0.0,0.0,0.0,0.0,0.0,0.0,0.0,0.0,0.0,0.0,0.0,0.0,2.4006,2.4137,2.4197,2.4197,2.4197,2.4197,2.4197,2.4197,2.4033,2.3708,0.0,0.0,0.0,0.0,0.0,0.0,0.0,0.0,0.0,0.0,0.0,0.0,0.0,0.0,0.0,0.0,0.0,0.0,0.0,0.0,0.0,0.0,0.0,0.0,0.0,0.0,0.0,0.0,0.0,0.0,0.0,0.0,0.0,0.0,0.0,0.0,0.0,0.0,0.0,2.4772,2.4613,0.0,0.0,0.0,0.0,0.0,0.0,0.0,0.0,2.4197,0.0,0.0,0.0,0.0,0.0,0.0,0.0,0.0,0.0,0.0,0.0,0.0,0.0,0.0,0.0,0.0,0.0,0.0,0.0,0.0,0.0,0.0,0.0,0.0,0.0,0.0,0.0,0.0,0.0,0.0,0.0,0.0,0.0,0.0,0.0,0.0,0.0,0.0,0.0,0.0,0.0,0.0,0.0,0.0,0.0,0.0,0.0,0.0,0.0,0.0,0.0,0.0,0.0,0.0,0.0,2.4197,2.4197,2.4197,2.4197,2.4197,2.4197,2.4197,2.4197,2.4036,0.0,0.0,0.0,0.0,0.0,0.0,0.0,0.0,0.0,0.0,0.0,0.0,0.0,0.0,0.0,0.0,0.0,0.0,0.0,0.0,0.0,0.0,0.0,0.0,0.0,0.0,0.0,0.0,0.0,0.0,0.0,0.0,0.0,0.0,0.0,0.0,0.0,0.0,0.0,0.0,2.4804,2.4669,2.4245,0.0,0.0,0.0,0.0,0.0,0.0,2.4197,2.4197,0.0,0.0,0.0,0.0,0.0,0.0,0.0,0.0,0.0,0.0,0.0,0.0,0.0,0.0,0.0,0.0,0.0,0.0,0.0,0.0,0.0,0.0,0.0,0.0,0.0,0.0,0.0,0.0,0.0,0.0,0.0,0.0,0.0,0.0,0.0,0.0,0.0,0.0,0.0,0.0,0.0,0.0,0.0,0.0,0.0,0.0,0.0,0.0,0.0,0.0,0.0,0.0,0.0,0.0,0.0,2.4197,2.4197,2.4197,2.4197,2.4197,2.4197,2.4197,2.4197,2.4011,0.0,0.0,0.0,0.0,0.0,0.0,0.0,0.0,0.0,0.0,0.0,0.0,0.0,0.0,0.0,0.0,0.0,0.0,0.0,0.0,0.0,0.0,0.0,0.0,0.0,0.0,0.0,0.0,0.0,0.0,0.0,0.0,0.0,0.0,0.0,0.0,0.0,0.0,0.0,0.0,0.0,2.4656,2.4263,2.4197,0.0,0.0,0.0,0.0,2.4197,2.4197,0.0,0.0,0.0,0.0,0.0,0.0,0.0,0.0,0.0,0.0,0.0,0.0,0.0,0.0,0.0,0.0,0.0,0.0,0.0,0.0,0.0,0.0,0.0,0.0,0.0,0.0,0.0,0.0,0.0,0.0,0.0,0.0,0.0,0.0,0.0,0.0,0.0,0.0,0.0,0.0,0.0,0.0,0.0,0.0,0.0,0.0,0.0,0.0,0.0,0.0,0.0,0.0,0.0,0.0,0.0,0.0,2.4197,2.4197,2.4197,2.4197,2.4197,2.4197,2.4197,2.4197,2.3902,0.0,0.0,0.0,0.0,0.0,0.0,0.0,0.0,0.0,0.0,0.0,0.0,0.0,0.0,0.0,0.0,0.0,0.0,0.0,0.0,0.0,0.0,0.0,0.0,0.0,0.0,0.0,0.0,0.0,0.0,0.0,0.0,0.0,0.0,0.0,0.0,0.0,0.0,0.0,0.0,0.0,2.4648,2.4243,2.4197,2.4197,0.0,0.0,2.4194,2.4197,2.4197,0.0,0.0,0.0,0.0,0.0,0.0,0.0,0.0,0.0,0.0,0.0,0.0,0.0,0.0,0.0,0.0,0.0,0.0,0.0,0.0,0.0,0.0,0.0,0.0,0.0,0.0,0.0,0.0,0.0,0.0,0.0,0.0,0.0,0.0,0.0,0.0,0.0,0.0,0.0,0.0,0.0,0.0,0.0,0.0,0.0,0.0,0.0,0.0,0.0,0.0,0.0,0.0,0.0,0.0,0.0,2.3917,2.3922,2.4096,2.4197,2.4197,2.4197,2.4197,2.4197,2.4197,2.3978,0.0,0.0,0.0,0.0,0.0,0.0,0.0,0.0,0.0,0.0,0.0,0.0,0.0,0.0,0.0,0.0,0.0,0.0,0.0,0.0,0.0,0.0,0.0,0.0,0.0,0.0,0.0,0.0,0.0,0.0,0.0,0.0,0.0,0.0,0.0,0.0,0.0,0.0,0.0,0.0,0.0,0.0,2.4247,2.4598,0.0,0.0,0.0,2.5566,2.5545,0.0,0.0,0.0,0.0,0.0,0.0,0.0,0.0,0.0,0.0,0.0,0.0,0.0,0.0,0.0,0.0,0.0,0.0,0.0,0.0,0.0,0.0,0.0,0.0,0.0,0.0,0.0,0.0,0.0,0.0,0.0,0.0,0.0,0.0,0.0,0.0,0.0,0.0,0.0,0.0,0.0,0.0,0.0,0.0,0.0,0.0,0.0,0.0,0.0,0.0,0.0,0.0,0.0,0.0,0.0,0.0,0.0,2.3824,2.4076,2.4197,2.4194,2.4113,2.4074,2.4079,2.3996,0.0,0.0,0.0,0.0,0.0,0.0,0.0,0.0,0.0,0.0,0.0,0.0,0.0,0.0,0.0,0.0,0.0,0.0,0.0,0.0,0.0,0.0,0.0,0.0,0.0,0.0,0.0,2.427,0.0,0.0,0.0,0.0,0.0,0.0,0.0,0.0,0.0,0.0,0.0,0.0,0.0,0.0,2.4492,2.449,2.5023,2.5474,0.0,0.0,2.6607,2.6607,2.6607,2.6607,0.0,0.0,0.0,0.0,0.0,0.0,0.0,0.0,0.0,0.0,0.0,0.0,0.0,0.0,0.0,0.0,0.0,0.0,0.0,0.0,0.0,0.0,0.0,0.0,0.0,0.0,0.0,0.0,0.0,0.0,0.0,0.0,0.0,0.0,0.0,0.0,0.0,0.0,0.0,0.0,0.0,0.0,0.0,0.0,0.0,0.0,0.0,0.0,0.0,0.0,0.0,0.0,0.0,0.0,2.386,2.4158,2.4182,2.4197,2.4208,2.3899,2.3724,2.3716,2.3449,2.3126,0.0,0.0,0.0,0.0,0.0,0.0,0.0,0.0,0.0,0.0,0.0,0.0,0.0,0.0,0.0,0.0,0.0,0.0,0.0,0.0,0.0,0.0,0.0,0.0,0.0,0.0,0.0,0.0,0.0,0.0,0.0,0.0,0.0,0.0,0.0,0.0,0.0,0.0,0.0,0.0,0.0,2.4715,2.5244,2.5361,2.5666,0.0,2.657,2.6607,2.6625,2.6625,2.6607,2.6625,0.0,0.0,0.0,0.0,0.0,0.0,0.0,0.0,0.0,0.0,0.0,0.0,0.0,0.0,0.0,0.0,0.0,0.0,0.0,0.0,0.0,0.0,0.0,0.0,0.0,0.0,0.0,0.0,0.0,0.0,0.0,0.0,0.0,0.0,0.0,0.0,0.0,0.0,0.0,0.0,0.0,0.0,0.0,0.0,0.0,0.0,0.0,0.0,0.0,0.0,0.0,0.0,0.0,2.3666,2.3588,2.3988,2.4197,2.4208,2.4076,2.4003,2.399,2.3891,2.3645,0.0,0.0,0.0,0.0,0.0,0.0,0.0,0.0,0.0,0.0,0.0,0.0,0.0,0.0,0.0,0.0,0.0,0.0,0.0,0.0,0.0,0.0,0.0,0.0,0.0,0.0,0.0,0.0,2.4268,2.4238,2.437,0.0,0.0,0.0,0.0,0.0,0.0,0.0,0.0,0.0,0.0,2.5874,2.6114,2.6565,0.0,0.0,2.7763,2.8069,2.8072,2.8088,2.8069,2.8072,2.8345,0.0,0.0,0.0,0.0,0.0,0.0,0.0,0.0,0.0,0.0,0.0,0.0,0.0,0.0,0.0,0.0,0.0,0.0,0.0,0.0,0.0,0.0,0.0,0.0,0.0,0.0,0.0,0.0,0.0,0.0,0.0,0.0,0.0,0.0,0.0,0.0,0.0,0.0,0.0,0.0,0.0,0.0,0.0,0.0,0.0,0.0,0.0,0.0,0.0,0.0,0.0,0.0,2.3337,2.3198,2.3751,2.4062,2.4054,2.4038,2.4001,2.3907,2.38,2.3606,0.0,0.0,0.0,0.0,0.0,0.0,0.0,0.0,0.0,0.0,0.0,0.0,0.0,0.0,0.0,0.0,0.0,0.0,0.0,0.0,0.0,0.0,0.0,0.0,0.0,0.0,0.0,0.0,2.4282,2.4261,2.4399,0.0,0.0,0.0,0.0,0.0,0.0,0.0,0.0,0.0,0.0,2.668,2.6924,2.7441,2.7884,2.8117,2.8644,2.8987,2.8987,2.8987,2.8987,2.8987,0.0,0.0,0.0,0.0,0.0,0.0,0.0,0.0,0.0,0.0,0.0,0.0,0.0,0.0,0.0,0.0,0.0,0.0,0.0,0.0,0.0,0.0,0.0,0.0,0.0,0.0,0.0,0.0,0.0,0.0,2.3139,0.0,0.0,0.0,0.0,0.0,0.0,0.0,0.0,0.0,0.0,0.0,0.0,0.0,0.0,0.0,0.0,0.0,0.0,0.0,0.0,0.0,0.0,2.2904,2.3189,2.3576,2.3722,2.3722,2.3726,2.3569,2.3265,2.2916,2.2633,2.237,0.0,0.0,0.0,0.0,0.0,0.0,0.0,0.0,0.0,0.0,0.0,0.0,0.0,0.0,0.0,0.0,0.0,0.0,0.0,0.0,0.0,0.0,0.0,0.0,0.0,0.0,2.4227,2.4197,2.4231,0.0,0.0,0.0,0.0,0.0,0.0,0.0,0.0,0.0,0.0,2.6594,2.6903,2.7661,2.779,2.8099,2.8861,2.9005,2.9005,2.906,2.9042,2.8987,0.0,0.0,0.0,0.0,0.0,0.0,0.0,0.0,0.0,0.0,0.0,0.0,0.0,0.0,0.0,0.0,0.0,0.0,0.0,0.0,0.0,0.0,0.0,0.0,0.0,0.0,0.0,2.2876,2.2866,0.0,0.0,0.0,0.0,0.0,0.0,0.0,0.0,0.0,0.0,0.0,2.4021,2.4044,0.0,0.0,0.0,0.0,0.0,0.0,0.0,0.0,0.0,0.0,0.0,0.0,2.3314,2.3245,2.374,2.4026,2.4039,2.3811,2.3637,2.3533,2.3218,2.2896,2.2583,0.0,0.0,0.0,0.0,0.0,0.0,0.0,0.0,0.0,0.0,0.0,0.0,0.0,0.0,0.0,0.0,0.0,0.0,0.0,0.0,0.0,0.0,0.0,0.0,0.0,2.4197,0.0,0.0,0.0,0.0,0.0,0.0,0.0,0.0,0.0,0.0,0.0,2.7095,2.7365,2.7852,2.8292,2.857,2.8601,2.888,0.0,0.0,0.0,0.0,0.0,0.0,0.0,0.0,0.0,0.0,0.0,0.0,0.0,0.0,2.9719,2.8149,2.806,2.8243,2.8377,0.0,0.0,0.0,0.0,0.0,0.0,0.0,0.0,0.0,0.0,0.0,0.0,0.0,0.0,2.2563,0.0,2.2563,0.0,0.0,0.0,0.0,0.0,0.0,0.0,0.0,2.3309,2.354,2.4203,2.4081,2.4086,0.0,2.4084,2.38,0.0,0.0,0.0,0.0,0.0,0.0,0.0,0.0,2.3195,2.293,2.3514,2.38,2.3684,2.3574,2.3477,2.3352,2.3302,2.3174,2.2952,2.3324,2.3399,0.0,0.0,0.0,0.0,0.0,0.0,0.0,0.0,0.0,0.0,0.0,0.0,0.0,0.0,0.0,0.0,0.0,0.0,0.0,0.0,0.0,0.0,0.0,2.5029,0.0,0.0,0.0,0.0,0.0,0.0,0.0,0.0,0.0,2.7013,2.7457,2.7903,2.8191,2.8681,2.9115,2.9372,0.0,0.0,0.0,0.0,0.0,0.0,0.0,3.1409,3.1409,3.1409,3.1315,3.1035,3.0636,3.0402,3.0549,0.0,0.0,2.8703,2.8693,2.8828,2.8787,2.8688,2.875,2.9222,2.884,2.8509,0.0,0.0,0.0,0.0,0.0,0.0,0.0,0.0,2.2311,2.2321,0.0,2.237,0.0,0.0,0.0,0.0,0.0,2.3174,0.0,0.0,2.3516,2.356,2.4153,2.3881,2.3891,2.4163,2.3886,2.3734,2.3695,2.3692,0.0,0.0,0.0,0.0,0.0,0.0,2.2583,2.2363,2.2906,2.3054,2.2821,2.3068,2.3074,2.2823,2.3224,2.3441,2.3486,2.4465,2.4884,2.4527,2.4848,0.0,0.0,0.0,0.0,0.0,0.0,0.0,0.0,0.0,0.0,0.0,0.0,0.0,0.0,0.0,0.0,0.0,0.0,0.0,0.0,2.6133,0.0,0.0,0.0,0.0,0.0,0.0,0.0,0.0,0.0,0.0,2.7826,2.7848,2.8141,2.8932,0.0,0.0,0.0,0.0,3.0519,3.1317,3.1452,3.1445,3.1501,3.1488,3.1479,3.1479,0.0,0.0,3.0446,2.9907,2.9562,2.9205,2.9282,2.9467,3.058,3.0661,3.0421,2.9678,2.9809,2.9863,2.9296,2.9425,2.9493,2.2313,0.0,0.0,0.0,0.0,2.2313,2.2402,2.2579,2.2583,2.2583,2.2593,2.2827,0.0,0.0,0.0,0.0,0.0,0.0,2.3413,2.3827,2.3647,2.3787,2.4203,2.4099,2.4103,2.4192,2.4119,2.3925,2.3706,2.3718,2.336,2.2708,0.0,0.0,0.0,0.0,2.2667,2.2612,2.2984,2.3424,2.3823,2.3741,2.3787,2.398,2.4124,2.4182,2.419,2.4494,2.4753,2.4915,2.5037,0.0,0.0,0.0,0.0,0.0,0.0,0.0,0.0,0.0,0.0,0.0,0.0,0.0,0.0,0.0,0.0,0.0,0.0,0.0,2.6248,2.6458,2.6607,0.0,0.0,0.0,0.0,0.0,0.0,0.0,0.0,0.0,2.8654,2.8659,2.8956,0.0,0.0,3.013,3.0947,3.1057,3.1332,3.2149,3.2259,0.0,3.3018,3.2883,3.2672,3.2672,3.2402,3.2099,3.1869,3.144,3.1211,3.1428,3.1237,3.1135,3.1372,3.0825,3.0259,3.0024,3.0432,3.0809,3.0634,3.065,3.0698,2.2313,2.2313,2.2313,2.2313,2.2313,2.2313,2.2398,2.254,2.254,2.254,2.2547,2.2757,2.272,2.2557,2.2871,0.0,0.0,0.0,2.3244,2.3682,2.3303,2.337,2.3764,2.3671,2.3679,2.379,2.3671,2.3563,2.3484,2.3508,2.3245,2.273,0.0,0.0,2.2324,2.2992,2.3204,2.3014,2.36,2.4075,2.4375,2.4222,2.424,2.4489,2.4775,2.4944,2.4936,2.5366,2.5651,2.5725,2.5887,2.6053,0.0,0.0,0.0,0.0,0.0,0.0,0.0,0.0,0.0,0.0,0.0,2.6064,2.6555,0.0,0.0,0.0,2.6882,2.7068,2.7071,2.7359,0.0,0.0,0.0,0.0,0.0,0.0,0.0,2.8335,2.8971,2.9485,2.9485,2.9742,3.0023,3.0173,3.0485,3.0947,3.177,0.0,3.2155,3.2953,3.3066,3.336,3.4145,3.4078,3.3952,3.4087,3.3574,3.3152,3.3125,3.2756,3.2541,3.2738,3.2617,3.2434,3.2434,3.1862,3.1287,3.1055,3.1562,3.2053,3.2087,3.2065,3.2075,2.2313,2.2313,2.2313,2.2313,2.2313,2.2313,2.2317,2.2313,2.2317,2.2313,2.2313,2.2314,2.2342,2.2398,2.2625,0.0,2.318,2.2862,2.3072,2.3628,2.2767,2.2663,2.3189,2.288,2.2886,2.3195,2.2891,2.2923,2.3247,2.3277,2.3113,2.2869,2.3166,2.3027,2.2509,2.3655,2.4037,2.3503,2.4452,2.4833,2.4608,2.4651,2.4681,2.4685,2.5325,2.5681,2.571,2.6691,2.7091,2.6774,2.7103,2.7309,2.7332,0.0,0.0,0.0,0.0,0.0,0.0,0.0,0.0,0.0,0.0,0.0,0.0,0.0,0.0,0.0,2.7457,0.0,2.79,2.8568,0.0,0.0,0.0,2.8987,2.8987,2.9057,2.9094,2.9097,0.0,0.0,3.0301,3.1002,3.1219,3.0485,3.1042,3.1788,3.2586,3.2693,3.2971,3.3782,3.3914,3.4185,3.4961,3.4972,3.4879,3.4997,3.4615,3.3994,3.3936,3.3661,3.3404,3.3345,3.3372,3.3366,3.3372,3.3349,3.3288,3.2576,3.2926,3.335,3.3283,3.3266,3.3243,2.2313,2.2313,2.2313,2.2313,2.2313,2.2313,2.2313,2.2313,2.2313,2.2313,2.2317,2.2517,2.2752,2.2986,2.3048,2.3123,2.3189,2.3117,2.3183,2.3291,2.309,2.306,2.3192,2.312,2.3123,2.32,2.312,2.33,2.3705,2.374,2.385,2.4082,2.4406,2.4088,2.3219,2.4014,2.4389,2.4244,2.4477,2.4847,2.5346,2.5883,2.6183,2.6175,2.6344,2.6425,2.6458,2.6673,2.6943,2.7147,2.7231,2.7428,2.7729,2.7458,0.0,0.0,0.0,0.0,0.0,0.0,0.0,0.0,0.0,2.7784,2.8384,0.0,2.8415,0.0,2.862,2.8714,2.8714,2.8892,0.0,0.0,2.8987,2.8987,2.9005,2.9537,2.9907,2.9928,3.0629,3.1112,3.1115,3.1825,3.2244,3.2051,3.2204,3.2604,3.3385,3.351,3.38,3.452,3.4715,3.5026,3.5721,3.5334,3.4681,3.4002,3.3736,3.3572,3.3567,3.3468,3.3384,3.3384,3.3384,3.3384,3.3435,3.3829,3.4167,3.397,3.3682,3.3384,3.3384,3.3401,3.3401,2.2983,2.3274,2.3274,2.3278,2.3248,2.2587,2.2313,2.2313,2.2313,2.2313,2.2314,2.247,2.2616,2.2836,2.3146,2.3363,2.3529,2.3691,2.3858,2.3992,2.3855,2.3781,2.3781,2.3778,2.3781,2.3778,2.3778,2.3919,2.4163,2.4323,2.4429,2.4506,2.5153,2.5111,2.4435,2.4929,2.515,2.4991,2.532,2.5676,2.6082,2.648,2.6712,2.6712,2.6712,2.6712,2.6712,2.6712,2.6812,2.7015,2.7048,2.729,2.7858,2.7515,2.7535,0.0,0.0,0.0,0.0,0.0,0.0,0.0,0.0,0.0,0.0,0.0,2.8987,2.8987,2.8987,2.8987,2.8987,2.8987,2.9152,2.9503,2.9543,2.9671,3.0041,3.0467,3.0727,3.073,3.1442,3.1916,3.1956,3.2629,3.3121,3.3124,3.3426,3.3827,3.4219,3.4329,3.4563,3.5118,3.5223,3.5424,3.6043,3.5794,3.5331,3.4844,3.4526,3.4376,3.4376,3.4371,3.4376,3.4388,3.4376,3.4388,3.4399,3.4681,3.4968,3.494,3.4658,3.4427,3.4393,3.4366,3.4376,2.3925,2.4495,2.4511,2.4511,2.4393,2.3129,2.2574,2.2587,2.2594,2.2594,2.2594,2.2587,2.2594,2.2608,2.3257,2.3694,2.4002,2.4333,2.4649,2.4905,2.4651,2.4511,2.4511,2.4511,2.4511,2.4511,2.4511,2.4541,2.4651,2.4935,2.4971,2.484,2.5714,2.6037,2.5768,2.6041,2.6041,2.5761,2.6374,2.6712,2.6712,2.6712,2.6712,2.6712,2.6712,2.6712,2.6712,2.6712,2.6712,2.6712,2.6712,2.7032,2.7706,2.7422,2.7501,0.0,2.7954,0.0,0.0,0.0,0.0,0.0,0.0,0.0,0.0,2.8987,2.9036,2.9155,2.9146,2.9189,2.9283,2.9299,2.9595,3.0265,3.0359,3.0629,3.1302,3.1482,3.1559,3.1562,3.2247,3.2754,3.2784,3.3455,3.3954,3.3999,3.4528,3.5012,3.5184,3.5118,3.5177,3.5592,3.5679,3.5898,3.6021,3.621,3.6293,3.622,3.5795,3.5616,3.5521,3.5538,3.5571,3.5571,3.5504,3.5538,3.56,3.5571,3.5588,3.5554,3.5504,3.5487,3.5498,3.5487,3.5622,2.438,2.4495,2.4511,2.4511,2.4474,2.4207,2.4085,2.4081,2.4077,2.4085,2.4088,2.4085,2.4088,2.4101,2.4224,2.4326,2.4386,2.4461,2.4533,2.4605,2.4521,2.4511,2.4511,2.4511,2.4511,2.4511,2.4511,2.4804,2.5381,2.5452,2.5749,2.6277,2.6474,2.6559,2.6496,0.0,0.0,0.0,2.6611,2.6712,2.6712,2.6712,2.6712,2.6712,2.6712,0.0,2.6712,2.6712,2.6712,2.6712,2.6712,0.0,0.0,0.0,0.0,0.0,0.0,0.0,0.0,0.0,0.0,0.0,3.0636,3.0393,2.9131,2.8987,2.9283,2.9913,2.9989,3.024,3.0895,3.0947,3.1002,3.1152,3.1167,3.1247,3.1394,3.199,3.2366,3.2384,3.3069,3.3562,3.3617,3.4274,3.4759,3.4761,3.5139,3.5647,3.6246,3.5772,3.569,3.6318,3.6555,3.6669,3.6364,3.6338,3.6191,3.5865,3.5689,3.5605,3.5622,3.5622,3.5622,3.5622,3.5622,3.5622,3.5622,3.5622,3.5622,3.5622,3.5622,3.5622,3.5622,3.5622,3.5622,2.5265,0.0,2.5595,2.5587,0.0,2.5574,2.5591,2.554,2.4812,2.4511,2.4511,2.4511,2.4511,2.4528,2.4876,2.5041,2.5071,2.5414,2.5587,2.5583,2.5574,2.5591,2.5587,2.5583,2.557,2.5608,2.5583,2.5761,2.6116,2.6142,2.6336,2.6695,2.6712,2.6712,2.6712,2.6712,2.6712,2.6712,2.6712,2.6712,2.6712,2.6712,2.6712,2.6712,2.6712,0.0,0.0,0.0,0.0,0.0,0.0,0.0,0.0,0.0,0.0,2.8339,2.8397,2.8624,2.9196,2.9641,3.0036,3.044,3.0866,3.0837,3.0231,3.017,3.0338,3.0742,3.0779,3.0965,3.1338,3.1409,3.1556,3.1935,3.199,3.2137,3.254,3.2941,3.3191,3.3196,3.3369,3.3692,3.433,3.4524,3.4856,3.5211,3.575,3.6137,3.6223,3.5961,3.5936,3.6447,3.6419,3.6298,3.6075,3.6,3.5947,3.5667,3.5622,3.5622,3.5622,3.5622,3.5622,3.5622,3.5622,3.5622,3.5622,3.5622,3.5622,3.5622,3.5622,3.5622,3.5622,3.5622,3.5622,2.615,2.6695,2.6712,2.6712,2.6712,2.6712,2.6712,2.6611,0.0,0.0,0.0,2.4901,2.4884,2.4931,2.5528,2.5787,2.5841,2.6425,2.6712,2.6712,2.6712,2.6712,2.6712,2.6712,2.6712,2.6712,2.6712,2.6712,2.6712,2.6712,2.6712,2.6712,2.6712,2.6712,2.6712,2.6835,2.6898,2.6898,2.6881,2.6898,2.6894,2.7034,2.7106,2.711,2.711,2.7402,2.798,2.8014,2.8315,2.8954,2.8993,2.9138,2.939,2.9153,2.9276,2.9833,2.9602,2.9629,3.0074,3.0171,3.0303,3.0515,3.1034,3.1352,3.1427,3.1409,3.1464,3.1611,3.1611,3.1666,3.1809,3.1828,3.2082,3.2754,3.275,3.297,3.3577,3.3742,3.3755,3.3843,3.3771,3.3958,3.4914,3.4958,3.4963,3.5509,3.6141,3.6462,3.6,3.5937,3.6057,3.6156,3.5961,3.5661,3.5616,3.5639,3.5622,3.5616,3.5622,3.5622,3.5622,3.5622,3.5622,3.5622,3.5622,3.5622,3.5622,3.5622,3.5622,3.5622,3.5622,3.5622,3.5622,3.5622,3.5622,2.6607,2.6712,2.6712,2.6712,2.6712,2.6712,2.6712,2.6683,2.648,2.6395,2.6399,2.6378,2.6395,2.6378,2.6518,2.6543,2.6547,2.664,2.6712,2.6712,2.6712,2.6712,2.6712,2.6712,2.6712,2.6712,2.6712,2.6712,2.6712,2.6712,2.6712,2.6712,2.6712,2.6712,2.6742,2.7342,2.7655,2.7655,2.7638,2.7642,2.7655,2.8328,2.8671,2.8671,2.8654,2.8727,2.8814,2.8836,2.8891,2.8993,2.8993,2.902,2.9057,2.9068,2.9052,2.913,2.9107,2.9361,3.0057,3.0425,3.1074,3.209,3.2918,3.284,3.1549,3.1409,3.1684,3.2329,3.2416,3.2717,3.3348,3.3373,3.3356,3.3536,3.3301,3.3176,3.336,3.3536,3.3832,3.4251,3.4843,3.5125,3.5383,3.588,3.6045,3.5953,3.6148,3.6239,3.5883,3.6035,3.6118,3.5832,3.5667,3.5622,3.5622,3.5622,3.5622,3.5622,3.5622,3.5622,3.5622,3.5622,3.5622,3.5622,3.5622,3.5622,3.5622,3.5622,3.5622,3.5622,3.5622,3.5622,3.5622,3.5622,3.5622,2.6712,2.6712,2.6712,2.6712,2.6712,2.6712,2.6712,2.6712,2.6712,2.6712,2.6712,2.6712,2.6712,2.6712,2.6712,2.6712,2.6712,2.6712,2.6712,2.6712,2.6712,2.6712,2.6712,2.6712,2.6712,2.6712,2.6712,2.6712,2.6712,2.6712,2.6712,2.6729,2.7076,2.752,2.7939,2.8286,2.8446,2.8446,2.8455,2.8455,2.845,2.8819,2.8993,2.8993,2.8993,2.9196,2.9588,2.96,2.9791,3.0168,3.018,3.0202,3.0207,3.019,3.0207,3.0185,3.0185,3.0333,3.0678,3.0873,3.1302,3.207,3.2482,3.2526,3.2049,3.2216,3.2523,3.2873,3.2694,3.2698,3.3048,3.3091,3.3246,3.3655,3.3522,3.3592,3.3948,3.4094,3.4282,3.4529,3.4654,3.4987,3.5637,3.5851,3.6064,3.6094,3.6113,3.587,3.5644,3.5805,3.5887,3.5667,3.5622,3.5622,3.5622,3.5622,3.5622,3.5622,3.5622,3.5622,3.5622,3.5622,3.5622,3.5622,3.5622,3.5622,3.5622,3.5622,3.5622,3.5622,3.5622,3.5622,3.5622,3.5622,3.5622,2.6551,2.6551,2.6679,2.6712,2.6712,2.6712,2.6712,2.6712,2.6712,2.6712,2.6712,2.6712,2.6712,2.6712,2.6712,2.6712,2.6712,2.6712,2.6712,2.6712,2.6712,2.6712,2.6712,2.6712,2.6712,2.6712,2.6712,2.6763,2.6936,2.6949,2.7051,2.7262,2.7782,2.8378,2.8976,2.9174,2.9242,2.925,2.9407,2.9428,2.9254,2.9416,2.9496,2.9491,2.9501,2.9762,3.0323,3.034,3.0615,3.114,3.119,3.119,3.119,3.119,3.119,3.119,3.119,3.119,3.12,3.1291,3.1434,3.1658,3.2003,3.2332,3.261,3.3105,3.3291,3.3073,3.2868,3.2769,3.2857,3.2995,3.3218,3.3793,3.3754,3.3926,3.4453,3.4616,3.4729,3.4765,3.4712,3.5046,3.5685,3.5746,3.5752,3.6041,3.5849,3.5628,3.5622,3.5622,3.5622,3.5622,3.5622,3.5622,3.5622,3.5622,3.5622,3.5622,3.5622,3.5622,3.5622,3.5622,3.5622,3.5622,3.5622,3.5622,3.5622,3.5622,3.5622,3.5622,3.5622,3.5622,3.5622,3.5622,3.5622,2.6055,2.6117,2.65,2.6712,2.6678,2.6683,2.6678,2.6683,2.6708,2.6712,2.6712,2.6712,2.6712,2.6712,2.6712,2.6712,2.6712,2.6712,2.6712,2.6712,2.6712,2.6712,2.6712,2.6733,2.6712,2.6729,2.6759,2.7144,2.7693,2.7705,2.8074,2.871,2.887,2.8942,2.9094,2.9668,3.0002,3.0014,3.0654,3.0683,3.0086,3.0649,3.0997,3.1009,3.097,3.1031,3.1055,3.1094,3.1128,3.119,3.119,3.119,3.119,3.119,3.119,3.119,3.1212,3.119,3.122,3.155,3.1648,3.1397,3.2606,3.3235,3.3009,3.3594,3.3581,3.2934,3.3152,3.3406,3.3524,3.4001,3.4309,3.4418,3.4224,3.4087,3.4251,3.4367,3.47,3.5196,3.564,3.6225,3.6201,3.6172,3.6077,3.5782,3.57,3.5622,3.5622,3.5622,3.5622,3.5622,3.5622,3.5622,3.5622,3.5622,3.5622,3.5622,3.5622,3.5622,3.5622,3.5622,3.5622,3.5622,3.5622,3.5622,3.5622,3.5622,3.5622,3.5622,3.5622,3.5622,3.5622,3.5673,3.569,2.5514,2.5582,2.6073,2.6284,2.6293,2.6284,2.6288,2.6306,2.659,2.6712,2.6712,2.6712,2.6712,2.6712,2.6712,2.6712,2.6712,2.6712,2.6712,2.6712,2.6712,2.6712,2.6729,2.7156,2.7342,2.7414,2.7833,2.8222,2.8455,2.8513,2.889,2.9571,2.9656,2.9864,3.0274,3.0608,3.0751,3.0772,3.1038,3.1048,3.0818,3.1043,3.119,3.119,3.119,3.119,3.119,3.119,3.119,3.119,3.119,3.119,3.119,3.119,3.119,3.1212,3.1628,3.1843,3.1858,3.2401,3.2676,3.2515,3.3087,3.3397,3.3262,3.3517,3.3471,3.3176,3.3306,3.3478,3.3532,3.3758,3.4098,3.4452,3.4429,3.4497,3.4943,3.5071,3.5253,3.5476,3.5731,3.5936,3.593,3.593,3.5844,3.5639,3.5622,3.5622,3.5622,3.5622,3.5622,3.5622,3.5622,3.5622,3.5622,3.5622,3.5622,3.5622,3.5622,3.5622,3.5622,3.5622,3.5622,3.5622,3.5622,3.5622,3.5622,3.5622,3.5622,3.5622,3.5622,3.5622,3.5622,3.5988,3.6248,2.5245,2.539,2.6185,2.6487,2.6339,2.6515,2.6584,2.6579,2.6764,2.703,2.73,2.7157,2.7183,2.7266,2.6919,2.6712,2.6725,2.6911,2.6987,2.7034,2.7203,2.7347,2.7389,2.7858,2.8132,2.8205,2.8696,2.9077,2.9293,2.9547,2.9876,3.034,3.0408,3.0649,3.1123,3.119,3.119,3.119,3.119,3.119,3.1173,3.119,3.119,3.119,3.119,3.119,3.119,3.119,3.119,3.119,3.119,3.1297,3.1488,3.1515,3.1589,3.1816,3.23,3.2593,3.2599,3.3102,3.3384,3.3413,3.3553,3.3688,3.3739,3.3886,3.3999,3.4037,3.401,3.4008,3.3722,3.3891,3.4252,3.4737,3.4816,3.5047,3.5504,3.5622,3.5594,3.5622,3.5627,3.5622,3.5628,3.5633,3.5622,3.5611,3.5622,3.5622,3.5622,3.5622,3.5622,3.5622,3.5622,3.5622,3.5622,3.5622,3.5622,3.5622,3.5622,3.5622,3.5622,3.5622,3.5622,3.5622,3.5622,3.5622,3.5622,3.5622,3.5673,3.5673,3.5797,3.5949,3.6039,3.6592,3.7004,2.5396,2.5654,2.7251,2.7533,2.7157,2.765,2.7925,2.7707,2.736,2.7771,2.8587,2.8222,2.8329,2.8704,2.7431,2.6746,2.6831,2.7461,2.7752,2.7828,2.8472,2.8857,2.8908,2.8942,2.8919,2.8855,2.8969,2.9364,3.0017,3.07,3.1116,3.1123,3.1089,3.1149,3.119,3.119,3.119,3.119,3.1241,3.1224,3.1241,3.1241,3.1292,3.1326,3.1224,3.1263,3.1275,3.1224,3.1241,3.1224,3.1292,3.1556,3.217,3.2264,3.2554,3.3147,3.3294,3.335,3.335,3.3463,3.3514,3.3536,3.4106,3.4443,3.4489,3.4957,3.5284,3.5453,3.5318,3.5103,3.4624,3.4917,3.5323,3.5453,3.5526,3.5543,3.5588,3.5622,3.5622,3.5622,3.5622,3.5622,3.5622,3.5622,3.5622,3.5622,3.5622,3.5622,3.5622,3.5622,3.5622,3.5622,3.5622,3.5622,3.5622,3.5622,3.5622,3.5622,3.5622,3.5622,3.5622,3.5622,3.5622,3.5622,3.5622,3.5622,3.5622,3.5673,3.5785,3.5977,3.6468,3.666,3.6716,3.7358,3.7753,2.5728,2.6059,2.6368,2.6555,2.6724,2.6935,2.702,2.702,2.7153,2.764,2.8292,2.8207,2.8439,2.8976,2.8434,2.8163,2.8193,2.8455,2.8569,2.8586,2.887,2.8993,2.9016,2.9082,2.9125,2.9153,2.9217,2.9588,3.0227,3.0904,3.119,3.119,3.119,3.119,3.119,3.119,3.119,3.1241,3.1635,3.1904,3.195,3.2363,3.2606,3.2594,3.2148,3.2131,3.2606,3.2616,3.2606,3.2611,3.2589,3.273,3.2972,3.3,3.3119,3.3418,3.3851,3.41,3.4156,3.4545,3.4816,3.4827,3.5036,3.5194,3.5244,3.5453,3.5622,3.5622,3.5622,3.5453,3.5357,3.5453,3.5622,3.5622,3.5622,3.5622,3.5622,3.5622,3.5622,3.5622,3.5622,3.5622,3.5622,3.5622,3.5622,3.5622,3.5622,3.5622,3.5622,3.5622,3.5622,3.5622,3.5622,3.5622,3.5622,3.5622,3.5622,3.5622,3.5622,3.5622,3.5622,3.5622,3.5622,3.5763,3.5729,3.5825,3.5915,3.6293,3.6338,3.6873,3.733,3.7438,3.7494,3.8125,3.8464,2.6264,2.673,2.6593,2.6607,2.6799,2.7001,2.7081,2.7077,2.7258,2.7772,2.8398,2.8517,2.8763,2.9122,2.9333,2.929,2.9138,2.9097,2.9058,2.9091,2.931,2.941,2.9441,2.9514,2.9454,2.9341,2.9578,2.9908,3.0336,3.0925,3.107,3.092,3.1075,3.1336,3.148,3.1353,3.1402,3.1859,3.2189,3.2399,3.266,3.3141,3.3531,3.3643,3.3264,3.3095,3.3401,3.3384,3.3384,3.3384,3.3384,3.3502,3.3722,3.3987,3.41,3.4151,3.4573,3.4855,3.4906,3.5323,3.5605,3.5605,3.5605,3.5622,3.5622,3.5622,3.5622,3.5622,3.5622,3.5622,3.5622,3.5605,3.5622,3.5622,3.5622,3.5622,3.5622,3.5622,3.5622,3.5622,3.5622,3.5622,3.5622,3.5622,3.5622,3.5622,3.5622,3.5622,3.5622,3.5622,3.5622,3.5622,3.5622,3.5622,3.5622,3.5622,3.5639,3.5639,3.5622,3.5622,3.5712,3.5695,3.5797,3.5904,3.6022,3.6118,3.6394,3.6829,3.7313,3.7849,3.8102,3.8227,3.8481,3.8859,3.9113,2.698,2.7569,2.8207,2.796,2.7598,2.8002,2.8395,2.8177,2.7785,2.816,2.9029,2.9261,2.9227,2.9483,2.9824,2.9886,2.9333,2.9142,2.914,2.9245,2.9843,3.0101,3.0096,2.9997,2.9675,2.9271,2.993,3.0198,3.0155,3.0824,3.0965,3.0553,3.1032,3.1598,3.2217,3.1629,3.195,3.2779,3.268,3.2796,3.3333,3.3536,3.3908,3.4421,3.4443,3.415,3.3553,3.3519,3.3599,3.3553,3.3531,3.3795,3.45,3.5053,3.5521,3.5419,3.556,3.5554,3.5554,3.5571,3.5622,3.5622,3.5622,3.5622,3.5622,3.5622,3.5622,3.5622,3.5622,3.5622,3.5622,3.5622,3.5622,3.5622,3.5622,3.5622,3.5622,3.5622,3.5622,3.5622,3.5622,3.5622,3.5622,3.5622,3.5622,3.5622,3.5622,3.5622,3.5622,3.5622,3.5622,3.5622,3.5622,3.5622,3.5622,3.5622,3.5656,3.5673,3.5639,3.5639,3.587,3.5955,3.6344,3.6518,3.6761,3.6891,3.7443,3.7827,3.7979,3.8413,3.869,3.8994,3.9203,3.9463,3.9717,2.742,2.7619,2.7798,2.7779,2.7625,2.781,2.7885,2.7885,2.7654,2.8039,2.8691,2.8779,2.8985,2.9361,2.9612,2.935,2.8789,2.8737,2.8935,2.9295,2.9582,2.9679,2.9607,2.9259,2.8734,2.843,2.9214,2.9473,2.9467,3.0615,3.1018,3.0683,3.1473,3.1857,3.1738,3.15,3.1849,3.2607,3.3013,3.3483,3.4142,3.4658,3.5025,3.5222,3.5256,3.5115,3.4929,3.4912,3.4917,3.4884,3.4912,3.503,3.5256,3.547,3.5605,3.5622,3.5622,3.5622,3.5622,3.5622,3.5622,3.5622,3.5622,3.5622,3.5622,3.5622,3.5622,3.5622,3.5622,3.5622,3.5622,3.5622,3.5622,3.5622,3.5622,3.5622,3.5622,3.5622,3.5622,3.5622,3.5622,3.5622,3.5622,3.5622,3.5622,3.5622,3.5622,3.5622,3.5622,3.5622,3.5622,3.5622,3.5622,3.5729,3.5831,3.6124,3.64,3.6321,3.618,3.6186,3.6327,3.6468,3.684,3.7263,3.7488,3.7867,3.8419,3.8707,3.8825,3.9119,3.9508,3.9683,3.9774,3.983,3.987,2.7585,2.7585,2.7585,2.7585,2.7585,2.7585,2.7585,2.7585,2.7585,2.7816,2.8152,2.8403,2.8571,2.8758,2.895,2.8727,2.8201,2.8171,2.8367,2.874,2.8996,2.907,2.8979,2.8451,2.8321,2.8439,2.9087,2.9521,2.9696,3.0747,3.118,3.106,3.1631,3.1987,3.175,3.1576,3.1815,3.2734,3.3058,3.3498,3.4163,3.487,3.5247,3.5253,3.5464,3.5594,3.5622,3.5622,3.5622,3.5622,3.5622,3.5622,3.5622,3.5605,3.5622,3.5622,3.5622,3.5622,3.5622,3.5622,3.5622,3.5622,3.5622,3.5622,3.5622,3.5622,3.5622,3.5622,3.5622,3.5622,3.5622,3.5622,3.5622,3.5622,3.5622,3.5622,3.5622,3.5622,3.5622,3.5622,3.5622,3.5622,3.5622,3.5622,3.5622,3.5622,3.5622,3.5622,3.5622,3.5622,3.5639,3.5757,3.5988,3.6096,3.6141,3.6569,3.7139,3.7077,3.6913,3.7003,3.7144,3.7189,3.7443,3.8148,3.8526,3.8888,3.9396,3.9406,3.9525,3.992,4.0106,4.0045,3.991,3.9532,3.9476,2.7585,2.7585,2.7585,2.7585,2.7585,2.7585,2.7585,2.7585,2.7585,2.7619,2.776,2.8165,2.8146,2.7872,2.8259,2.8165,2.7713,2.7817,2.7885,2.8057,2.8409,2.8733,2.8571,2.8319,2.8648,2.9244,2.9531,3.0138,3.0807,3.1236,3.1417,3.1301,3.15,3.177,3.2057,3.1724,3.2059,3.3089,3.2895,3.3007,3.3731,3.4317,3.4712,3.4783,3.531,3.5566,3.5458,3.5441,3.5509,3.5594,3.5622,3.5622,3.5622,3.5622,3.5622,3.5622,3.5622,3.5622,3.5622,3.5622,3.5622,3.5622,3.5622,3.5622,3.5622,3.5622,3.5622,3.5622,3.5622,3.5622,3.5622,3.5622,3.5622,3.5622,3.5622,3.5622,3.5622,3.5622,3.5622,3.5622,3.5622,3.5622,3.5622,3.5622,3.5622,3.5622,3.5622,3.5639,3.5831,3.5881,3.5752,3.6062,3.6603,3.6721,3.6874,3.7421,3.7951,3.7979,3.7866,3.8007,3.8064,3.8075,3.8261,3.8943,3.9356,3.9785,3.9994,3.9903,3.9886,4.0022,4.0106,4.0106,3.9814,3.9368,3.9012,2.7585,2.7585,2.7585,2.7585,2.7585,2.7585,2.7585,2.7585,2.7585,2.7585,2.7656,2.7754,2.7794,2.765,2.7775,2.7729,2.7811,2.8141,2.8329,2.8445,2.9026,2.8994,2.889,2.9366,2.9613,2.967,2.9995,3.0185,3.018,3.1135,3.1295,3.0831,3.1772,3.2035,3.1788,3.1584,3.1955,3.2723,3.2729,3.3145,3.4087,3.4419,3.4859,3.5317,3.5475,3.5328,3.493,3.4865,3.5121,3.5571,3.5622,3.5622,3.5622,3.5622,3.5622,3.5622,3.5622,3.5622,3.5622,3.5622,3.5622,3.5622,3.5622,3.5622,3.5622,3.5622,3.5622,3.5622,3.5622,3.5622,3.5622,3.5622,3.5622,3.5622,3.5622,3.5622,3.5622,3.5622,3.5622,3.5622,3.5622,3.5622,3.5622,3.5673,3.5673,3.569,3.5774,3.5926,3.631,3.649,3.6513,3.7099,3.7544,3.7567,3.777,3.8317,3.869,3.8825,3.8926,3.9136,3.9142,3.9102,3.9396,3.9859,3.9734,4.0028,4.0079,4.0039,4.0089,4.0106,3.9965,3.9889,3.9431,3.8975,3.8624,2.7585,2.7585,2.7585,2.7585,2.7585,2.7585,2.7585,2.7585,2.7585,2.7585,2.7585,2.7585,2.775,2.8,2.8021,2.8205,2.8477,2.8845,2.9009,2.9116,2.9681,2.9606,2.9334,2.9865,3.0059,3.0056,3.0317,3.066,3.0909,3.1399,3.1434,3.1522,3.1871,3.1894,3.1573,3.151,3.169,3.2071,3.2146,3.2569,3.3236,3.3896,3.4118,3.4514,3.4776,3.4871,3.4309,3.4465,3.4817,3.5167,3.5413,3.5622,3.5622,3.5622,3.5622,3.5622,3.5622,3.5622,3.5622,3.5622,3.5622,3.5622,3.5622,3.5622,3.5622,3.5622,3.5622,3.5622,3.5622,3.5622,3.5622,3.5622,3.5622,3.5622,3.5622,3.5622,3.5622,3.5622,3.5622,3.5622,3.5622,3.5622,3.5639,3.5881,3.6073,3.6208,3.6541,3.6817,3.7161,3.7235,3.7404,3.7905,3.8288,3.8345,3.8504,3.8983,3.9271,3.9423,3.9474,3.9802,3.9808,3.9768,3.991,4.0062,4.0072,4.0106,4.0106,4.0106,4.0106,4.0039,3.9846,3.9636,3.9276,3.8793,3.8409,2.7585,2.7585,2.7585,2.7585,2.7585,2.7585,2.7585,2.7585,2.7585,2.7653,2.7743,2.7735,2.8141,2.871,2.8712,2.9009,2.954,2.9593,2.9766,2.9983,3.0328,3.0314,2.9989,3.0051,3.0327,3.0581,3.0612,3.1216,3.1708,3.1663,3.1836,3.1965,3.1737,3.156,3.1496,3.1496,3.1496,3.1568,3.1617,3.1803,3.2222,3.2991,3.3385,3.3372,3.3824,3.4018,3.3767,3.3975,3.4358,3.4469,3.5202,3.5566,3.5622,3.5622,3.5622,3.5622,3.5622,3.5622,3.5622,3.5622,3.5622,3.5622,3.5622,3.5622,3.5622,3.5622,3.5622,3.5622,3.5622,3.5622,3.5622,3.5622,3.5622,3.5639,3.5656,3.5757,3.5707,3.5656,3.5639,3.5712,3.5763,3.5746,3.6,3.64,3.6919,3.6902,3.7206,3.751,3.7821,3.7996,3.8165,3.8447,3.8808,3.9119,3.9322,3.9609,3.9802,3.9937,3.9886,4.0011,4.0005,3.9988,4.0039,4.0106,4.0106,4.0106,4.0106,4.0106,3.9988,3.9901,3.9675,3.9584,3.9434,3.8829,3.8367,2.7585,2.7585,2.7585,2.7585,2.7585,2.7585,2.7585,2.7585,2.76,2.7923,2.8284,2.8374,2.877,2.9362,2.9383,2.9495,2.9758,3.014,3.0567,3.1092,3.1182,3.1227,3.1061,3.0987,3.1114,3.1249,3.1279,3.1461,3.1638,3.1653,3.1568,3.1668,3.1675,3.1496,3.1496,3.1496,3.1496,3.1496,3.1496,3.1768,3.2182,3.2586,3.3013,3.3205,3.3165,3.2973,3.2882,3.2955,3.329,3.396,3.4911,3.5622,3.5622,3.5622,3.5622,3.5622,3.5622,3.5622,3.5622,3.5622,3.5622,3.5622,3.5622,3.5622,3.5622,3.5622,3.5622,3.5622,3.5622,3.5622,3.5712,3.5639,3.574,3.5859,3.6225,3.6524,3.6462,3.6022,3.6005,3.6372,3.6564,3.675,3.7245,3.7409,3.7669,3.7686,3.7905,3.8176,3.8447,3.8723,3.891,3.9119,3.9322,3.9599,3.9666,3.9869,3.9971,4.0106,4.0106,4.0106,4.0106,4.0106,4.0106,4.0106,4.0106,4.0106,4.0106,3.9591,3.9355,3.9424,3.947,3.9152,3.8856,3.8502,3.837,2.7585,2.7585,2.7585,2.7585,2.7585,2.7585,2.7585,2.766,2.7968,2.8261,2.8628,2.8898,2.9422,2.9997,3.0042,3.017,3.0493,3.0792,3.1159,3.1436,3.1473,3.1488,3.1496,3.1496,3.1496,3.1496,3.1481,3.1496,3.1496,3.1496,3.1503,3.1496,3.1496,3.1496,3.1496,3.1496,3.1496,3.1496,3.1496,3.1703,3.2035,3.2458,3.2702,3.2913,3.2511,3.2195,3.2566,3.2953,3.3421,3.4118,3.5005,3.5594,3.56,3.5622,3.5622,3.5622,3.5622,3.5622,3.5622,3.5622,3.5622,3.5622,3.5622,3.5622,3.5622,3.5622,3.5622,3.5622,3.5656,3.5723,3.6096,3.618,3.6259,3.6693,3.7043,3.7302,3.7235,3.6919,3.6794,3.7212,3.7302,3.7466,3.7781,3.8227,3.8413,3.8436,3.8949,3.922,3.9288,3.9525,3.9616,3.9768,3.9903,4.0022,4.0022,4.0056,4.0039,4.0106,4.0106,4.0106,4.0106,4.0106,4.0106,4.0106,4.0106,4.0106,4.0001,3.9394,3.9079,3.9371,3.9322,3.8704,3.8397,3.8459,3.8406,2.7585,2.7585,2.7585,2.7585,2.7585,2.76,2.769,2.7863,2.8351,2.8712,2.8996,2.9525,3.008,3.0545,3.0665,3.1017,3.1316,3.1429,3.1466,3.1481,3.1496,3.1496,3.1496,3.1496,3.1496,3.1496,3.1496,3.1496,3.1496,3.1496,3.1496,3.1496,3.1496,3.1496,3.1496,3.1496,3.1496,3.1496,3.1496,3.151,3.161,3.2092,3.237,3.2278,3.1972,3.1846,3.2346,3.2904,3.3608,3.4291,3.4924,3.5225,3.5333,3.5566,3.5622,3.5622,3.5622,3.5622,3.5622,3.5622,3.5622,3.5622,3.5622,3.5622,3.5622,3.5622,3.5622,3.5673,3.578,3.6191,3.684,3.6953,3.7257,3.7669,3.7916,3.8052,3.8086,3.8142,3.8244,3.8041,3.8091,3.821,3.852,3.8916,3.9068,3.9254,3.9768,4.0106,4.0106,4.0096,4.0062,4.0045,4.0079,4.0106,4.0106,4.0106,4.0106,4.0106,4.0106,4.0106,4.0039,3.9769,3.9744,4.0052,4.0106,4.0077,3.9889,3.9374,3.9256,3.9476,3.9141,3.8496,3.8381,3.8495,3.8458,2.7585,2.7585,2.7585,2.7585,2.7585,2.76,2.7923,2.8382,2.8598,2.9214,3.0103,3.0306,3.0724,3.1159,3.1316,3.1414,3.1481,3.1496,3.1496,3.1496,3.1496,3.1496,3.1496,3.1496,3.1496,3.1496,3.1496,3.1496,3.1496,3.1496,3.1496,3.1496,3.1496,3.1496,3.1496,3.1496,3.1496,3.1496,3.1496,3.1496,3.1553,3.1668,3.1796,3.1789,3.1589,3.1653,3.1867,3.2388,3.2815,3.2989,3.3585,3.3893,3.4276,3.5005,3.5464,3.5543,3.5588,3.5622,3.5622,3.5622,3.5622,3.5622,3.5622,3.5622,3.5622,3.5673,3.5808,3.5943,3.6332,3.6902,3.7635,3.7725,3.777,3.8052,3.8474,3.8791,3.8926,3.9169,3.9294,3.891,3.8886,3.8937,3.9237,3.9463,3.9565,3.9643,3.9886,4.0106,4.0106,4.0106,4.0096,4.0096,4.0089,4.0106,4.0106,4.0106,4.0106,4.0106,4.0106,4.0106,3.9901,3.9385,3.9335,3.9846,4.0033,3.9988,3.9698,3.9322,3.9255,3.9364,3.886,3.8276,3.8488,3.8685,3.8798,2.7585,2.7585,2.7585,2.7585,2.7645,2.7983,2.8284,2.8688,2.9288,2.9909,3.0455,3.0852,3.1174,3.1436,3.1496,3.1496,3.1496,3.1496,3.1496,3.1496,3.1496,3.1496,3.1496,3.1496,3.1496,3.1496,3.1496,3.1496,3.1496,3.1496,3.1496,3.1496,3.1496,3.1496,3.1496,3.1496,3.1496,3.1496,3.1496,3.1496,3.1496,3.1496,3.1496,3.1496,3.1539,3.1689,3.2106,3.2342,3.2788,3.3132,3.3456,3.3563,3.3868,3.4405,3.5086,3.5144,3.5424,3.5622,3.5622,3.5622,3.5622,3.5622,3.5622,3.5622,3.574,3.5966,3.6344,3.6777,3.702,3.7675,3.8396,3.8453,3.8639,3.9011,3.9349,3.9485,3.9626,3.9886,3.9768,3.9559,3.9559,3.9609,3.9802,3.9971,4.0056,4.0106,4.0106,4.0106,4.0106,4.0106,4.0106,4.0106,4.0106,4.0106,4.0106,4.0106,4.0106,4.0106,3.9946,3.9952,3.9807,3.9312,3.947,3.9946,3.9971,3.9859,3.9739,3.9477,3.9364,3.9173,3.8572,3.8227,3.8621,3.8872,3.895,2.7725,2.7627,2.7729,2.7732,2.7717,2.8321,2.8688,2.9018,2.9968,3.0545,3.0755,3.1212,3.1458,3.1496,3.1496,3.1496,3.1496,3.1496,3.1496,3.1496,3.1496,3.1496,3.1496,3.1496,3.1496,3.1496,3.1496,3.1496,3.1496,3.1496,3.1496,3.1496,3.1496,3.1496,3.1496,3.1496,3.1496,3.1496,3.1496,3.1496,3.1496,3.1496,3.1496,3.1496,3.1496,3.1768,3.2155,3.2492,3.2646,3.2953,3.3202,3.3372,3.3514,3.4037,3.4443,3.4693,3.5253,3.5538,3.5622,3.5622,3.5622,3.5622,3.5622,3.569,3.6073,3.662,3.7291,3.7933,3.8142,3.8436,3.9068,3.922,3.9457,3.9785,3.9988,4.0072,4.0005,4.0072,4.0056,3.9988,4.0106,4.0106,4.0106,4.0106,4.0106,4.0106,4.0106,4.0106,4.0106,4.0106,4.0106,4.0106,4.0106,4.0106,4.0106,4.0106,4.0106,4.0106,3.9789,3.9578,3.9461,3.9248,3.9594,3.9877,3.9763,3.9666,3.962,3.9668,3.9594,3.9236,3.8442,3.8206,3.8562,3.8887,3.9071,2.8085,2.7669,2.8171,2.8091,2.7776,2.8378,2.8979,2.9541,3.0253,3.0852,3.1286,3.1429,3.1496,3.1496,3.1496,3.1496,3.1496,3.1496,3.1496,3.1496,3.1496,3.1496,3.1496,3.1496,3.1496,3.1496,3.1496,3.1496,3.1496,3.1496,3.1496,3.1496,3.1496,3.1496,3.1496,3.1496,3.1496,3.1496,3.1496,3.1496,3.1496,3.1496,3.1496,3.1496,3.1503,3.1553,3.181,3.2176,3.2367,3.1951,3.2443,3.2688,3.2837,3.3352,3.4006,3.4586,3.5173,3.5622,3.5622,3.5622,3.5707,3.574,3.5723,3.6,3.6705,3.7364,3.8075,3.8791,3.8876,3.9136,3.9666,3.9903,4.0022,4.0039,4.0106,4.0106,4.0106,4.0106,4.0106,4.0106,4.0106,4.0106,4.0106,4.0106,4.0106,4.0106,4.0106,4.0106,4.0106,4.0106,4.0106,4.0106,4.0106,4.0106,4.0106,4.0106,4.0111,4.01,3.9791,3.9382,3.9335,3.9342,3.9457,3.9648,3.9567,3.9619,3.9697,3.975,3.9781,3.9464,3.8849,3.8553,3.8471,3.8795,3.9182,2.9168,2.862,2.8525,2.858,2.872,2.9052,2.9533,3.0155,3.0792,3.1219,3.1451,3.1496,3.1496,3.1496,3.1496,3.1496,3.1496,3.1496,3.1496,3.1496,3.1496,3.1496,3.1496,3.1496,3.1496,3.1496,3.1496,3.1496,3.1496,3.1496,3.1496,3.1496,3.1496,3.1496,3.1496,3.1496,3.1496,3.1496,3.1496,3.1496,3.1496,3.1496,3.1496,3.1496,3.1496,3.1496,3.1589,3.1726,3.1867,3.1553,3.1873,3.2203,3.2641,3.3257,3.3906,3.4597,3.57,3.6028,3.569,3.5656,3.5898,3.6214,3.6383,3.6846,3.7765,3.8334,3.8819,3.9559,3.9633,3.9802,3.9994,4.0089,4.0106,4.0106,4.0106,4.0033,4.0033,4.0083,4.0106,4.0106,4.0106,4.0106,4.0106,4.0106,4.0106,4.0106,4.0106,4.0106,4.0106,4.0106,4.0106,4.0106,4.0106,4.0106,4.0106,4.0106,4.0119,4.0095,3.999,3.963,3.9455,3.9457,3.9512,3.9623,3.9674,3.973,3.9813,3.9802,3.9818,3.9596,3.9333,3.9085,3.8855,3.9002,3.9307,3.0114,2.9814,2.9208,2.9102,2.9314,2.9644,3.0072,3.0552,3.1196,3.1481,3.1496,3.1496,3.1496,3.1496,3.1496,3.1496,3.1496,3.1496,3.1496,3.1496,3.1496,3.1496,3.1496,3.1496,3.1496,3.1496,3.1496,3.1496,3.1496,3.1496,3.1496,3.1496,3.1496,3.1496,3.1496,3.1496,3.1496,3.1496,3.1496,3.1496,3.1496,3.1496,3.1496,3.1496,3.1496,3.1496,3.1496,3.1517,3.1517,3.1517,3.1532,3.1977,3.2808,3.3608,3.4426,3.5292,3.6443,3.6845,3.6524,3.6439,3.6535,3.6896,3.7348,3.7844,3.8622,3.9096,3.9406,3.9988,4.0005,4.0039,4.0106,4.0106,4.0106,4.0106,4.0106,3.9978,3.9885,3.994,3.9857,3.9679,3.9763,4.0106,4.0106,4.0106,4.0106,4.0106,4.0106,4.0106,4.014,4.0174,4.0197,4.0214,4.0191,4.0191,4.0191,4.0178,4.0174,4.0099,3.9983,3.9682,3.9346,3.9338,3.9432,3.9554,3.9744,4.003,4.0217,4.0022,3.9803,3.9553,3.9367,3.9375,3.9331,3.9397,3.9397,3.064,3.1112,3.0498,2.9678,2.8879,2.9936,3.0462,3.065,3.1234,3.1496,3.1496,3.1496,3.1496,3.1496,3.1496,3.1496,3.1496,3.1496,3.1496,3.1496,3.1496,3.1496,3.1496,3.1496,3.1496,3.1496,3.1496,3.1496,3.1496,3.1496,3.1496,3.1496,3.1496,3.1496,3.1496,3.1496,3.1496,3.1525,3.1585,3.1615,3.163,3.1645,3.1683,3.1645,3.1585,3.1518,3.1525,3.1675,3.1757,3.1772,3.1795,3.2435,3.3555,3.4241,3.513,3.6325,3.7254,3.7656,3.7584,3.7437,3.7663,3.7973,3.8368,3.8774,3.9163,3.9717,4.0028,4.0079,4.0096,4.0106,4.0106,4.0106,4.0106,4.0039,3.9952,3.9756,3.9695,3.9776,3.9643,3.9309,3.957,4.0186,4.0523,4.0625,4.0242,4.0208,4.013,4.013,4.0326,4.0377,4.0367,4.0367,4.0326,4.032,4.0337,4.0381,4.0537,4.0278,4.0026,3.9524,3.9014,3.912,3.9389,3.9592,3.9804,4.0222,4.0474,4.0095,3.976,3.9522,3.9391,3.9406,3.9397,3.9397,3.9397,3.086,3.0763,3.0924,3.0749,3.0328,3.0455,3.0732,3.1114,3.1391,3.1496,3.1496,3.1496,3.1496,3.1496,3.1496,3.1496,3.1496,3.1496,3.1496,3.1496,3.1496,3.1496,3.1496,3.1496,3.1496,3.1496,3.1496,3.1496,3.1496,3.1496,3.1496,3.1496,3.1525,3.1496,3.1496,3.16,3.1593,3.169,3.1921,3.2116,3.2191,3.2542,3.2721,3.2721,3.2729,3.2729,3.2759,3.2736,3.2729,3.2699,3.2684,3.3484,3.4423,3.5025,3.5954,3.7221,3.8062,3.8409,3.8372,3.8194,3.8102,3.8667,3.9197,3.9637,3.9551,3.9954,4.0079,4.0089,4.0106,4.0106,4.0106,4.0106,4.007,3.9965,3.9776,3.9516,3.9464,3.953,3.9607,3.9358,4.0034,4.0803,4.1052,4.1261,4.076,4.0326,4.0242,4.0248,4.0563,4.0794,4.0878,4.102,4.1031,4.0992,4.1023,4.101,4.0972,4.0487,4.003,3.9604,3.9158,3.9176,3.9448,3.9627,3.9699,3.9853,3.9927,3.9896,3.9713,3.9481,3.9406,3.9397,3.9397,3.9397,3.9397,3.1321,3.1349,3.1628,3.1475,3.1128,3.089,3.1054,3.1429,3.1496,3.1496,3.1496,3.1496,3.1496,3.1496,3.1496,3.1496,3.1496,3.1496,3.1496,3.1496,3.1496,3.1496,3.1496,3.1496,3.1496,3.1496,3.1496,3.1496,3.1496,3.1496,3.1496,3.154,3.169,3.1809,3.1884,3.2026,3.2079,3.2235,3.249,3.2811,3.2878,3.3163,3.3425,3.3395,3.3365,3.3365,3.3335,3.3305,3.335,3.3365,3.3547,3.4239,3.5069,3.5864,3.6494,3.755,3.8474,3.8878,3.8585,3.8562,3.8418,3.887,3.9247,3.9717,4.0003,4.0106,4.0106,4.0106,4.0106,4.0106,4.0106,4.0106,4.0106,4.0007,3.9404,3.9116,3.917,3.9239,3.9419,3.9487,4.0465,4.1512,4.1607,4.1793,4.1647,4.1255,4.1234,4.1251,4.1369,4.1566,4.1667,4.1819,4.1972,4.1913,4.1866,4.1684,4.1342,4.0327,3.9973,3.9874,3.9605,3.951,3.9391,3.9484,3.9502,3.9412,3.9481,3.9619,3.9547,3.9424,3.9397,3.9397,3.9397,3.9397,3.9397,3.2119,3.3311,3.2684,3.1721,3.0843,3.124,3.1487,3.1496,3.1496,3.1496,3.1496,3.1496,3.1496,3.1496,3.1496,3.1496,3.1496,3.1496,3.1496,3.1496,3.1496,3.1496,3.1496,3.1496,3.1496,3.1496,3.1496,3.1496,3.1496,3.166,3.1615,3.1862,3.2288,3.2572,3.2557,3.311,3.341,3.3425,3.338,3.3477,3.3522,3.3664,3.3814,3.3844,3.3866,3.3911,3.3926,3.3918,3.3933,3.3903,3.3881,3.4539,3.5574,3.5879,3.6565,3.7694,3.8484,3.8523,3.7948,3.8478,3.8622,3.8727,3.8989,3.9338,3.9876,4.0081,4.0106,4.0106,4.0106,4.0106,4.0106,4.0089,4.0089,3.9751,3.9135,3.8894,3.8963,3.9299,3.9537,4.0008,4.1213,4.2243,4.2263,4.2324,4.2398,4.2293,4.2263,4.2276,4.2259,4.2337,4.2432,4.2784,4.2949,4.258,4.2429,4.2176,4.1665,4.0577,3.9866,3.9746,3.9639,3.9463,3.9397,3.9397,3.9397,3.9397,3.9397,3.9424,3.9487,3.9577,3.9427,3.9397,3.9397,3.9487,3.9616,3.2792,3.2806,3.2635,3.2304,3.1951,3.213,3.198,3.1546,3.1496,3.1496,3.1496,3.1496,3.1496,3.1496,3.1496,3.1496,3.1496,3.1496,3.1496,3.1496,3.1496,3.1496,3.1496,3.1496,3.1496,3.1496,3.1496,3.1511,3.1496,3.1847,3.2116,3.2377,3.311,3.3522,3.3327,3.3447,3.3484,3.3582,3.3851,3.4166,3.4226,3.454,3.4756,3.4733,3.4726,3.4719,3.4681,3.4651,3.4651,3.4651,3.4637,3.5197,3.6113,3.6453,3.7105,3.784,3.8407,3.8251,3.7455,3.729,3.7613,3.8046,3.8546,3.8867,3.9295,3.9853,4.0014,4.0106,4.0106,4.0106,4.0106,4.0083,3.9961,3.9352,3.8886,3.8824,3.8932,3.9512,3.9977,4.0645,4.1659,4.2482,4.2791,4.2783,4.2853,4.2965,4.2942,4.2959,4.298,4.3091,4.322,4.3748,4.3925,4.3382,4.2954,4.2249,4.154,4.0516,3.9847,3.9527,3.9433,3.9397,3.9397,3.9397,3.9397,3.9397,3.9541,3.9675,3.9765,3.9795,3.981,3.972,3.9714,3.9909,4.0133,3.3529,3.3537,3.3103,3.294,3.2868,3.2429,3.1909,3.1532,3.1496,3.1496,3.1496,3.1496,3.1496,3.1496,3.1496,3.1496,3.1496,3.1496,3.1496,3.1496,3.1496,3.1496,3.1496,3.1496,3.1496,3.1496,3.154,3.1578,3.1906,3.2288,3.2736,3.335,3.4054,3.4278,3.4218,3.43,3.4315,3.445,3.4711,3.4854,3.4959,3.5183,3.5415,3.5415,3.5415,3.5429,3.5474,3.5489,3.5489,3.5489,3.5588,3.5855,3.6508,3.6814,3.7205,3.7447,3.7368,3.73,3.6813,3.6306,3.6722,3.7323,3.7882,3.8346,3.8756,3.9371,3.9782,3.9952,4.007,3.9895,3.9776,3.9789,3.9535,3.8932,3.8653,3.857,3.894,3.95,4.0446,4.1145,4.2132,4.2833,4.318,4.327,4.3276,4.3423,4.3561,4.3597,4.3584,4.3644,4.367,4.4034,4.4047,4.3269,4.2539,4.1853,4.1113,4.0389,3.9882,3.9427,3.9406,3.9397,3.9397,3.9412,3.9466,3.9556,3.981,3.9999,4.0343,4.0477,4.0477,4.0337,4.0113,4.0352,4.072,3.4332,3.5283,3.4184,3.3627,3.3408,3.2255,3.1632,3.1546,3.151,3.1496,3.1496,3.1496,3.1496,3.1496,3.1496,3.1496,3.1496,3.1496,3.1496,3.1496,3.1496,3.1496,3.1496,3.1496,3.1496,3.1511,3.1645,3.1966,3.2437,3.2849,3.3469,3.4195,3.457,3.4862,3.5085,3.516,3.516,3.516,3.5205,3.528,3.5355,3.5429,3.5489,3.5489,3.5489,3.5489,3.5489,3.5489,3.5489,3.5489,3.5514,3.5919,3.6094,3.591,3.6141,3.6236,3.607,3.6157,3.6282,3.5878,3.5951,3.6515,3.6729,3.7511,3.8488,3.9196,3.9656,3.9946,4.007,3.9548,3.9186,3.9142,3.9095,3.8665,3.8291,3.8466,3.8844,3.9627,4.0705,4.1724,4.2914,4.3498,4.3255,4.3299,4.3208,4.3843,4.3933,4.3917,4.3904,4.3867,4.3891,4.3851,4.3625,4.283,4.2117,4.1371,4.0724,3.9999,3.9755,3.9406,3.9397,3.9442,3.9541,3.9586,3.958,3.9774,4.0298,4.0756,4.1169,4.1244,4.1244,4.1035,4.0825,4.1124,4.1448,3.4971,3.4859,3.4455,3.4299,3.4118,3.2859,3.2285,3.2216,3.1775,3.1496,3.1496,3.1496,3.1496,3.1496,3.1496,3.1496,3.1496,3.1496,3.1496,3.1496,3.1496,3.1496,3.1496,3.1496,3.1496,3.1668,3.1914,3.228,3.2706,3.3237,3.4233,3.507,3.5108,3.534,3.5415,3.5489,3.5489,3.5489,3.5489,3.5489,3.5489,3.5489,3.5489,3.5489,3.5489,3.5489,3.5489,3.5489,3.5489,3.5489,3.5489,3.5702,3.5685,3.6054,3.6477,3.6461,3.603,3.5627,3.5749,3.562,3.5701,3.6094,3.6392,3.7439,3.8502,3.9342,3.974,3.9952,3.9937,3.9454,3.9101,3.8963,3.8736,3.8363,3.8238,3.8659,3.917,4.0206,4.1255,4.2207,4.342,4.339,4.3184,4.2715,4.2754,4.3746,4.4246,4.4131,4.4044,4.394,4.368,4.3582,4.2969,4.2109,4.1536,4.0853,4.0257,3.9702,3.9517,3.9397,3.9412,3.9487,3.9675,3.9969,4.0307,4.0636,4.101,4.1454,4.1858,4.2027,4.2027,4.1787,4.1652,4.1912,4.2107,3.5368,3.4976,3.4689,3.4455,3.4043,3.3053,3.2593,3.2465,3.1832,3.1496,3.1496,3.1496,3.1496,3.1496,3.1496,3.1496,3.1496,3.1496,3.1496,3.1496,3.1496,3.1496,3.1496,3.1496,3.1496,3.1735,3.2146,3.2624,3.3148,3.415,3.5175,3.54,3.5489,3.5489,3.5489,3.5489,3.5489,3.5489,3.5489,3.5489,3.5489,3.5489,3.5489,3.5489,3.5489,3.5489,3.5489,3.5489,3.5489,3.5489,3.5489,3.5489,3.5537,3.5942,3.6125,3.6039,3.5814,3.5537,3.557,3.5546,3.5837,3.6321,3.6775,3.7874,3.8697,3.9489,3.9763,3.9946,3.9706,3.9422,3.9142,3.8844,3.8433,3.8039,3.8473,3.8938,3.9889,4.0897,4.1829,4.2704,4.3068,4.3075,4.28,4.2308,4.2465,4.3702,4.4095,4.3726,4.3645,4.3562,4.3154,4.2824,4.2109,4.1305,4.0802,4.0406,3.9929,3.9556,3.9481,3.9412,3.9427,3.978,4.0193,4.075,4.1313,4.1558,4.1768,4.2117,4.2462,4.2591,4.2681,4.2551,4.2437,4.2586,4.2721,3.56,3.5515,3.4871,3.4235,3.3543,3.2879,3.2545,3.2451,3.1783,3.1496,3.1496,3.1496,3.1496,3.1496,3.1496,3.1496,3.1496,3.1496,3.1496,3.1496,3.1496,3.1496,3.1496,3.1511,3.1608,3.1809,3.2333,3.3155,3.3896,3.4726,3.5355,3.5489,3.5489,3.5489,3.5489,3.5489,3.5489,3.5489,3.5489,3.5489,3.5489,3.5489,3.5489,3.5489,3.5489,3.5489,3.5489,3.5489,3.5489,3.5489,3.5489,3.5489,3.5537,3.5569,3.5587,3.5587,3.5561,3.5537,3.5578,3.566,3.6243,3.6943,3.7806,3.8211,3.867,3.9457,3.9795,3.9905,3.9718,3.9299,3.8977,3.8908,3.8623,3.8422,3.8648,3.9026,3.9629,4.0841,4.2164,4.2792,4.2723,4.2785,4.3168,4.2761,4.2426,4.3695,4.3991,4.3487,4.287,4.2809,4.2497,4.1965,4.1221,4.0569,4.0354,3.9966,3.9663,3.9415,3.9472,3.9616,3.978,4.0253,4.081,4.1394,4.1987,4.2271,4.2516,4.2736,4.2891,4.3025,4.3115,4.3225,4.324,4.315,4.312,3.5622,3.5549,3.4866,3.4223,3.3553,3.2882,3.2265,3.176,3.1596,3.1496,3.1496,3.1496,3.1496,3.1496,3.1496,3.1496,3.1496,3.1496,3.1496,3.1496,3.1496,3.1496,3.1525,3.16,3.1772,3.2347,3.3006,3.3799,3.4696,3.528,3.5489,3.5489,3.5489,3.5489,3.5489,3.5489,3.5489,3.5489,3.5489,3.5489,3.5489,3.5489,3.5489,3.5489,3.5489,3.5489,3.5489,3.5489,3.5489,3.5489,3.5489,3.5489,3.5489,3.5489,3.5489,3.5489,3.5489,3.5489,3.5611,3.5814,3.6259,3.6684,3.7249,3.7585,3.8201,3.9196,3.9742,3.9796,3.9633,3.9174,3.8928,3.8906,3.8891,3.8836,3.8837,3.9137,3.9454,4.0877,4.2395,4.2551,4.2449,4.2676,4.3146,4.3139,4.2924,4.3055,4.3374,4.3024,4.1853,4.1412,4.1404,4.0911,4.0289,3.9776,3.9713,3.975,3.9541,3.9675,3.9825,3.9969,4.0178,4.09,4.1613,4.2107,4.2586,4.2785,4.293,4.31,4.324,4.3305,4.3305,4.3305,4.3305,4.324,4.327,3.5622,3.5509,3.4882,3.4217,3.3537,3.2882,3.2189,3.1582,3.1496,3.1496,3.1496,3.1496,3.1496,3.1496,3.1496,3.1496,3.1496,3.1496,3.1496,3.1496,3.1496,3.1496,3.1555,3.1765,3.2101,3.2669,3.3574,3.4465,3.5355,3.5489,3.5489,3.5489,3.5489,3.5489,3.5489,3.5489,3.5489,3.5489,3.5489,3.5489,3.5489,3.5489,3.5489,3.5489,3.5489,3.5489,3.5489,3.5489,3.5489,3.5489,3.5489,3.5489,3.5489,3.5489,3.5489,3.5489,3.5489,3.5489,3.562,3.5831,3.6148,3.6546,3.6814,3.7212,3.8268,3.9156,3.9238,3.9261,3.9176,3.8787,3.9006,3.9054,3.9043,3.9016,3.9258,3.957,4.0089,4.1063,4.2284,4.2977,4.2637,4.2125,4.2355,4.2101,4.2077,4.2769,4.3032,4.226,4.1138,4.0389,4.0283,4.0124,3.9666,3.9454,3.9526,3.9595,3.961,3.9819,4.0178,4.0711,4.1154,4.1817,4.2446,4.2726,4.2945,4.3115,4.327,4.3305,4.3305,4.3305,4.3305,4.3305,4.3305,4.3305,4.3305,3.5549,3.5379,3.4634,3.4074,3.3511,3.2754,3.2146,3.1711,3.1539,3.1496,3.1496,3.1496,3.1496,3.1496,3.1496,3.1496,3.1496,3.1496,3.1496,3.1496,3.1496,3.1496,3.1735,3.2086,3.2542,3.3245,3.4136,3.4779,3.5474,3.5489,3.5489,3.5489,3.5489,3.5489,3.5489,3.5489,3.5489,3.5489,3.5489,3.5489,3.5489,3.5489,3.5489,3.5489,3.5489,3.5489,3.5489,3.5489,3.5489,3.5489,3.5489,3.5489,3.5489,3.5489,3.5489,3.5489,3.5489,3.5489,3.5562,3.575,3.6099,3.6429,3.6631,3.7295,3.8392,3.8808,3.8877,3.8833,3.8735,3.8885,3.9108,3.9199,3.9191,3.9227,3.9555,3.9935,4.0561,4.1089,4.1933,4.2893,4.2505,4.1828,4.169,4.138,4.174,4.2442,4.2189,4.128,4.0518,4.0089,3.9817,3.9764,3.9553,3.9415,3.9397,3.966,3.9819,4.0238,4.0681,4.1433,4.2092,4.2516,4.2865,4.307,4.3285,4.3305,4.3305,4.3305,4.3305,4.3305,4.3305,4.3305,4.3305,4.3305,4.3305,3.5293,3.4688,3.3508,3.3215,3.3362,3.2262,3.1944,3.2244,3.1718,3.1496,3.1496,3.1496,3.1496,3.1496,3.1496,3.1496,3.1496,3.1496,3.1496,3.1496,3.1496,3.1496,3.1817,3.2527,3.32,3.4001,3.4779,3.5265,3.5489,3.5489,3.5489,3.5489,3.5489,3.5489,3.5489,3.5489,3.5489,3.5489,3.5489,3.5489,3.5489,3.5489,3.5489,3.5489,3.5489,3.5489,3.5489,3.5489,3.5489,3.5489,3.5489,3.5489,3.5489,3.5489,3.5489,3.5549,3.5549,3.5639,3.5743,3.6119,3.6538,3.666,3.702,3.7707,3.8511,3.8908,3.8895,3.8806,3.8833,3.9172,3.9367,3.9337,3.9331,3.9331,3.9526,3.9999,4.0561,4.0716,4.1088,4.1666,4.1837,4.1715,4.1941,4.1845,4.1997,4.2324,4.1901,4.1003,3.9981,3.9646,3.9397,3.9397,3.9397,3.9397,3.9412,3.9969,4.0262,4.0681,4.1235,4.2043,4.2656,4.2995,4.3285,4.33,4.3305,4.3305,4.3305,4.3305,4.3305,4.3305,4.3305,4.3305,4.3305,4.3305,4.3305]},{"header":{"parameterUnit":"m.s-1","parameterCategory":1,"la1":31.0,"la2":29.5877,"lo1":-88.7671,"lo2":-86.6584,"dx":0.0162,"dy":0.0185,"nx":115,"ny":88,"refTime":"2023-02-01T06:00:00:Z","depth":0,"parameterNumber":3,"parameterNumberName":"V-component_of_WINDS"},"data":[0.0,0.0,0.0,0.0,0.0,0.0,0.0,0.0,0.0,0.0,0.0,0.0,0.0,0.0,0.0,0.0,0.0,0.0,0.0,0.0,0.0,0.0,0.0,0.0,0.0,0.0,0.0,0.0,0.0,0.0,0.0,0.0,0.0,0.0,0.0,0.0,0.0,0.0,0.0,0.0,0.0,0.0,0.0,0.0,0.0,0.0,0.0,0.0,0.0,0.0,0.0,0.0,0.0,0.0,0.0,0.0,0.0,0.0,0.0,0.0,0.0,0.0,0.0,0.0,0.0,0.0,0.0,0.0,0.0,0.0,0.0,0.0,0.0,0.0,0.0,0.0,0.0,0.0,0.0,0.0,0.0,0.0,0.0,0.0,0.0,0.0,0.0,0.0,0.0,0.0,0.0,0.0,0.0,0.0,0.0,0.0,0.0,0.0,0.0,0.0,0.0,0.0,0.0,0.0,0.0,0.0,0.0,0.0,0.0,0.0,0.0,0.0,0.0,0.0,0.0,0.0,0.0,0.0,0.0,0.0,0.0,0.0,0.0,0.0,0.0,0.0,0.0,0.0,0.0,0.0,0.0,0.0,0.0,0.0,0.0,0.0,0.0,0.0,0.0,0.0,0.0,0.0,0.0,0.0,0.0,0.0,0.0,0.0,0.0,0.0,0.0,0.0,0.0,0.0,0.0,0.0,0.0,0.0,0.0,0.0,0.0,0.0,0.0,0.0,0.0,0.0,0.0,0.0,0.0,0.0,0.0,0.0,0.0,0.0,0.0,0.0,0.0,0.0,0.0,0.0,0.0,0.0,0.0,0.0,0.0,0.0,0.0,0.0,0.0,0.0,0.0,0.0,0.0,0.0,0.0,0.0,0.0,0.0,0.0,0.0,0.0,0.0,0.0,0.0,0.0,0.0,0.0,0.0,0.0,0.0,0.0,0.0,0.0,0.0,0.0,0.0,0.0,0.0,0.0,0.0,0.0,0.0,0.0,0.0,0.0,0.0,0.0,0.0,0.0,0.0,0.0,0.0,0.0,0.0,0.0,0.0,0.0,0.0,0.0,0.0,0.0,0.0,0.0,0.0,0.0,0.0,0.0,0.0,0.0,0.0,0.0,0.0,0.0,0.0,0.0,0.0,0.0,0.0,0.0,0.0,0.0,0.0,0.0,0.0,0.0,0.0,0.0,0.0,0.0,0.0,0.0,0.0,0.0,0.0,0.0,0.0,0.0,0.0,0.0,0.0,0.0,0.0,0.0,0.0,0.0,0.0,0.0,0.0,0.0,0.0,0.0,0.0,0.0,0.0,0.0,0.0,0.0,0.0,0.0,0.0,0.0,0.0,0.0,0.0,0.0,0.0,0.0,0.0,0.0,0.0,0.0,0.0,0.0,0.0,0.0,0.0,0.0,0.0,0.0,0.0,0.0,0.0,0.0,0.0,0.0,0.0,0.0,0.0,0.0,0.0,0.0,0.0,0.0,0.0,0.0,0.0,0.0,0.0,0.0,0.0,0.0,0.0,0.0,0.0,0.0,0.0,0.0,0.0,0.0,0.0,0.0,0.0,0.0,0.0,0.0,0.0,0.0,0.0,0.0,0.0,0.0,0.0,0.0,0.0,0.0,0.0,0.0,0.0,0.0,0.0,0.0,0.0,0.0,0.0,0.0,0.0,0.0,0.0,0.0,0.0,0.0,0.0,0.0,0.0,0.0,0.0,0.0,0.0,0.0,0.0,0.0,0.0,0.0,0.0,0.0,0.0,0.0,0.0,0.0,0.0,0.0,0.0,0.0,0.0,0.0,0.0,0.0,0.0,0.0,0.0,0.0,0.0,0.0,0.0,0.0,0.0,0.0,0.0,0.0,0.0,0.0,0.0,0.0,0.0,0.0,0.0,0.0,0.0,0.0,0.0,0.0,0.0,0.0,0.0,0.0,0.0,0.0,0.0,0.0,0.0,0.0,0.0,0.0,0.0,0.0,0.0,0.0,0.0,0.0,0.0,0.0,0.0,0.0,0.0,0.0,0.0,0.0,0.0,0.0,0.0,0.0,0.0,0.0,0.0,0.0,0.0,0.0,0.0,0.0,0.0,0.0,0.0,0.0,0.0,0.0,0.0,0.0,0.0,0.0,0.0,0.0,0.0,0.0,0.0,0.0,0.0,0.0,0.0,0.0,0.0,0.0,0.0,0.0,0.0,0.0,0.0,0.0,0.0,0.0,0.0,0.0,0.0,0.0,0.0,0.0,0.0,0.0,0.0,0.0,0.0,0.0,0.0,0.0,0.0,0.0,0.0,0.0,0.0,0.0,0.0,0.0,0.0,0.0,0.0,0.0,0.0,0.0,0.0,0.0,0.0,0.0,0.0,0.0,0.0,0.0,0.0,0.0,0.0,0.0,0.0,0.0,0.0,0.0,0.0,0.0,0.0,0.0,0.0,0.0,0.0,0.0,0.0,0.0,0.0,0.0,0.0,0.0,0.0,0.0,0.0,0.0,0.0,0.0,0.0,0.0,0.0,0.0,0.0,0.0,0.0,0.0,0.0,0.0,0.0,0.0,0.0,0.0,0.0,0.0,0.0,0.0,0.0,0.0,0.0,0.0,0.0,0.0,0.0,0.0,0.0,0.0,0.0,0.0,0.0,0.0,0.0,0.0,0.0,0.0,0.0,0.0,0.0,0.0,0.0,0.0,0.0,0.0,0.0,0.0,0.0,0.0,0.0,0.0,0.0,0.0,0.0,0.0,0.0,0.0,0.0,0.0,0.0,0.0,0.0,0.0,0.0,0.0,0.0,0.0,0.0,0.0,0.0,0.0,0.0,0.0,0.0,0.0,0.0,0.0,0.0,0.0,0.0,0.0,0.0,0.0,0.0,0.0,0.0,0.0,0.0,0.0,0.0,0.0,0.0,0.0,0.0,0.0,0.0,0.0,0.0,0.0,0.0,0.0,0.0,0.0,0.0,0.0,0.0,0.0,0.0,0.0,0.0,0.0,0.0,0.0,0.0,0.0,0.0,0.0,0.0,0.0,0.0,0.0,0.0,0.0,0.0,0.0,0.0,0.0,0.0,0.0,0.0,0.0,0.0,0.0,0.0,0.0,0.0,0.0,0.0,0.0,0.0,0.0,0.0,0.0,0.0,0.0,0.0,0.0,0.0,0.0,0.0,0.0,0.0,0.0,0.0,0.0,0.0,0.0,0.0,0.0,0.0,0.0,0.0,0.0,0.0,0.0,0.0,0.0,0.0,0.0,0.0,0.0,0.0,0.0,0.0,0.0,0.0,0.0,0.0,0.0,0.0,0.0,0.0,0.0,0.0,0.0,0.0,0.0,0.0,0.0,0.0,0.0,0.0,0.0,0.0,0.0,0.0,0.0,0.0,0.0,0.0,0.0,0.0,0.0,0.0,0.0,0.0,0.0,0.0,0.0,0.0,0.0,0.0,0.0,0.0,0.0,0.0,0.0,0.0,0.0,0.0,0.0,0.0,0.0,0.0,0.0,0.0,0.0,0.0,0.0,0.0,0.0,0.0,0.0,0.0,0.0,0.0,0.0,0.0,0.0,0.0,0.0,0.0,0.0,0.0,0.0,0.0,0.0,0.0,0.0,0.0,0.0,0.0,0.0,0.0,0.0,0.0,0.0,0.0,0.0,0.0,0.0,0.0,0.0,0.0,0.0,0.0,0.0,0.0,0.0,0.0,0.0,0.0,0.0,0.0,0.0,0.0,0.0,0.0,0.0,0.0,0.0,0.0,0.0,0.0,0.0,0.0,0.0,0.0,0.0,0.0,0.0,0.0,0.0,0.0,0.0,0.0,0.0,0.0,0.0,0.0,0.0,0.0,0.0,0.0,0.0,0.0,0.0,0.0,0.0,0.0,0.0,0.0,0.0,0.0,0.0,0.0,0.0,0.0,0.0,0.0,0.0,0.0,0.0,0.0,0.0,0.0,0.0,0.0,0.0,0.0,0.0,0.0,0.0,0.0,0.0,0.0,0.0,0.0,0.0,0.0,0.0,0.0,0.0,0.0,0.0,0.0,0.0,0.0,0.0,0.0,0.0,0.0,0.0,0.0,0.0,0.0,0.0,0.0,0.0,0.0,0.0,0.0,0.0,0.0,0.0,0.0,0.0,0.0,0.0,0.0,0.0,0.0,0.0,0.0,0.0,0.0,0.0,0.0,0.0,0.0,0.0,0.0,0.0,0.0,0.0,0.0,0.0,0.0,0.0,0.0,0.0,0.0,0.0,0.0,0.0,0.0,0.0,0.0,0.0,0.0,0.0,0.0,0.0,0.0,0.6616,0.0,0.0,0.0,0.0,0.0,0.0,0.0,0.0,0.0,0.0,0.0,0.0,0.0,0.0,0.0,0.0,0.0,0.0,0.0,0.0,0.0,0.0,0.0,0.0,0.0,0.0,0.0,0.0,0.0,0.0,0.0,0.0,0.0,0.0,0.0,0.0,0.0,0.0,0.0,0.0,0.0,0.0,0.0,0.0,0.0,0.0,0.0,0.0,0.0,0.0,0.0,0.0,0.0,0.0,0.0,0.0,0.0,0.0,0.0,0.0,0.0,0.0,0.0,0.0,0.0,0.0,0.0,0.0,0.0,0.0,0.0,0.0,0.0,0.0,0.0,0.0,0.0,0.0,0.0,0.0,0.0,0.0,0.0,0.0,0.0,0.0,0.0,0.0,0.0,0.0,0.0,0.0,0.0,0.0,0.0,0.0,0.0,0.0,0.0,0.0,0.0,0.0,0.0,0.0,0.0,0.0,0.0,0.0,0.0,0.0,0.6449,0.6319,0.6772,0.695,0.6829,0.0,0.0,0.0,0.0,0.0,0.0,0.0,0.0,0.0,0.0,0.0,0.0,0.0,0.0,0.0,0.0,0.0,0.0,0.0,0.0,0.0,0.0,0.0,0.0,0.0,0.0,0.0,0.0,0.0,0.0,0.0,0.0,0.0,0.0,0.0,0.0,0.0,0.0,0.0,0.0,0.0,0.0,0.0,0.0,0.0,0.0,0.0,0.0,0.0,0.0,0.0,0.0,0.0,0.0,0.0,0.0,0.0,0.0,0.0,0.0,0.0,0.0,0.0,0.0,0.0,0.0,0.0,0.0,0.0,0.0,0.0,0.0,0.0,0.0,0.0,0.0,0.0,0.0,0.0,0.0,0.0,0.0,0.0,0.0,0.0,0.0,0.0,0.0,0.0,0.0,0.0,0.0,0.0,0.0,0.0,0.0,0.0,0.0,0.0,0.0,0.0,0.0,0.0,0.0,0.0,0.0,0.0,0.0,0.0,0.0,0.0,0.0,0.6988,0.6988,0.6988,0.0,0.0,0.0,0.0,0.0,0.0,0.0,0.0,0.0,0.0,0.0,0.0,0.0,0.0,0.0,0.0,0.0,0.0,0.0,0.0,0.0,0.0,0.0,0.0,0.0,0.0,0.0,0.0,0.0,0.0,0.0,0.0,0.0,0.0,0.0,0.0,0.0,0.0,0.0,0.0,0.0,0.0,0.0,0.0,0.0,0.0,0.0,0.0,0.0,0.0,0.0,0.0,0.0,0.0,0.0,0.0,0.0,0.0,0.0,0.0,0.0,0.0,0.0,0.0,0.0,0.0,0.0,0.0,0.0,0.0,0.0,0.0,0.0,0.0,0.0,0.0,0.0,0.0,0.0,0.0,0.0,0.0,0.0,0.0,0.0,0.0,0.0,0.0,0.0,0.0,0.0,0.0,0.0,0.0,0.0,0.0,0.0,0.0,0.0,0.0,0.0,0.0,0.0,0.0,0.0,0.0,0.0,0.0,0.0,0.0,0.6988,0.6988,0.6988,0.0,0.6988,0.0,0.0,0.0,0.0,0.0,0.0,0.0,0.0,0.0,0.0,0.0,0.0,0.0,0.0,0.0,0.0,0.0,0.0,0.0,0.0,0.0,0.0,0.0,0.0,0.0,0.0,0.0,0.0,0.0,0.0,0.0,0.0,0.0,0.0,0.0,0.0,0.0,0.0,0.0,0.0,0.0,0.0,0.0,0.0,0.0,0.0,0.0,0.0,0.0,0.0,0.0,0.0,0.0,0.0,0.0,0.0,0.0,0.0,0.0,0.0,0.0,0.0,0.0,0.0,0.0,0.0,0.0,0.0,0.0,0.0,0.0,0.0,0.0,0.0,0.0,0.0,0.0,0.0,0.0,0.0,0.0,0.0,0.0,0.0,0.0,0.0,0.0,0.0,0.0,0.0,0.0,0.0,0.0,0.0,0.0,0.0,0.0,0.0,0.0,0.0,0.0,0.0,0.0,0.0,0.0,0.0,0.0,0.0,0.0,0.0,0.6988,0.6988,0.6988,0.6988,0.0,0.0,0.0,0.0,0.0,0.0,0.0,0.0,0.0,0.0,0.0,0.0,0.0,0.0,0.0,0.0,0.0,0.0,0.0,0.0,0.0,0.0,0.0,0.0,0.0,0.0,0.0,0.0,0.0,0.0,0.0,0.0,0.0,0.0,0.0,0.0,0.0,0.0,0.0,0.0,0.0,0.0,0.0,0.0,0.0,0.0,0.0,0.0,0.0,0.0,0.0,0.0,0.0,0.0,0.0,0.0,0.0,0.0,0.0,0.0,0.0,0.0,0.0,0.0,0.0,0.0,0.0,0.0,0.0,0.0,0.0,0.0,0.0,0.0,0.0,0.0,0.0,0.0,0.0,0.0,0.0,0.0,0.0,0.0,0.0,0.0,0.0,0.0,0.0,0.0,0.0,0.0,0.0,0.0,0.0,0.0,0.0,0.0,0.0,0.0,0.0,0.0,0.0,0.0,0.0,0.0,0.0,0.0,0.0,0.0,0.6988,0.6988,0.6988,0.6988,0.6988,0.6988,0.0,0.0,0.0,0.0,0.0,0.0,0.0,0.0,0.0,0.0,0.0,0.0,0.0,0.0,0.0,0.0,0.0,0.0,0.0,0.0,0.0,0.0,0.0,0.0,0.0,0.0,0.0,0.0,0.0,0.0,0.0,0.0,0.0,0.0,0.0,0.0,0.0,0.0,0.0,0.0,0.0,0.0,0.0,0.0,0.0,0.0,0.0,0.0,0.0,0.0,0.0,0.0,0.0,0.0,0.0,0.0,0.0,0.0,0.0,0.0,0.0,0.0,0.0,0.0,0.0,0.0,0.0,0.0,0.0,0.0,0.0,0.0,0.0,0.0,0.0,0.0,0.0,0.0,0.0,0.0,0.0,0.0,0.0,0.0,0.0,0.0,0.0,0.0,0.0,0.0,0.0,0.0,0.0,0.0,0.0,0.0,0.0,0.0,0.0,0.0,0.0,0.0,0.0,0.0,0.0,0.0,0.0,0.0,0.6988,0.6988,0.6988,0.6988,0.6988,0.6988,0.0,0.0,0.0,0.0,0.0,0.0,0.0,0.0,0.0,0.0,0.0,0.0,0.0,0.0,0.0,0.0,0.0,0.0,0.0,0.0,0.0,0.0,0.0,0.0,0.0,0.0,0.0,0.0,0.0,0.0,0.0,0.0,0.0,0.0,0.0,0.0,0.0,0.0,0.0,0.0,0.0,0.0,0.0,0.0,0.0,0.0,0.0,0.0,0.0,0.0,0.0,0.0,0.0,0.0,0.0,0.0,0.0,0.0,0.0,0.0,0.0,0.0,0.0,0.0,0.0,0.0,0.0,0.0,0.0,0.0,0.0,0.0,0.0,0.0,0.0,0.0,0.0,0.0,0.0,0.0,0.0,0.0,0.0,0.0,0.0,0.0,0.0,0.0,0.0,0.0,0.0,0.0,0.0,0.0,0.0,0.0,0.0,0.0,0.0,0.0,0.0,0.0,0.0,0.0,0.0,0.0,0.0,0.0,0.0,0.6973,0.6988,0.6988,0.6988,0.6988,0.6988,0.0,0.0,0.0,0.0,0.0,0.0,0.0,0.0,0.0,0.0,0.0,0.0,0.0,0.0,0.0,0.0,0.0,0.0,0.0,0.0,0.0,0.0,0.0,0.0,0.0,0.0,0.0,0.0,0.0,0.0,0.0,0.0,0.0,0.0,0.0,0.0,0.0,0.0,0.0,0.0,0.0,0.0,0.0,0.0,0.0,0.0,0.0,0.0,0.0,0.0,0.0,0.0,0.0,0.0,0.0,0.0,0.0,0.0,0.0,0.0,0.0,0.0,0.0,0.0,0.0,0.0,0.0,0.0,0.0,0.0,0.0,0.0,0.0,0.0,0.0,0.0,0.0,0.0,0.0,0.0,0.0,0.0,0.0,0.0,0.0,0.0,0.0,0.0,0.0,0.0,0.0,0.0,0.0,0.0,0.0,0.0,0.0,0.0,0.0,0.0,0.0,0.0,0.0,0.0,0.0,0.0,0.0,0.0,0.0,0.6967,0.0,0.6988,0.6988,0.6988,0.6988,0.0,0.0,0.0,0.0,0.0,0.0,0.0,0.0,0.0,0.0,0.0,0.0,0.0,0.0,0.0,0.0,0.0,0.0,0.0,0.0,0.0,0.0,0.0,0.0,0.0,0.0,0.0,0.0,0.0,0.0,0.0,0.0,0.0,0.0,0.0,0.0,0.0,0.0,0.0,0.0,0.0,0.0,0.0,0.0,0.0,0.0,0.0,0.0,0.0,0.0,0.0,0.0,0.0,0.0,0.0,0.0,0.0,0.0,0.0,0.0,0.0,0.0,0.0,0.0,0.0,0.0,0.0,0.0,0.0,0.0,0.0,0.0,0.0,0.0,0.0,0.0,0.0,0.0,0.0,0.0,0.0,0.0,0.0,0.0,0.0,0.0,0.0,0.0,0.0,0.0,0.0,0.0,0.0,0.0,0.0,0.0,0.0,0.0,0.0,0.0,0.0,0.0,0.0,0.0,0.0,0.0,0.0,0.0,0.6984,0.6988,0.6988,0.6988,0.6988,0.6988,0.6988,0.0,0.0,0.0,0.0,0.0,0.0,0.0,0.0,0.0,0.0,0.0,0.0,0.0,0.0,0.0,0.0,0.0,0.0,0.0,0.0,0.0,0.0,0.0,0.0,0.0,0.0,0.0,0.0,0.0,0.0,0.0,0.0,0.0,0.0,0.0,0.0,0.0,0.0,0.0,0.0,0.0,0.0,0.0,0.0,0.0,0.0,0.0,0.0,0.0,0.0,0.0,0.0,0.0,0.0,0.0,0.0,0.0,0.0,0.0,0.0,0.0,0.0,0.0,0.0,0.0,0.0,0.0,0.0,0.0,0.0,0.0,0.0,0.0,0.0,0.0,0.0,0.0,0.0,0.0,0.0,0.0,0.0,0.0,0.0,0.0,0.0,0.0,0.0,0.0,0.0,0.0,0.0,0.0,0.0,0.0,0.0,0.0,0.0,0.0,0.0,0.0,0.0,0.0,0.0,0.0,0.0,0.0,0.0,0.0,0.6988,0.6988,0.6988,0.6988,0.6988,0.6988,0.0,0.0,0.0,0.0,0.0,0.0,0.0,0.0,0.0,0.0,0.0,0.0,0.0,0.0,0.0,0.0,0.0,0.0,0.0,0.0,0.0,0.0,0.0,0.0,0.0,0.0,0.0,0.0,0.0,0.0,0.0,0.0,0.0,0.0,0.0,0.0,0.0,0.0,0.0,0.0,0.0,0.0,0.0,0.0,0.0,0.0,0.0,0.0,0.0,0.0,0.0,0.0,0.0,0.0,0.0,0.0,0.0,0.0,0.0,0.0,0.0,0.0,0.0,0.0,0.0,0.0,0.0,0.0,0.0,0.0,0.0,0.0,0.0,0.0,0.0,0.0,0.0,0.0,0.0,0.0,0.0,0.0,0.0,0.0,0.0,0.0,0.0,0.0,0.0,0.0,0.0,0.0,0.0,0.0,0.0,0.0,0.0,0.0,0.0,0.0,0.0,0.0,0.0,0.0,0.0,0.0,0.0,0.0,0.0,0.6988,0.6988,0.6988,0.6988,0.6988,0.6988,0.6988,0.0,0.0,0.0,0.0,0.0,0.0,0.0,0.0,0.0,0.0,0.0,0.0,0.0,0.0,0.0,0.0,0.0,0.0,0.0,0.0,0.0,0.0,0.0,0.0,0.0,0.0,0.0,0.0,0.0,0.0,0.0,0.0,0.0,0.0,0.0,0.0,0.0,0.0,0.0,0.0,0.0,0.0,0.0,0.0,0.0,0.0,0.0,0.0,0.0,0.0,0.0,0.0,0.0,0.0,0.0,0.0,0.0,0.0,0.0,0.0,0.0,0.0,0.0,0.0,0.0,0.0,0.0,0.0,0.0,0.0,0.0,0.0,0.0,0.0,0.0,0.0,0.0,0.0,0.0,0.0,0.0,0.0,0.0,0.0,0.0,0.0,0.0,0.0,0.0,0.0,0.0,0.0,0.0,0.0,0.0,0.0,0.0,0.0,0.0,0.0,0.0,0.0,0.0,0.0,0.0,0.0,0.0,0.0,0.7037,0.7034,0.7034,0.6988,0.7067,0.7051,0.0,0.0,0.0,0.0,0.0,0.0,0.0,0.0,0.0,0.0,0.0,0.0,0.0,0.0,0.0,0.0,0.0,0.0,0.0,0.0,0.0,0.0,0.0,0.0,0.0,0.0,0.0,0.0,0.0,0.0,0.0,0.0,0.0,0.0,0.0,0.0,0.0,0.0,0.0,0.0,0.0,0.0,0.0,0.0,0.0,0.0,0.0,0.0,0.0,0.0,0.0,0.0,0.0,0.0,0.0,0.0,0.0,0.0,0.0,0.0,0.0,0.0,0.0,0.0,0.0,0.0,0.0,0.0,0.0,0.0,0.0,0.0,0.0,0.0,0.0,0.0,0.0,0.0,0.0,0.0,0.0,0.0,0.0,0.0,0.0,0.0,0.0,0.0,0.0,0.0,0.0,0.0,0.0,0.0,0.0,0.0,0.0,0.0,0.0,0.0,0.0,0.0,0.0,0.0,0.0,0.0,0.0,0.0,0.0,0.7366,0.7575,0.7453,0.7042,0.7715,0.7879,0.0,0.0,0.0,0.0,0.0,0.0,0.0,0.0,0.0,0.0,0.0,0.0,0.0,0.0,0.0,0.0,0.0,0.0,0.0,0.0,0.0,0.0,0.0,0.0,0.0,0.0,0.0,0.0,0.0,0.0,0.0,0.0,0.0,0.0,0.0,0.0,0.0,0.0,0.0,0.0,0.0,0.0,0.0,0.0,0.0,0.0,0.0,0.0,0.0,0.0,0.0,0.0,0.0,0.0,0.0,0.0,0.0,0.0,0.0,0.0,0.0,0.0,0.0,0.0,0.0,0.0,0.0,0.0,0.0,0.0,0.0,0.0,0.0,0.0,0.0,0.0,0.0,0.0,0.0,0.0,0.0,0.0,0.0,0.0,0.0,0.0,0.0,0.0,0.0,0.0,0.0,0.0,0.0,0.0,0.0,0.0,0.0,0.0,0.0,0.0,0.0,0.0,0.0,0.0,0.0,0.0,0.0,0.0,0.7668,0.7674,0.7818,0.7722,0.7382,0.7949,0.8215,0.0,0.0,0.0,0.0,0.0,0.0,0.0,0.0,0.0,0.0,0.0,0.0,0.0,0.0,0.0,0.0,0.0,0.0,0.0,0.0,0.0,0.0,0.0,0.0,0.0,0.0,0.0,0.0,0.0,0.0,0.0,0.0,0.0,0.0,0.0,0.0,0.0,0.0,0.0,0.0,0.0,0.0,0.0,0.0,0.0,0.0,0.0,0.0,0.0,0.0,0.0,0.0,0.0,0.0,0.0,0.0,0.0,0.0,0.0,0.0,0.0,0.0,0.0,0.0,0.0,0.0,0.0,0.0,0.0,0.0,0.0,0.0,0.0,0.0,0.0,0.0,0.0,0.0,0.0,0.0,0.0,0.0,0.0,0.0,0.0,0.0,0.0,0.0,0.0,0.0,0.0,0.0,0.0,0.0,0.0,0.0,0.0,0.0,0.0,0.0,0.0,0.0,0.0,0.0,0.0,0.0,0.0,0.0,0.7958,0.7953,0.7985,0.7987,0.7993,0.8037,0.8337,0.0,0.0,0.0,0.0,0.0,0.0,0.0,0.0,0.0,0.0,0.0,0.0,0.0,0.0,0.0,0.0,0.0,0.0,0.0,0.0,0.0,0.0,0.0,0.0,0.0,0.0,0.0,0.0,0.0,0.0,0.0,0.0,0.0,0.0,0.0,0.0,0.0,0.0,0.0,0.0,0.0,0.0,0.0,0.0,0.0,0.0,0.0,0.0,0.0,0.0,0.0,0.0,0.0,0.0,0.0,0.0,0.0,0.0,0.0,0.0,0.0,0.0,0.0,0.0,0.0,0.0,0.0,0.0,0.0,0.0,0.0,0.0,0.0,0.0,0.0,0.0,0.0,0.0,0.0,0.0,0.0,0.0,0.0,0.0,0.0,0.0,0.0,0.0,0.0,0.0,0.0,0.0,0.0,0.0,0.0,0.0,0.0,0.0,0.0,0.0,0.0,0.0,0.0,0.0,0.0,0.0,0.0,0.0,0.8289,0.8283,0.8504,0.8618,0.8611,0.892,0.9146,0.0,0.0,0.0,0.0,0.0,0.0,0.0,0.0,0.0,0.0,0.0,0.0,0.0,0.0,0.0,0.0,0.0,0.0,0.0,0.0,0.0,0.0,0.0,0.0,0.0,0.0,0.0,0.0,0.0,0.0,0.0,0.0,0.0,0.0,0.0,0.0,0.0,0.0,0.0,0.0,0.0,0.0,0.0,0.0,0.0,0.0,0.0,0.0,0.8785,0.0,0.0,0.0,0.0,0.0,0.0,0.0,0.0,0.0,0.0,0.0,0.0,0.0,0.0,0.0,0.0,0.0,0.0,0.0,0.0,0.0,0.0,0.0,0.0,0.0,0.0,0.0,0.0,0.0,0.0,0.0,0.0,0.0,0.0,0.0,0.0,0.0,0.0,0.0,0.0,0.0,0.0,0.0,0.0,0.0,0.0,0.0,0.0,0.0,0.0,0.0,0.0,0.0,0.0,0.0,0.0,0.0,0.0,0.0,0.859,0.8577,0.8711,0.8785,0.8798,0.9012,0.9258,0.0,0.0,0.0,0.0,0.0,0.0,0.0,0.0,0.0,0.0,0.0,0.0,0.0,0.0,0.0,0.0,0.0,0.0,0.0,0.0,0.0,0.0,0.0,0.0,0.0,0.0,0.0,0.0,0.0,0.0,0.0,0.0,0.0,0.0,0.0,0.0,0.0,0.0,0.0,0.0,0.0,0.0,0.0,0.0,0.0,0.0,0.0,0.0,0.0,0.0,0.0,0.0,0.0,0.0,0.0,0.0,0.0,0.0,0.0,0.0,0.0,0.0,0.0,0.0,0.0,0.0,0.0,0.0,0.0,0.0,0.0,0.0,0.0,0.0,0.0,0.0,0.0,0.0,0.0,0.0,0.0,0.0,0.0,0.0,0.0,0.0,0.0,0.0,0.0,0.0,0.0,0.0,0.0,0.0,0.0,0.0,0.0,0.0,0.0,0.0,0.0,0.0,0.0,0.0,0.0,0.0,0.0,0.8677,0.8785,0.8785,0.8785,0.8785,0.8785,0.8785,0.9106,0.9768,0.0,0.0,0.0,0.0,0.0,0.0,0.0,0.0,0.0,0.0,0.0,0.0,0.0,0.0,0.0,0.0,0.0,0.0,0.0,0.0,0.0,0.0,0.0,0.0,0.0,0.0,0.0,0.0,0.0,0.0,0.0,0.0,0.0,0.0,0.0,0.0,0.0,0.0,0.5574,0.6752,0.0,0.0,0.0,0.0,0.0,0.0,0.0,0.0,0.8785,0.0,0.0,0.0,0.0,0.0,0.0,0.0,0.0,0.0,0.0,0.0,0.0,0.0,0.0,0.0,0.0,0.0,0.0,0.0,0.0,0.0,0.0,0.0,0.0,0.0,0.0,0.0,0.0,0.0,0.0,0.0,0.0,0.0,0.0,0.0,0.0,0.0,0.0,0.0,0.0,0.0,0.0,0.0,0.0,0.0,0.0,0.0,0.0,0.0,0.0,0.0,0.0,0.0,0.0,0.0,0.0,0.8738,0.8778,0.8785,0.8785,0.8785,0.8785,0.8785,0.8785,0.9113,0.9775,0.0,0.0,0.0,0.0,0.0,0.0,0.0,0.0,0.0,0.0,0.0,0.0,0.0,0.0,0.0,0.0,0.0,0.0,0.0,0.0,0.0,0.0,0.0,0.0,0.0,0.0,0.0,0.0,0.0,0.0,0.0,0.0,0.0,0.0,0.0,0.0,0.0,0.0,0.0,0.6631,0.7269,0.0,0.0,0.0,0.0,0.0,0.0,0.0,0.0,0.8785,0.0,0.0,0.0,0.0,0.0,0.0,0.0,0.0,0.0,0.0,0.0,0.0,0.0,0.0,0.0,0.0,0.0,0.0,0.0,0.0,0.0,0.0,0.0,0.0,0.0,0.0,0.0,0.0,0.0,0.0,0.0,0.0,0.0,0.0,0.0,0.0,0.0,0.0,0.0,0.0,0.0,0.0,0.0,0.0,0.0,0.0,0.0,0.0,0.0,0.0,0.0,0.0,0.0,0.0,0.0,0.8785,0.8785,0.8785,0.8785,0.8785,0.8785,0.8785,0.8785,0.9106,0.0,0.0,0.0,0.0,0.0,0.0,0.0,0.0,0.0,0.0,0.0,0.0,0.0,0.0,0.0,0.0,0.0,0.0,0.0,0.0,0.0,0.0,0.0,0.0,0.0,0.0,0.0,0.0,0.0,0.0,0.0,0.0,0.0,0.0,0.0,0.0,0.0,0.0,0.0,0.0,0.6588,0.7147,0.8593,0.0,0.0,0.0,0.0,0.0,0.0,0.8785,0.8785,0.0,0.0,0.0,0.0,0.0,0.0,0.0,0.0,0.0,0.0,0.0,0.0,0.0,0.0,0.0,0.0,0.0,0.0,0.0,0.0,0.0,0.0,0.0,0.0,0.0,0.0,0.0,0.0,0.0,0.0,0.0,0.0,0.0,0.0,0.0,0.0,0.0,0.0,0.0,0.0,0.0,0.0,0.0,0.0,0.0,0.0,0.0,0.0,0.0,0.0,0.0,0.0,0.0,0.0,0.0,0.8785,0.8785,0.8785,0.8785,0.8785,0.8785,0.8785,0.8785,0.9172,0.0,0.0,0.0,0.0,0.0,0.0,0.0,0.0,0.0,0.0,0.0,0.0,0.0,0.0,0.0,0.0,0.0,0.0,0.0,0.0,0.0,0.0,0.0,0.0,0.0,0.0,0.0,0.0,0.0,0.0,0.0,0.0,0.0,0.0,0.0,0.0,0.0,0.0,0.0,0.0,0.0,0.7121,0.86,0.8785,0.0,0.0,0.0,0.0,0.8785,0.8785,0.0,0.0,0.0,0.0,0.0,0.0,0.0,0.0,0.0,0.0,0.0,0.0,0.0,0.0,0.0,0.0,0.0,0.0,0.0,0.0,0.0,0.0,0.0,0.0,0.0,0.0,0.0,0.0,0.0,0.0,0.0,0.0,0.0,0.0,0.0,0.0,0.0,0.0,0.0,0.0,0.0,0.0,0.0,0.0,0.0,0.0,0.0,0.0,0.0,0.0,0.0,0.0,0.0,0.0,0.0,0.0,0.8785,0.8785,0.8785,0.8785,0.8785,0.8785,0.8785,0.8785,0.94,0.0,0.0,0.0,0.0,0.0,0.0,0.0,0.0,0.0,0.0,0.0,0.0,0.0,0.0,0.0,0.0,0.0,0.0,0.0,0.0,0.0,0.0,0.0,0.0,0.0,0.0,0.0,0.0,0.0,0.0,0.0,0.0,0.0,0.0,0.0,0.0,0.0,0.0,0.0,0.0,0.0,0.7148,0.86,0.8785,0.8785,0.0,0.0,0.8791,0.8785,0.8785,0.0,0.0,0.0,0.0,0.0,0.0,0.0,0.0,0.0,0.0,0.0,0.0,0.0,0.0,0.0,0.0,0.0,0.0,0.0,0.0,0.0,0.0,0.0,0.0,0.0,0.0,0.0,0.0,0.0,0.0,0.0,0.0,0.0,0.0,0.0,0.0,0.0,0.0,0.0,0.0,0.0,0.0,0.0,0.0,0.0,0.0,0.0,0.0,0.0,0.0,0.0,0.0,0.0,0.0,0.0,0.9361,0.9348,0.9002,0.8785,0.8785,0.8785,0.8785,0.8785,0.8785,0.9257,0.0,0.0,0.0,0.0,0.0,0.0,0.0,0.0,0.0,0.0,0.0,0.0,0.0,0.0,0.0,0.0,0.0,0.0,0.0,0.0,0.0,0.0,0.0,0.0,0.0,0.0,0.0,0.0,0.0,0.0,0.0,0.0,0.0,0.0,0.0,0.0,0.0,0.0,0.0,0.0,0.0,0.0,0.8646,0.8938,0.0,0.0,0.0,0.9305,0.9306,0.0,0.0,0.0,0.0,0.0,0.0,0.0,0.0,0.0,0.0,0.0,0.0,0.0,0.0,0.0,0.0,0.0,0.0,0.0,0.0,0.0,0.0,0.0,0.0,0.0,0.0,0.0,0.0,0.0,0.0,0.0,0.0,0.0,0.0,0.0,0.0,0.0,0.0,0.0,0.0,0.0,0.0,0.0,0.0,0.0,0.0,0.0,0.0,0.0,0.0,0.0,0.0,0.0,0.0,0.0,0.0,0.0,0.9542,0.9054,0.8785,0.8791,0.8956,0.9061,0.9048,0.9211,0.0,0.0,0.0,0.0,0.0,0.0,0.0,0.0,0.0,0.0,0.0,0.0,0.0,0.0,0.0,0.0,0.0,0.0,0.0,0.0,0.0,0.0,0.0,0.0,0.0,0.0,0.0,0.858,0.0,0.0,0.0,0.0,0.0,0.0,0.0,0.0,0.0,0.0,0.0,0.0,0.0,0.0,0.7988,0.8778,0.9084,0.9217,0.0,0.0,0.9701,0.9701,0.9701,0.9701,0.0,0.0,0.0,0.0,0.0,0.0,0.0,0.0,0.0,0.0,0.0,0.0,0.0,0.0,0.0,0.0,0.0,0.0,0.0,0.0,0.0,0.0,0.0,0.0,0.0,0.0,0.0,0.0,0.0,0.0,0.0,0.0,0.0,0.0,0.0,0.0,0.0,0.0,0.0,0.0,0.0,0.0,0.0,0.0,0.0,0.0,0.0,0.0,0.0,0.0,0.0,0.0,0.0,0.0,0.9504,0.889,0.8824,0.8785,0.8811,0.9407,0.9736,0.9756,1.0333,1.0946,0.0,0.0,0.0,0.0,0.0,0.0,0.0,0.0,0.0,0.0,0.0,0.0,0.0,0.0,0.0,0.0,0.0,0.0,0.0,0.0,0.0,0.0,0.0,0.0,0.0,0.0,0.0,0.0,0.0,0.0,0.0,0.0,0.0,0.0,0.0,0.0,0.0,0.0,0.0,0.0,0.0,0.806,0.9048,0.9184,0.9318,0.0,0.9687,0.9701,0.9707,0.9707,0.9701,0.9707,0.0,0.0,0.0,0.0,0.0,0.0,0.0,0.0,0.0,0.0,0.0,0.0,0.0,0.0,0.0,0.0,0.0,0.0,0.0,0.0,0.0,0.0,0.0,0.0,0.0,0.0,0.0,0.0,0.0,0.0,0.0,0.0,0.0,0.0,0.0,0.0,0.0,0.0,0.0,0.0,0.0,0.0,0.0,0.0,0.0,0.0,0.0,0.0,0.0,0.0,0.0,0.0,0.0,0.9878,1.0012,0.9231,0.8785,0.8811,0.9054,0.9192,0.9171,0.9426,0.9877,0.0,0.0,0.0,0.0,0.0,0.0,0.0,0.0,0.0,0.0,0.0,0.0,0.0,0.0,0.0,0.0,0.0,0.0,0.0,0.0,0.0,0.0,0.0,0.0,0.0,0.0,0.0,0.0,0.8527,0.8613,0.8169,0.0,0.0,0.0,0.0,0.0,0.0,0.0,0.0,0.0,0.0,0.9083,0.9456,0.9644,0.0,0.0,1.0122,1.0251,1.0243,1.0258,1.0251,1.0243,1.0352,0.0,0.0,0.0,0.0,0.0,0.0,0.0,0.0,0.0,0.0,0.0,0.0,0.0,0.0,0.0,0.0,0.0,0.0,0.0,0.0,0.0,0.0,0.0,0.0,0.0,0.0,0.0,0.0,0.0,0.0,0.0,0.0,0.0,0.0,0.0,0.0,0.0,0.0,0.0,0.0,0.0,0.0,0.0,0.0,0.0,0.0,0.0,0.0,0.0,0.0,0.0,0.0,1.0536,1.0794,0.9671,0.9094,0.9113,0.91,0.9198,0.9387,0.9601,1.002,0.0,0.0,0.0,0.0,0.0,0.0,0.0,0.0,0.0,0.0,0.0,0.0,0.0,0.0,0.0,0.0,0.0,0.0,0.0,0.0,0.0,0.0,0.0,0.0,0.0,0.0,0.0,0.0,0.8487,0.8606,0.8083,0.0,0.0,0.0,0.0,0.0,0.0,0.0,0.0,0.0,0.0,0.9727,0.98,0.9979,1.0132,1.0234,1.0443,1.0586,1.0586,1.0586,1.0586,1.0586,0.0,0.0,0.0,0.0,0.0,0.0,0.0,0.0,0.0,0.0,0.0,0.0,0.0,0.0,0.0,0.0,0.0,0.0,0.0,0.0,0.0,0.0,0.0,0.0,0.0,0.0,0.0,0.0,0.0,0.0,1.0828,0.0,0.0,0.0,0.0,0.0,0.0,0.0,0.0,0.0,0.0,0.0,0.0,0.0,0.0,0.0,0.0,0.0,0.0,0.0,0.0,0.0,0.0,1.1404,1.0813,1.0091,0.9743,0.9743,0.9782,1.0057,1.0695,1.1379,1.2058,1.2737,0.0,0.0,0.0,0.0,0.0,0.0,0.0,0.0,0.0,0.0,0.0,0.0,0.0,0.0,0.0,0.0,0.0,0.0,0.0,0.0,0.0,0.0,0.0,0.0,0.0,0.0,0.8758,0.8785,0.8804,0.0,0.0,0.0,0.0,0.0,0.0,0.0,0.0,0.0,0.0,0.9679,0.98,1.0059,1.0106,1.0227,1.0531,1.0593,1.0593,1.0613,1.0606,1.0586,0.0,0.0,0.0,0.0,0.0,0.0,0.0,0.0,0.0,0.0,0.0,0.0,0.0,0.0,0.0,0.0,0.0,0.0,0.0,0.0,0.0,0.0,0.0,0.0,0.0,0.0,0.0,1.146,1.1479,0.0,0.0,0.0,0.0,0.0,0.0,0.0,0.0,0.0,0.0,0.0,0.9146,0.914,0.0,0.0,0.0,0.0,0.0,0.0,0.0,0.0,0.0,0.0,0.0,0.0,1.0587,1.0739,0.9697,0.9133,0.9153,0.9575,0.9897,1.0141,1.0796,1.1463,1.215,0.0,0.0,0.0,0.0,0.0,0.0,0.0,0.0,0.0,0.0,0.0,0.0,0.0,0.0,0.0,0.0,0.0,0.0,0.0,0.0,0.0,0.0,0.0,0.0,0.0,0.8785,0.0,0.0,0.0,0.0,0.0,0.0,0.0,0.0,0.0,0.0,0.0,0.9845,0.996,1.0163,1.0324,1.0416,1.0445,1.0538,0.0,0.0,0.0,0.0,0.0,0.0,0.0,0.0,0.0,0.0,0.0,0.0,0.0,0.0,1.231,1.2884,1.3667,1.4178,1.3907,0.0,0.0,0.0,0.0,0.0,0.0,0.0,0.0,0.0,0.0,0.0,0.0,0.0,0.0,1.2187,0.0,1.2187,0.0,0.0,0.0,0.0,0.0,0.0,0.0,0.0,1.0599,1.0075,0.8824,0.9041,0.9028,0.0,0.9035,0.9601,0.0,0.0,0.0,0.0,0.0,0.0,0.0,0.0,1.0847,1.144,1.0186,0.9601,0.9833,1.0045,1.0269,1.0504,1.1302,1.1951,1.2373,1.2255,1.2531,0.0,0.0,0.0,0.0,0.0,0.0,0.0,0.0,0.0,0.0,0.0,0.0,0.0,0.0,0.0,0.0,0.0,0.0,0.0,0.0,0.0,0.0,0.0,0.9125,0.0,0.0,0.0,0.0,0.0,0.0,0.0,0.0,0.0,0.984,0.9993,1.0138,1.0261,1.0457,1.0633,1.0727,0.0,0.0,0.0,0.0,0.0,0.0,0.0,1.1412,1.1412,1.1412,1.1611,1.2235,1.3152,1.3685,1.3303,0.0,0.0,1.3816,1.4413,1.5007,1.5085,1.5314,1.5569,1.5846,1.5894,1.6047,0.0,0.0,0.0,0.0,0.0,0.0,0.0,0.0,1.2841,1.2822,0.0,1.2777,0.0,0.0,0.0,0.0,0.0,1.0845,0.0,0.0,1.0179,1.0077,0.8903,0.9452,0.9426,0.8877,0.9439,0.9763,0.9807,0.9814,0.0,0.0,0.0,0.0,0.0,0.0,1.215,1.2749,1.1444,1.1097,1.1698,1.1158,1.1191,1.1865,1.2932,1.35,1.35,1.3146,1.3274,1.4001,1.3299,0.0,0.0,0.0,0.0,0.0,0.0,0.0,0.0,0.0,0.0,0.0,0.0,0.0,0.0,0.0,0.0,0.0,0.0,0.0,0.0,0.952,0.0,0.0,0.0,0.0,0.0,0.0,0.0,0.0,0.0,0.0,1.0119,1.0118,1.0225,1.0566,0.0,0.0,0.0,0.0,1.1117,1.1379,1.1409,1.1426,1.1446,1.148,1.1506,1.1506,0.0,0.0,1.3825,1.4911,1.5708,1.6482,1.6504,1.5927,1.3525,1.3292,1.3784,1.5234,1.5106,1.5042,1.6281,1.6248,1.5961,1.2915,0.0,0.0,0.0,0.0,1.2915,1.2602,1.2116,1.211,1.211,1.2092,1.16,0.0,0.0,0.0,0.0,0.0,0.0,1.0317,0.9536,0.9923,0.9633,0.8824,0.8995,0.8982,0.8798,0.8995,0.9341,0.9781,0.9802,1.0485,1.1789,0.0,0.0,0.0,0.0,1.191,1.2055,1.1241,1.1047,1.1571,1.1869,1.2465,1.3421,1.3762,1.3935,1.3922,1.3823,1.3598,1.3256,1.3025,0.0,0.0,0.0,0.0,0.0,0.0,0.0,0.0,0.0,0.0,0.0,0.0,0.0,0.0,0.0,0.0,0.0,0.0,0.0,0.9545,0.9654,0.9701,0.0,0.0,0.0,0.0,0.0,0.0,0.0,0.0,0.0,1.0473,1.0458,1.0557,0.0,0.0,1.0985,1.1254,1.1294,1.1394,1.1721,1.1761,0.0,1.2017,1.2602,1.3035,1.3035,1.3639,1.4291,1.4797,1.5643,1.6139,1.5755,1.6174,1.637,1.578,1.5865,1.6269,1.6739,1.689,1.7056,1.7487,1.7418,1.7335,1.2915,1.2915,1.2915,1.2915,1.2915,1.2915,1.2648,1.223,1.223,1.223,1.2218,1.1823,1.1851,1.22,1.1512,0.0,0.0,0.0,1.0693,0.984,1.0658,1.0512,0.9639,0.9865,0.9846,0.9627,0.9865,1.007,1.0204,1.0199,1.0739,1.1746,0.0,0.0,1.2856,1.2089,1.1935,1.2422,1.1976,1.1987,1.252,1.2938,1.3436,1.4068,1.4277,1.4374,1.4388,1.4224,1.4073,1.3895,1.3593,1.3185,0.0,0.0,0.0,0.0,0.0,0.0,0.0,0.0,0.0,0.0,0.0,0.9479,0.9673,0.0,0.0,0.0,0.9801,0.986,0.9853,0.9975,0.0,0.0,0.0,0.0,0.0,0.0,0.0,1.0322,1.0572,1.0759,1.0759,1.0853,1.0937,1.0982,1.1096,1.1254,1.1563,0.0,1.1703,1.2024,1.2056,1.2163,1.246,1.2975,1.3513,1.4065,1.5345,1.6236,1.6291,1.7063,1.7428,1.7054,1.7286,1.7667,1.7667,1.7935,1.8075,1.793,1.8223,1.8506,1.8525,1.8524,1.8507,1.2915,1.2915,1.2915,1.2915,1.2915,1.2915,1.2909,1.2915,1.2909,1.2915,1.2915,1.2835,1.2786,1.2688,1.203,0.0,1.0832,1.1445,1.1059,0.9969,1.1844,1.2042,1.0859,1.1408,1.1395,1.08,1.1429,1.1453,1.0964,1.0947,1.1289,1.1945,1.1314,1.1638,1.2849,1.2126,1.2322,1.351,1.3294,1.3492,1.4136,1.4178,1.4205,1.4198,1.4612,1.4855,1.4844,1.4492,1.4614,1.5225,1.4592,1.4159,1.4115,0.0,0.0,0.0,0.0,0.0,0.0,0.0,0.0,0.0,0.0,0.0,0.0,0.0,0.0,0.0,0.9993,0.0,1.0146,1.0424,0.0,0.0,0.0,1.0586,1.0586,1.0621,1.0634,1.0626,0.0,0.0,1.1029,1.1274,1.1363,1.1096,1.1279,1.157,1.189,1.194,1.2031,1.2316,1.2354,1.2464,1.2789,1.3097,1.3827,1.5172,1.6755,1.7897,1.8008,1.8598,1.9213,1.9119,1.9268,1.924,1.9268,1.923,1.9219,1.8772,1.8986,1.9267,1.9228,1.9218,1.9217,1.2915,1.2915,1.2915,1.2915,1.2915,1.2915,1.2915,1.2915,1.2915,1.2915,1.2869,1.2313,1.1789,1.1281,1.1109,1.0952,1.0813,1.0965,1.0872,1.0591,1.1068,1.113,1.0807,1.0958,1.0952,1.0834,1.0958,1.1396,1.207,1.2088,1.2598,1.3478,1.2883,1.2816,1.3338,1.344,1.365,1.3945,1.3892,1.4111,1.4615,1.4934,1.5079,1.5093,1.5191,1.5247,1.5266,1.5168,1.4925,1.451,1.4308,1.3928,1.3319,1.3868,0.0,0.0,0.0,0.0,0.0,0.0,0.0,0.0,0.0,1.0121,1.0357,0.0,1.0386,0.0,1.0452,1.0478,1.0478,1.0561,0.0,0.0,1.0586,1.0586,1.0593,1.0787,1.0913,1.0912,1.1157,1.1314,1.1306,1.1583,1.1746,1.1705,1.1741,1.1897,1.2151,1.2207,1.2323,1.2628,1.2721,1.2781,1.3211,1.4422,1.6022,1.7925,1.8664,1.8958,1.8967,1.9141,1.9286,1.9286,1.9286,1.9286,1.9316,1.9531,1.9727,1.96,1.9434,1.9286,1.9286,1.9296,1.9296,1.3278,1.3437,1.3437,1.3431,1.3405,1.3065,1.2915,1.2915,1.2915,1.2915,1.2875,1.2479,1.2089,1.1754,1.1921,1.184,1.1595,1.2055,1.2115,1.1848,1.2122,1.2265,1.2265,1.2271,1.2265,1.2271,1.2271,1.2593,1.3171,1.2916,1.3212,1.4077,1.3639,1.3634,1.4045,1.4005,1.413,1.441,1.4582,1.4824,1.5059,1.5269,1.5413,1.5413,1.5413,1.5413,1.5413,1.5413,1.5199,1.4754,1.4734,1.4197,1.3092,1.3756,1.3672,0.0,0.0,0.0,0.0,0.0,0.0,0.0,0.0,0.0,0.0,0.0,1.0586,1.0586,1.0586,1.0586,1.0586,1.0586,1.0646,1.0766,1.0771,1.0818,1.0943,1.1089,1.1174,1.1166,1.1434,1.1617,1.1621,1.1886,1.2076,1.2067,1.2208,1.2364,1.2486,1.2526,1.2794,1.3536,1.3698,1.3987,1.47,1.6312,1.782,1.8919,1.9571,1.9872,1.9872,1.9882,1.9872,1.9891,1.9872,1.9891,1.9873,2.0048,2.0214,2.0185,2.0048,1.9902,1.9882,1.9891,1.9872,1.3796,1.4097,1.4107,1.4107,1.4039,1.3337,1.3049,1.3065,1.3053,1.3053,1.3053,1.3065,1.3053,1.3069,1.3428,1.3252,1.277,1.3671,1.3786,1.3277,1.3823,1.4107,1.4107,1.4107,1.4107,1.4107,1.4107,1.4133,1.4178,1.3591,1.3647,1.4242,1.408,1.4303,1.4821,1.4296,1.4296,1.4873,1.5217,1.5413,1.5413,1.5413,1.5413,1.5413,1.5413,1.5413,1.5413,1.5413,1.5413,1.5413,1.5413,1.4763,1.3411,1.3982,1.374,0.0,1.2841,0.0,0.0,0.0,0.0,0.0,0.0,0.0,0.0,1.0586,1.0622,1.0638,1.0662,1.066,1.0685,1.07,1.0799,1.1015,1.1041,1.1157,1.1364,1.1439,1.1457,1.1449,1.1737,1.1942,1.1973,1.2187,1.2358,1.2406,1.2834,1.3156,1.3144,1.3152,1.3547,1.472,1.5019,1.5597,1.6845,1.8115,1.8981,1.9246,1.9944,2.0576,2.0547,2.0556,2.0576,2.0576,2.0537,2.0556,2.0605,2.0576,2.0586,2.0566,2.0537,2.0527,2.0546,2.0527,2.0605,1.4023,1.4097,1.4107,1.4107,1.4094,1.3932,1.387,1.3877,1.3883,1.387,1.3864,1.387,1.3864,1.388,1.3942,1.3921,1.3815,1.3998,1.4031,1.3903,1.4051,1.4107,1.4107,1.4107,1.4107,1.4107,1.4107,1.4303,1.4672,1.4547,1.4698,1.5152,1.5122,1.517,1.5278,0.0,0.0,0.0,1.5354,1.5413,1.5413,1.5413,1.5413,1.5413,1.5413,0.0,1.5413,1.5413,1.5413,1.5413,1.5413,0.0,0.0,0.0,0.0,0.0,0.0,0.0,0.0,0.0,0.0,0.0,1.1751,1.1062,1.0648,1.0586,1.0685,1.0897,1.0915,1.1025,1.1226,1.1254,1.1274,1.1319,1.1334,1.1344,1.1397,1.1643,1.181,1.1817,1.2046,1.2236,1.2256,1.2506,1.2716,1.2824,1.3698,1.4482,1.4771,1.4589,1.4635,1.516,1.6192,1.7258,1.8416,1.8853,1.9383,2.006,2.0411,2.0595,2.0605,2.0605,2.0605,2.0605,2.0605,2.0605,2.0605,2.0605,2.0605,2.0605,2.0605,2.0605,2.0605,2.0605,2.0605,1.4559,0.0,1.4731,1.4745,0.0,1.4728,1.4738,1.4708,1.4289,1.4107,1.4107,1.4107,1.4107,1.4117,1.4335,1.4439,1.4466,1.4654,1.4745,1.4752,1.4728,1.4738,1.4745,1.4752,1.4735,1.4747,1.4752,1.4873,1.5078,1.5112,1.5205,1.5403,1.5413,1.5413,1.5413,1.5413,1.5413,1.5413,1.5413,1.5413,1.5413,1.5413,1.5413,1.5413,1.5413,0.0,0.0,0.0,0.0,0.0,0.0,0.0,0.0,0.0,0.0,1.493,1.4861,1.4762,1.4586,1.3753,1.3353,1.3553,1.2706,1.1828,1.105,1.099,1.1042,1.1189,1.1202,1.1261,1.1377,1.1412,1.1466,1.1623,1.1643,1.1697,1.1844,1.2,1.2111,1.2154,1.2642,1.2891,1.258,1.3123,1.3566,1.3782,1.4489,1.5339,1.5927,1.5941,1.6094,1.6995,1.8133,1.9097,1.9638,1.9776,1.9913,2.0489,2.0605,2.0605,2.0605,2.0605,2.0605,2.0605,2.0605,2.0605,2.0605,2.0605,2.0605,2.0605,2.0605,2.0605,2.0605,2.0605,2.0605,1.5098,1.5403,1.5413,1.5413,1.5413,1.5413,1.5413,1.5354,0.0,0.0,0.0,1.4331,1.4322,1.4358,1.4729,1.4907,1.4929,1.5247,1.5413,1.5413,1.5413,1.5413,1.5413,1.5413,1.5413,1.5413,1.5413,1.5413,1.5413,1.5413,1.5413,1.5413,1.5413,1.5413,1.5413,1.5474,1.552,1.552,1.551,1.552,1.5527,1.5598,1.563,1.5622,1.5622,1.582,1.6185,1.6205,1.6348,1.6685,1.6697,1.6402,1.5782,1.6337,1.6114,1.4884,1.5338,1.5455,1.4882,1.4685,1.4545,1.4463,1.3413,1.2389,1.1477,1.1412,1.1432,1.1486,1.1486,1.1506,1.1568,1.1575,1.1677,1.1942,1.2123,1.2317,1.2533,1.2815,1.2947,1.2769,1.3388,1.3709,1.3304,1.3892,1.4605,1.5118,1.5726,1.6353,1.7256,1.7431,1.772,1.8947,1.9806,2.0498,2.0576,2.0537,2.0605,2.0576,2.0605,2.0605,2.0605,2.0605,2.0605,2.0605,2.0605,2.0605,2.0605,2.0605,2.0605,2.0605,2.0605,2.0605,2.0605,2.0605,2.0605,1.5361,1.5413,1.5413,1.5413,1.5413,1.5413,1.5413,1.5386,1.5269,1.522,1.5213,1.521,1.522,1.521,1.5281,1.5315,1.5308,1.5381,1.5413,1.5413,1.5413,1.5413,1.5413,1.5413,1.5413,1.5413,1.5413,1.5413,1.5413,1.5413,1.5413,1.5413,1.5413,1.5413,1.5439,1.5806,1.6007,1.6007,1.5997,1.5989,1.6007,1.6324,1.6512,1.6512,1.6502,1.6533,1.6615,1.6617,1.6638,1.6697,1.6697,1.6649,1.6545,1.6645,1.6594,1.6376,1.6457,1.6643,1.6919,1.6166,1.5503,1.5017,1.3415,1.2105,1.1483,1.1412,1.1513,1.1797,1.1899,1.1928,1.2138,1.224,1.2285,1.2362,1.2982,1.3456,1.3574,1.4517,1.4864,1.4078,1.4332,1.4673,1.4611,1.4942,1.5603,1.6527,1.7533,1.8789,1.9419,1.9261,1.9229,2.0079,2.0489,2.0605,2.0605,2.0605,2.0605,2.0605,2.0605,2.0605,2.0605,2.0605,2.0605,2.0605,2.0605,2.0605,2.0605,2.0605,2.0605,2.0605,2.0605,2.0605,2.0605,2.0605,2.0605,1.5413,1.5413,1.5413,1.5413,1.5413,1.5413,1.5413,1.5413,1.5413,1.5413,1.5413,1.5413,1.5413,1.5413,1.5413,1.5413,1.5413,1.5413,1.5413,1.5413,1.5413,1.5413,1.5413,1.5413,1.5413,1.5413,1.5413,1.5413,1.5413,1.5413,1.5413,1.5422,1.5642,1.5889,1.61,1.632,1.6434,1.6434,1.6418,1.6418,1.6426,1.6607,1.6697,1.6697,1.6697,1.6814,1.7072,1.709,1.7189,1.7396,1.7414,1.7415,1.7407,1.7397,1.7407,1.7405,1.7405,1.7501,1.7723,1.7301,1.672,1.6,1.5147,1.4291,1.3522,1.2965,1.2719,1.2897,1.3344,1.3743,1.3869,1.3866,1.3952,1.4188,1.4598,1.4923,1.5181,1.5661,1.5907,1.5554,1.6033,1.6338,1.5995,1.6516,1.7166,1.7996,1.9113,2.005,2.0527,2.0206,2.0021,2.0489,2.0605,2.0605,2.0605,2.0605,2.0605,2.0605,2.0605,2.0605,2.0605,2.0605,2.0605,2.0605,2.0605,2.0605,2.0605,2.0605,2.0605,2.0605,2.0605,2.0605,2.0605,2.0605,2.0605,1.565,1.565,1.5471,1.5413,1.5413,1.5413,1.5413,1.5413,1.5413,1.5413,1.5413,1.5413,1.5413,1.5413,1.5413,1.5413,1.5413,1.5413,1.5413,1.5413,1.5413,1.5413,1.5413,1.5413,1.5413,1.5413,1.5413,1.5442,1.5532,1.5549,1.5608,1.571,1.606,1.6394,1.6687,1.6812,1.6851,1.6877,1.6957,1.6958,1.6869,1.6941,1.6997,1.7005,1.6989,1.7161,1.7518,1.7528,1.7676,1.7978,1.8008,1.8008,1.8008,1.8008,1.8008,1.8008,1.8008,1.8008,1.7991,1.7794,1.7458,1.6966,1.6605,1.6175,1.5696,1.5054,1.4443,1.4209,1.4773,1.527,1.5267,1.5386,1.56,1.5893,1.6157,1.6387,1.6687,1.6977,1.7056,1.7027,1.7615,1.7905,1.7634,1.7993,1.8624,1.929,2.0089,2.0557,2.0605,2.0605,2.0605,2.0605,2.0605,2.0605,2.0605,2.0605,2.0605,2.0605,2.0605,2.0605,2.0605,2.0605,2.0605,2.0605,2.0605,2.0605,2.0605,2.0605,2.0605,2.0605,2.0605,2.0605,2.0605,2.0605,2.0605,1.639,1.629,1.5698,1.5413,1.5432,1.5425,1.5432,1.5425,1.542,1.5413,1.5413,1.5413,1.5413,1.5413,1.5413,1.5413,1.5413,1.5413,1.5413,1.5413,1.5413,1.5413,1.5413,1.5415,1.5413,1.5422,1.5449,1.5681,1.6019,1.6036,1.6219,1.6523,1.6637,1.6668,1.6755,1.7129,1.7332,1.735,1.7687,1.7715,1.7381,1.7695,1.7874,1.7892,1.7881,1.7893,1.793,1.7941,1.796,1.8008,1.8008,1.8008,1.8008,1.8008,1.8008,1.8008,1.8009,1.8008,1.7957,1.7208,1.715,1.7685,1.6715,1.6333,1.6955,1.7314,1.6777,1.5654,1.5558,1.5889,1.5777,1.6138,1.6445,1.6624,1.7239,1.7721,1.7913,1.8854,1.9222,1.8212,1.8627,1.8858,1.882,1.8918,1.9347,2.0167,2.043,2.0605,2.0605,2.0605,2.0605,2.0605,2.0605,2.0605,2.0605,2.0605,2.0605,2.0605,2.0605,2.0605,2.0605,2.0605,2.0605,2.0605,2.0605,2.0605,2.0605,2.0605,2.0605,2.0605,2.0605,2.0605,2.0605,2.0635,2.0644,1.7149,1.7083,1.6361,1.6058,1.6043,1.6058,1.605,1.6022,1.5584,1.5413,1.5413,1.5413,1.5413,1.5413,1.5413,1.5413,1.5413,1.5413,1.5413,1.5413,1.5413,1.5413,1.5422,1.5698,1.5806,1.5838,1.6049,1.6274,1.6418,1.6473,1.668,1.7062,1.7111,1.722,1.7446,1.7649,1.7754,1.7755,1.792,1.7903,1.7793,1.7911,1.8008,1.8008,1.8008,1.8008,1.8008,1.8008,1.8008,1.8008,1.8008,1.8008,1.8008,1.8008,1.8008,1.8009,1.8226,1.8361,1.8335,1.825,1.8358,1.8761,1.8223,1.8062,1.839,1.8615,1.8375,1.7814,1.7779,1.7871,1.7853,1.8009,1.8202,1.8451,1.8864,1.9184,1.9507,1.9956,2.0111,1.9715,1.9819,1.9932,1.9942,1.9942,2.0138,2.0537,2.0605,2.0605,2.0605,2.0605,2.0605,2.0605,2.0605,2.0605,2.0605,2.0605,2.0605,2.0605,2.0605,2.0605,2.0605,2.0605,2.0605,2.0605,2.0605,2.0605,2.0605,2.0605,2.0605,2.0605,2.0605,2.0605,2.0605,2.0791,2.0928,1.8153,1.8017,1.727,1.7057,1.7248,1.7014,1.6905,1.6913,1.6582,1.6221,1.5801,1.6007,1.5962,1.5742,1.5522,1.5413,1.543,1.5537,1.5601,1.5598,1.5696,1.5759,1.5803,1.6084,1.6273,1.6304,1.6547,1.6746,1.688,1.7027,1.7238,1.7528,1.7567,1.7695,1.7969,1.8008,1.8008,1.8008,1.8008,1.8008,1.7998,1.8008,1.8008,1.8008,1.8008,1.8008,1.8008,1.8008,1.8008,1.8008,1.8008,1.8058,1.8157,1.8149,1.8215,1.8369,1.8625,1.8782,1.8809,1.9111,1.9286,1.9315,1.9384,1.9462,1.9492,1.9589,1.9666,1.9602,1.9648,1.9573,1.9482,1.958,1.9775,2.0068,2.0088,2.0234,2.0498,2.0605,2.0576,2.0605,2.0479,2.0605,2.0596,2.0547,2.0566,2.0586,2.0605,2.0605,2.0605,2.0605,2.0605,2.0605,2.0605,2.0605,2.0605,2.0605,2.0605,2.0605,2.0605,2.0605,2.0605,2.0605,2.0605,2.0605,2.0605,2.0605,2.0605,2.0605,2.0635,2.0635,2.0693,2.0781,2.082,2.1113,2.1337,1.952,1.9343,1.8381,1.8452,1.9104,1.8312,1.7962,1.8047,1.8673,1.8164,1.685,1.7454,1.7392,1.6572,1.5808,1.5432,1.5481,1.5874,1.6073,1.6097,1.6428,1.6619,1.6648,1.6668,1.6707,1.6817,1.7011,1.7146,1.7462,1.7725,1.7942,1.7969,1.7949,1.7961,1.8008,1.8008,1.8008,1.8008,1.8037,1.8027,1.8037,1.8037,1.8066,1.8086,1.8027,1.8038,1.8057,1.8027,1.8037,1.8027,1.8066,1.8196,1.8538,1.8569,1.8771,1.915,1.9247,1.9267,1.9267,1.9344,1.9374,1.9374,1.9716,1.9873,1.9912,2.0195,2.041,2.0507,2.0429,2.0293,1.999,2.0185,2.042,2.0507,2.0537,2.0547,2.0586,2.0605,2.0605,2.0605,2.0605,2.0605,2.0605,2.0605,2.0605,2.0605,2.0605,2.0605,2.0605,2.0605,2.0605,2.0605,2.0605,2.0605,2.0605,2.0605,2.0605,2.0605,2.0605,2.0605,2.0605,2.0605,2.0605,2.0605,2.0605,2.0605,2.0605,2.0635,2.0713,2.0811,2.1055,2.1152,2.1211,2.1582,2.1797,2.0522,2.0132,2.021,2.0159,1.9967,1.9648,1.953,1.953,1.9346,1.8643,1.7711,1.7883,1.7513,1.6687,1.6375,1.6219,1.6246,1.6418,1.6494,1.6504,1.6637,1.6697,1.6774,1.7507,1.7925,1.8029,1.877,1.8986,1.8557,1.8227,1.8008,1.8008,1.8008,1.8008,1.8008,1.8008,1.8008,1.8037,1.8253,1.8373,1.8411,1.8673,1.8837,1.8818,1.8537,1.8527,1.8837,1.8819,1.8837,1.8828,1.8827,1.8896,1.9024,1.9053,1.9121,1.9306,1.9532,1.9687,1.9707,1.997,2.0126,2.0146,2.0253,2.0332,2.0361,2.0507,2.0605,2.0605,2.0605,2.0507,2.0439,2.0507,2.0605,2.0605,2.0605,2.0605,2.0605,2.0605,2.0605,2.0605,2.0605,2.0605,2.0605,2.0605,2.0605,2.0605,2.0605,2.0605,2.0605,2.0605,2.0605,2.0605,2.0605,2.0605,2.0605,2.0605,2.0605,2.0605,2.0605,2.0605,2.0605,2.0605,2.0605,2.0674,2.0654,2.0723,2.0762,2.0967,2.1006,2.1329,2.1553,2.1601,2.1661,2.2012,2.2207,2.1567,2.1333,2.1535,2.1486,2.1246,2.0989,2.0886,2.0859,2.0622,1.989,1.8986,1.8842,1.8501,1.7967,1.7658,1.773,1.7867,1.7559,1.732,1.734,1.747,1.753,1.7668,1.8409,1.8979,1.926,1.9822,1.9854,1.9268,1.8421,1.8176,1.843,1.8168,1.8069,1.8209,1.8503,1.8613,1.8568,1.9008,1.9192,1.8939,1.9122,1.9383,1.9424,1.9181,1.9083,1.9296,1.9286,1.9286,1.9286,1.9286,1.9355,1.9482,1.9647,1.9725,1.9754,1.9961,2.0136,2.0166,2.042,2.0595,2.0595,2.0595,2.0605,2.0605,2.0605,2.0605,2.0605,2.0605,2.0605,2.0605,2.0595,2.0605,2.0605,2.0605,2.0605,2.0605,2.0605,2.0605,2.0605,2.0605,2.0605,2.0605,2.0605,2.0605,2.0605,2.0605,2.0605,2.0605,2.0605,2.0605,2.0605,2.0605,2.0605,2.0605,2.0605,2.0615,2.0615,2.0605,2.0605,2.0644,2.0635,2.0693,2.0742,2.0811,2.0879,2.1026,2.125,2.1543,2.1866,2.2012,2.207,2.2217,2.2421,2.2567,2.2601,2.284,2.2237,2.2328,2.2712,2.2149,2.19,2.199,2.2576,2.1853,2.0516,2.0525,2.037,2.024,1.9449,1.9676,2.0078,1.9243,1.8709,1.8653,1.9023,1.92,1.9208,1.9399,1.9957,2.0579,1.9787,1.9447,1.9478,1.8704,1.8583,1.9069,1.8623,1.8589,1.8729,1.9668,1.9856,1.9622,2.0198,2.0233,1.9452,1.9374,1.9589,1.9873,1.9873,1.9717,1.9384,1.9365,1.9423,1.9384,1.9383,1.9512,1.9931,2.0263,2.0547,2.0488,2.0556,2.0566,2.0566,2.0576,2.0605,2.0605,2.0605,2.0605,2.0605,2.0605,2.0605,2.0605,2.0605,2.0605,2.0605,2.0605,2.0605,2.0605,2.0605,2.0605,2.0605,2.0605,2.0605,2.0605,2.0605,2.0605,2.0605,2.0605,2.0605,2.0605,2.0605,2.0605,2.0605,2.0605,2.0605,2.0605,2.0605,2.0605,2.0605,2.0605,2.0625,2.0635,2.0615,2.0615,2.0723,2.0771,2.0996,2.1084,2.1211,2.1299,2.1631,2.1826,2.1913,2.2178,2.2323,2.2499,2.2606,2.2741,2.2887,2.2957,2.3085,2.2838,2.2861,2.3078,2.2823,2.2732,2.2732,2.3012,2.2479,2.1608,2.1491,2.118,2.0655,2.0293,2.0671,2.1412,2.1022,2.058,2.0099,2.013,2.0196,2.0301,2.0798,2.1518,2.1951,2.0862,2.0529,2.0741,1.9881,1.9796,2.0453,2.0172,2.0369,2.0982,2.1372,2.1168,2.0499,2.0918,2.072,1.9849,2.0048,2.0273,2.0361,2.0381,2.0312,2.0204,2.0195,2.0185,2.0165,2.0195,2.0263,2.0381,2.0517,2.0595,2.0605,2.0605,2.0605,2.0605,2.0605,2.0605,2.0605,2.0605,2.0605,2.0605,2.0605,2.0605,2.0605,2.0605,2.0605,2.0605,2.0605,2.0605,2.0605,2.0605,2.0605,2.0605,2.0605,2.0605,2.0605,2.0605,2.0605,2.0605,2.0605,2.0605,2.0605,2.0605,2.0605,2.0605,2.0605,2.0605,2.0605,2.0605,2.0654,2.0713,2.0869,2.1016,2.0996,2.0928,2.0918,2.0986,2.1055,2.1269,2.1514,2.163,2.1835,2.2167,2.2333,2.2401,2.2557,2.2781,2.2868,2.2906,2.3083,2.3324,2.3095,2.3095,2.3095,2.3095,2.3095,2.3095,2.3095,2.3095,2.3095,2.2816,2.2368,2.2017,2.1799,2.1487,2.1227,2.1561,2.2307,2.2345,2.2063,2.151,2.1164,2.1096,2.1188,2.1955,2.2502,2.2698,2.1894,2.1571,2.1861,2.1194,2.1044,2.1497,2.1423,2.1664,2.2452,2.2797,2.2563,2.1988,2.2416,2.2251,2.1438,2.1147,2.1126,2.1078,2.0799,2.0615,2.0605,2.0605,2.0605,2.0605,2.0605,2.0605,2.0605,2.0595,2.0605,2.0605,2.0605,2.0605,2.0605,2.0605,2.0605,2.0605,2.0605,2.0605,2.0605,2.0605,2.0605,2.0605,2.0605,2.0605,2.0605,2.0605,2.0605,2.0605,2.0605,2.0605,2.0605,2.0605,2.0605,2.0605,2.0605,2.0605,2.0605,2.0605,2.0605,2.0605,2.0605,2.0605,2.0605,2.0605,2.0615,2.0684,2.0791,2.084,2.0879,2.1113,2.1415,2.1406,2.1338,2.1377,2.1445,2.1485,2.1631,2.2011,2.2215,2.241,2.2702,2.2723,2.2791,2.3004,2.3112,2.3062,2.31,2.3665,2.3984,2.3095,2.3095,2.3095,2.3095,2.3095,2.3095,2.3095,2.3095,2.3095,2.3085,2.2884,2.2353,2.2376,2.2747,2.2202,2.2353,2.2972,2.3122,2.3101,2.286,2.2484,2.2197,2.2247,2.2754,2.3031,2.3003,2.2762,2.2544,2.246,2.2332,2.228,2.2443,2.2534,2.2661,2.3398,2.4042,2.4117,2.367,2.4368,2.4216,2.3128,2.2392,2.1849,2.1735,2.1021,2.0663,2.0809,2.0838,2.0721,2.0615,2.0605,2.0605,2.0605,2.0605,2.0605,2.0605,2.0605,2.0605,2.0605,2.0605,2.0605,2.0605,2.0605,2.0605,2.0605,2.0605,2.0605,2.0605,2.0605,2.0605,2.0605,2.0605,2.0605,2.0605,2.0605,2.0605,2.0605,2.0605,2.0605,2.0605,2.0605,2.0605,2.0605,2.0605,2.0605,2.0605,2.0605,2.0615,2.0713,2.0742,2.0693,2.086,2.1133,2.1201,2.1289,2.1591,2.1884,2.1913,2.1876,2.1943,2.1962,2.1982,2.209,2.247,2.2693,2.2926,2.3033,2.2995,2.2985,2.3063,2.3112,2.3112,2.3496,2.4125,2.4659,2.3095,2.3095,2.3095,2.3095,2.3095,2.3095,2.3095,2.3095,2.3095,2.3095,2.304,2.2891,2.2874,2.3047,2.2896,2.2922,2.322,2.3587,2.3758,2.3802,2.402,2.3782,2.3447,2.3385,2.3701,2.4066,2.3659,2.3544,2.3993,2.3783,2.396,2.4648,2.4269,2.4664,2.5484,2.5705,2.5432,2.4728,2.4817,2.4192,2.2776,2.2272,2.165,2.0972,2.078,2.0992,2.1536,2.1641,2.126,2.0654,2.0605,2.0605,2.0605,2.0605,2.0605,2.0605,2.0605,2.0605,2.0605,2.0605,2.0605,2.0605,2.0605,2.0605,2.0605,2.0605,2.0605,2.0605,2.0605,2.0605,2.0605,2.0605,2.0605,2.0605,2.0605,2.0605,2.0605,2.0605,2.0605,2.0605,2.0605,2.0605,2.0605,2.0635,2.0635,2.0644,2.0693,2.0781,2.0977,2.1054,2.1094,2.1446,2.169,2.1689,2.1807,2.2109,2.2323,2.2401,2.246,2.2566,2.2556,2.2547,2.2702,2.2955,2.2897,2.3052,2.3081,2.3073,2.3102,2.3112,2.3278,2.3408,2.406,2.4681,2.5263,2.3095,2.3095,2.3095,2.3095,2.3095,2.3095,2.3095,2.3095,2.3095,2.3095,2.3095,2.3095,2.3233,2.3482,2.3487,2.3602,2.3855,2.4177,2.4315,2.4431,2.485,2.4788,2.4383,2.4104,2.4423,2.5011,2.4632,2.458,2.4863,2.5032,2.527,2.5285,2.5536,2.5943,2.6303,2.6469,2.6254,2.5725,2.5599,2.4963,2.3968,2.3025,2.273,2.216,2.1783,2.1631,2.244,2.2235,2.1717,2.1222,2.0847,2.0605,2.0605,2.0605,2.0605,2.0605,2.0605,2.0605,2.0605,2.0605,2.0605,2.0605,2.0605,2.0605,2.0605,2.0605,2.0605,2.0605,2.0605,2.0605,2.0605,2.0605,2.0605,2.0605,2.0605,2.0605,2.0605,2.0605,2.0605,2.0605,2.0605,2.0605,2.0615,2.0742,2.084,2.0918,2.1123,2.127,2.1455,2.1484,2.1582,2.1885,2.212,2.2139,2.2216,2.2479,2.2645,2.2732,2.2762,2.2936,2.2925,2.2917,2.2984,2.3071,2.3092,2.3112,2.3112,2.3112,2.3112,2.3189,2.3442,2.3757,2.4275,2.4967,2.5588,2.3095,2.3095,2.3095,2.3095,2.3095,2.3095,2.3095,2.3095,2.3095,2.3165,2.3241,2.3221,2.3587,2.4064,2.4092,2.4315,2.4746,2.4804,2.4963,2.5159,2.5448,2.5464,2.5122,2.5048,2.5265,2.5632,2.5686,2.5476,2.5491,2.6072,2.5953,2.5669,2.6104,2.6409,2.6487,2.6487,2.6487,2.6401,2.631,2.6086,2.5473,2.437,2.3827,2.3845,2.3165,2.2878,2.3248,2.2943,2.2366,2.2158,2.1164,2.0663,2.0605,2.0605,2.0605,2.0605,2.0605,2.0605,2.0605,2.0605,2.0605,2.0605,2.0605,2.0605,2.0605,2.0605,2.0605,2.0605,2.0605,2.0605,2.0605,2.0605,2.0605,2.0615,2.0625,2.0684,2.0654,2.0625,2.0615,2.0644,2.0674,2.0664,2.0811,2.1016,2.1288,2.1319,2.1494,2.167,2.1836,2.1923,2.2021,2.2197,2.2392,2.2557,2.2674,2.284,2.2936,2.3014,2.2985,2.3042,2.3053,2.3043,2.3073,2.3112,2.3112,2.3112,2.3112,2.3112,2.3277,2.3387,2.3692,2.3844,2.4091,2.4946,2.5651,2.3095,2.3095,2.3095,2.3095,2.3095,2.3095,2.3095,2.3095,2.3108,2.3391,2.372,2.3795,2.4114,2.4624,2.4628,2.4708,2.4942,2.5276,2.5649,2.6147,2.6223,2.626,2.6092,2.603,2.6151,2.6264,2.6289,2.6224,2.6255,2.6267,2.6401,2.625,2.6271,2.6487,2.6487,2.6487,2.6487,2.6487,2.6487,2.6129,2.5585,2.5004,2.4373,2.4111,2.4165,2.4427,2.4582,2.4483,2.3993,2.3,2.1603,2.0605,2.0605,2.0605,2.0605,2.0605,2.0605,2.0605,2.0605,2.0605,2.0605,2.0605,2.0605,2.0605,2.0605,2.0605,2.0605,2.0605,2.0605,2.0605,2.0644,2.0615,2.0674,2.0742,2.0928,2.1074,2.1025,2.0811,2.0801,2.0986,2.1084,2.1191,2.1544,2.1612,2.1748,2.1758,2.1885,2.2041,2.2197,2.2343,2.245,2.2557,2.2674,2.2819,2.2858,2.2975,2.3034,2.3112,2.3112,2.3112,2.3112,2.3112,2.3112,2.3112,2.3112,2.3112,2.3112,2.3833,2.4146,2.407,2.4069,2.4658,2.5158,2.559,2.6309,2.3095,2.3095,2.3095,2.3095,2.3095,2.3095,2.3095,2.3158,2.3429,2.3687,2.4009,2.4235,2.4674,2.5143,2.518,2.5301,2.5615,2.5866,2.6189,2.6436,2.6483,2.6495,2.6487,2.6487,2.6487,2.6487,2.6474,2.6487,2.6487,2.6487,2.6478,2.6487,2.6487,2.6487,2.6487,2.6487,2.6487,2.6487,2.6487,2.6207,2.5769,2.5203,2.4853,2.4507,2.5102,2.5538,2.5031,2.4454,2.3743,2.273,2.1451,2.0615,2.0605,2.0605,2.0605,2.0605,2.0605,2.0605,2.0605,2.0605,2.0605,2.0605,2.0605,2.0605,2.0605,2.0605,2.0605,2.0605,2.0625,2.0664,2.084,2.0889,2.0947,2.1211,2.1387,2.1523,2.1484,2.1328,2.127,2.1484,2.1523,2.1631,2.1827,2.207,2.2178,2.2177,2.2459,2.2615,2.2654,2.2791,2.2829,2.2917,2.2995,2.3063,2.3063,2.3082,2.3073,2.3112,2.3112,2.3112,2.3112,2.3112,2.3112,2.3112,2.3112,2.3112,2.3255,2.4082,2.4553,2.4156,2.4348,2.5497,2.6374,2.6696,2.7617,2.3095,2.3095,2.3095,2.3095,2.3095,2.3108,2.3183,2.3341,2.3763,2.4092,2.433,2.4733,2.5226,2.5644,2.5745,2.6055,2.6336,2.6445,2.6461,2.6474,2.6487,2.6487,2.6487,2.6487,2.6487,2.6487,2.6487,2.6487,2.6487,2.6487,2.6487,2.6487,2.6487,2.6487,2.6487,2.6487,2.6487,2.6487,2.6487,2.6469,2.6319,2.5699,2.5347,2.5432,2.5847,2.6034,2.5314,2.4487,2.3478,2.2468,2.1546,2.1126,2.0982,2.0663,2.0605,2.0605,2.0605,2.0605,2.0605,2.0605,2.0605,2.0605,2.0605,2.0605,2.0605,2.0605,2.0605,2.0635,2.0684,2.0908,2.123,2.1308,2.1484,2.1748,2.1905,2.1983,2.2003,2.2021,2.208,2.1963,2.1992,2.206,2.2226,2.244,2.2527,2.2635,2.2917,2.3112,2.3112,2.3091,2.3071,2.3062,2.3081,2.3112,2.3112,2.3112,2.3112,2.3112,2.3112,2.3112,2.3189,2.3572,2.3616,2.3167,2.3112,2.3124,2.3408,2.4114,2.4307,2.3984,2.4966,2.6504,2.7282,2.776,2.8865,2.3095,2.3095,2.3095,2.3095,2.3095,2.3108,2.3391,2.3816,2.3984,2.4527,2.5259,2.5444,2.5795,2.6189,2.6336,2.6432,2.6474,2.6487,2.6487,2.6487,2.6487,2.6487,2.6487,2.6487,2.6487,2.6487,2.6487,2.6487,2.6487,2.6487,2.6487,2.6487,2.6487,2.6487,2.6487,2.6487,2.6487,2.6487,2.6487,2.6487,2.6418,2.628,2.6094,2.6103,2.6375,2.6267,2.6008,2.5261,2.4671,2.4438,2.3544,2.3064,2.2526,2.1451,2.0799,2.0702,2.0625,2.0605,2.0605,2.0605,2.0605,2.0605,2.0605,2.0605,2.0605,2.0635,2.0713,2.0791,2.0977,2.1279,2.1728,2.1767,2.1807,2.1983,2.2227,2.2382,2.246,2.2586,2.2644,2.245,2.2451,2.248,2.2625,2.2741,2.28,2.2859,2.2985,2.3112,2.3112,2.3112,2.3091,2.3091,2.3102,2.3112,2.3112,2.3112,2.3112,2.3112,2.3112,2.3112,2.3387,2.4135,2.4178,2.3442,2.32,2.3277,2.3691,2.4274,2.4604,2.4687,2.6073,2.7697,2.8334,2.8986,2.9838,2.3095,2.3095,2.3095,2.3095,2.3145,2.3441,2.372,2.4059,2.459,2.5096,2.5569,2.5917,2.6201,2.6436,2.6487,2.6487,2.6487,2.6487,2.6487,2.6487,2.6487,2.6487,2.6487,2.6487,2.6487,2.6487,2.6487,2.6487,2.6487,2.6487,2.6487,2.6487,2.6487,2.6487,2.6487,2.6487,2.6487,2.6487,2.6487,2.6487,2.6487,2.6487,2.6487,2.6487,2.6435,2.6224,2.5681,2.5382,2.4707,2.421,2.3727,2.3542,2.31,2.2329,2.1317,2.1221,2.0867,2.0605,2.0605,2.0605,2.0605,2.0605,2.0605,2.0605,2.0674,2.0791,2.0996,2.126,2.1387,2.1738,2.2168,2.2187,2.2294,2.2509,2.2704,2.2782,2.2849,2.2985,2.2917,2.281,2.281,2.284,2.2936,2.3034,2.3082,2.3112,2.3112,2.3112,2.3112,2.3112,2.3112,2.3112,2.3112,2.3112,2.3112,2.3112,2.3112,2.3112,2.331,2.3299,2.3624,2.4401,2.4069,2.331,2.3267,2.3994,2.404,2.4653,2.5017,2.5744,2.772,2.93,2.9685,3.0285,3.1069,2.2957,2.3105,2.2922,2.2949,2.318,2.3738,2.4059,2.4335,2.5146,2.5644,2.585,2.6248,2.647,2.6487,2.6487,2.6487,2.6487,2.6487,2.6487,2.6487,2.6487,2.6487,2.6487,2.6487,2.6487,2.6487,2.6487,2.6487,2.6487,2.6487,2.6487,2.6487,2.6487,2.6487,2.6487,2.6487,2.6487,2.6487,2.6487,2.6487,2.6487,2.6487,2.6487,2.6487,2.6487,2.6129,2.562,2.5158,2.4895,2.4454,2.4081,2.3845,2.3645,2.285,2.2234,2.1916,2.1117,2.0712,2.0605,2.0605,2.0605,2.0605,2.0605,2.0644,2.084,2.1143,2.1503,2.1915,2.2021,2.2177,2.2527,2.2615,2.2752,2.2926,2.3043,2.3092,2.3053,2.3092,2.3082,2.3043,2.3112,2.3112,2.3112,2.3112,2.3112,2.3112,2.3112,2.3112,2.3112,2.3112,2.3112,2.3112,2.3112,2.3112,2.3112,2.3112,2.3112,2.3112,2.354,2.3854,2.4197,2.4689,2.4278,2.4228,2.5043,2.5667,2.5378,2.5302,2.6098,2.7426,2.9597,3.0749,3.0898,3.1367,3.21,2.2453,2.3025,2.2345,2.2445,2.314,2.376,2.429,2.4774,2.5385,2.5917,2.6311,2.6445,2.6487,2.6487,2.6487,2.6487,2.6487,2.6487,2.6487,2.6487,2.6487,2.6487,2.6487,2.6487,2.6487,2.6487,2.6487,2.6487,2.6487,2.6487,2.6487,2.6487,2.6487,2.6487,2.6487,2.6487,2.6487,2.6487,2.6487,2.6487,2.6487,2.6487,2.6487,2.6487,2.6478,2.6418,2.6077,2.5594,2.5288,2.5873,2.5191,2.4871,2.4674,2.3872,2.2897,2.2047,2.1212,2.0605,2.0605,2.0605,2.0654,2.0674,2.0664,2.0811,2.1191,2.1572,2.1982,2.2382,2.2431,2.2566,2.2858,2.2995,2.3063,2.3073,2.3112,2.3112,2.3112,2.3112,2.3112,2.3112,2.3112,2.3112,2.3112,2.3112,2.3112,2.3112,2.3112,2.3112,2.3112,2.3112,2.3112,2.3112,2.3112,2.3112,2.3112,2.3112,2.3143,2.3123,2.3879,2.4474,2.4953,2.5412,2.5916,2.6087,2.6877,2.7182,2.6823,2.6954,2.7565,2.8787,3.0506,3.1376,3.1907,3.2463,3.2914,2.0926,2.1702,2.1827,2.2267,2.2973,2.3988,2.4754,2.5289,2.5866,2.6239,2.6449,2.6487,2.6487,2.6487,2.6487,2.6487,2.6487,2.6487,2.6487,2.6487,2.6487,2.6487,2.6487,2.6487,2.6487,2.6487,2.6487,2.6487,2.6487,2.6487,2.6487,2.6487,2.6487,2.6487,2.6487,2.6487,2.6487,2.6487,2.6487,2.6487,2.6487,2.6487,2.6487,2.6487,2.6487,2.6487,2.6375,2.6211,2.6008,2.6418,2.5969,2.5558,2.4933,2.4038,2.3045,2.2067,2.1358,2.0879,2.0644,2.0625,2.0752,2.0908,2.1006,2.1259,2.1776,2.2118,2.2412,2.281,2.2839,2.2936,2.3033,2.3102,2.3112,2.3112,2.3112,2.32,2.32,2.3113,2.3112,2.3112,2.3112,2.3112,2.3112,2.3112,2.3112,2.3112,2.3112,2.3112,2.3112,2.3112,2.3112,2.3112,2.3112,2.3112,2.3112,2.3112,2.3207,2.3442,2.4641,2.5217,2.5776,2.6271,2.7061,2.7793,2.8463,2.8519,2.8235,2.862,2.9229,3.0178,3.1217,3.1898,3.2513,3.2672,3.3038,1.9755,2.0551,2.1404,2.223,2.3135,2.4437,2.5205,2.5636,2.6206,2.6474,2.6487,2.6487,2.6487,2.6487,2.6487,2.6487,2.6487,2.6487,2.6487,2.6487,2.6487,2.6487,2.6487,2.6487,2.6487,2.6487,2.6487,2.6487,2.6487,2.6487,2.6487,2.6487,2.6487,2.6487,2.6487,2.6487,2.6487,2.6487,2.6487,2.6487,2.6487,2.6487,2.6487,2.6487,2.6487,2.6487,2.6487,2.6461,2.6461,2.6461,2.6444,2.5996,2.526,2.432,2.3426,2.2538,2.1829,2.1299,2.1114,2.1065,2.1094,2.1289,2.1522,2.1835,2.2284,2.2558,2.2723,2.3043,2.3053,2.3073,2.3112,2.3112,2.3112,2.3112,2.3112,2.3256,2.3377,2.3321,2.3463,2.3724,2.3583,2.3112,2.3112,2.3112,2.3112,2.3112,2.3112,2.3112,2.3131,2.3151,2.3149,2.3159,2.316,2.316,2.316,2.3182,2.3268,2.4049,2.5243,2.639,2.72,2.8027,2.8896,2.9553,2.9983,2.996,2.9708,3.0296,3.0871,3.1567,3.22,3.2621,3.304,3.3113,3.3113,1.9626,2.0192,2.1108,2.244,2.3952,2.5064,2.5561,2.5732,2.6252,2.6487,2.6487,2.6487,2.6487,2.6487,2.6487,2.6487,2.6487,2.6487,2.6487,2.6487,2.6487,2.6487,2.6487,2.6487,2.6487,2.6487,2.6487,2.6487,2.6487,2.6487,2.6487,2.6487,2.6487,2.6487,2.6487,2.6487,2.6487,2.6512,2.6562,2.6587,2.66,2.6612,2.6659,2.6612,2.6562,2.652,2.6512,2.6637,2.6692,2.6704,2.6738,2.6207,2.5473,2.4678,2.3849,2.2878,2.226,2.1809,2.1699,2.1641,2.1758,2.1924,2.2138,2.2372,2.2597,2.2887,2.3052,2.3081,2.3091,2.3112,2.3112,2.3112,2.3112,2.3189,2.3299,2.3594,2.366,2.3561,2.3746,2.4221,2.4056,2.348,2.3367,2.3425,2.319,2.317,2.311,2.311,2.3238,2.3268,2.3247,2.3247,2.3238,2.3249,2.3259,2.3534,2.4267,2.5398,2.665,2.7933,2.91,2.9933,3.067,3.0759,3.1028,3.1126,3.1215,3.1449,3.184,3.2597,3.309,3.3102,3.3113,3.3113,3.3113,2.0221,2.1032,2.2532,2.3581,2.4246,2.5203,2.5816,2.6151,2.6399,2.6487,2.6487,2.6487,2.6487,2.6487,2.6487,2.6487,2.6487,2.6487,2.6487,2.6487,2.6487,2.6487,2.6487,2.6487,2.6487,2.6487,2.6487,2.6487,2.6487,2.6487,2.6487,2.6487,2.6512,2.6487,2.6487,2.6575,2.6583,2.665,2.683,2.6993,2.7056,2.7336,2.7487,2.7487,2.7478,2.7478,2.7503,2.7499,2.7478,2.7453,2.744,2.6679,2.5749,2.5026,2.4166,2.3103,2.2546,2.2456,2.2364,2.2204,2.2012,2.2324,2.2616,2.287,2.2863,2.3024,2.3081,2.3102,2.3112,2.3112,2.3112,2.3112,2.3135,2.3278,2.3561,2.392,2.408,2.4046,2.4108,2.4623,2.4233,2.3662,2.3701,2.3807,2.3503,2.3238,2.319,2.3179,2.3375,2.3523,2.3571,2.3638,2.3659,2.3921,2.3984,2.4657,2.5431,2.6766,2.8062,2.9256,3.0491,3.16,3.2194,3.2161,3.204,3.2129,3.2224,3.2325,3.261,3.2982,3.3102,3.3113,3.3113,3.3113,3.3113,2.0621,2.1558,2.319,2.4206,2.4746,2.5535,2.6101,2.6445,2.6487,2.6487,2.6487,2.6487,2.6487,2.6487,2.6487,2.6487,2.6487,2.6487,2.6487,2.6487,2.6487,2.6487,2.6487,2.6487,2.6487,2.6487,2.6487,2.6487,2.6487,2.6487,2.6487,2.6524,2.665,2.6751,2.6813,2.6918,2.6977,2.7094,2.7277,2.7532,2.7604,2.7842,2.8047,2.8021,2.7996,2.7996,2.7971,2.7946,2.7984,2.7996,2.7839,2.7204,2.6321,2.5464,2.4761,2.3865,2.3189,2.3274,2.3457,2.3156,2.2941,2.3326,2.3495,2.3468,2.3212,2.3112,2.3112,2.3112,2.3112,2.3112,2.3112,2.3112,2.3112,2.3244,2.4103,2.4531,2.4774,2.4848,2.4856,2.5005,2.4464,2.3997,2.4067,2.4175,2.4075,2.3818,2.3776,2.3786,2.3854,2.3983,2.4041,2.4129,2.4217,2.455,2.4938,2.5653,2.6528,2.8319,2.9545,3.0458,3.1627,3.2642,3.309,3.2766,3.2744,3.3034,3.2982,3.2786,3.2873,3.3081,3.3113,3.3113,3.3113,3.3113,3.3113,2.0648,2.1503,2.2582,2.4013,2.5439,2.6184,2.6436,2.6487,2.6487,2.6487,2.6487,2.6487,2.6487,2.6487,2.6487,2.6487,2.6487,2.6487,2.6487,2.6487,2.6487,2.6487,2.6487,2.6487,2.6487,2.6487,2.6487,2.6487,2.6487,2.6625,2.6587,2.678,2.7123,2.7361,2.7349,2.7783,2.8034,2.8047,2.8009,2.8075,2.8113,2.8247,2.8373,2.8398,2.8401,2.8439,2.8452,2.8461,2.8473,2.8448,2.8414,2.7891,2.7174,2.6868,2.6429,2.5982,2.4977,2.5167,2.6096,2.5272,2.4872,2.4598,2.4586,2.4136,2.343,2.3155,2.3112,2.3112,2.3112,2.3112,2.3112,2.3102,2.3102,2.3679,2.4573,2.5349,2.5636,2.5873,2.5937,2.5641,2.4963,2.445,2.4493,2.4544,2.4571,2.448,2.4416,2.4393,2.4383,2.4443,2.4513,2.4686,2.4828,2.538,2.5858,2.6563,2.7676,2.9548,3.0885,3.1669,3.2207,3.2821,3.3113,3.3113,3.3113,3.3113,3.3113,3.3081,3.3189,3.3264,3.3138,3.3113,3.3113,3.3189,3.3278,2.1512,2.2508,2.3765,2.4634,2.5216,2.54,2.5868,2.6426,2.6487,2.6487,2.6487,2.6487,2.6487,2.6487,2.6487,2.6487,2.6487,2.6487,2.6487,2.6487,2.6487,2.6487,2.6487,2.6487,2.6487,2.6487,2.6487,2.6499,2.6487,2.6767,2.6993,2.7198,2.7783,2.8113,2.795,2.805,2.8097,2.8163,2.8389,2.8652,2.8671,2.8966,2.9164,2.9161,2.9139,2.9117,2.9101,2.9076,2.9076,2.9076,2.9063,2.8661,2.7852,2.7438,2.685,2.6388,2.5557,2.5755,2.6933,2.7061,2.6644,2.6057,2.5347,2.4851,2.4243,2.3431,2.3233,2.3112,2.3112,2.3112,2.3112,2.3113,2.3363,2.4485,2.5434,2.6372,2.6836,2.7061,2.7108,2.649,2.5842,2.6033,2.6126,2.5802,2.5685,2.5151,2.4996,2.485,2.4814,2.4895,2.4984,2.5242,2.552,2.6131,2.6792,2.7749,2.8868,3.0548,3.1731,3.2529,3.2979,3.3113,3.3113,3.3113,3.3113,3.3113,3.3215,3.3329,3.3404,3.3429,3.3442,3.3366,3.3343,3.3506,3.3694,2.167,2.2263,2.3817,2.4472,2.46,2.5208,2.5926,2.6444,2.6487,2.6487,2.6487,2.6487,2.6487,2.6487,2.6487,2.6487,2.6487,2.6487,2.6487,2.6487,2.6487,2.6487,2.6487,2.6487,2.6487,2.6487,2.6524,2.6541,2.6817,2.7123,2.7499,2.7984,2.8543,2.8731,2.8681,2.8765,2.8778,2.8891,2.9126,2.923,2.9318,2.9506,2.9716,2.9716,2.9716,2.9729,2.9767,2.9779,2.9779,2.9779,2.9631,2.9246,2.8267,2.7867,2.7342,2.6943,2.7087,2.7147,2.7804,2.8589,2.7988,2.7148,2.6295,2.5577,2.4988,2.4156,2.3551,2.3299,2.3135,2.3397,2.3561,2.354,2.4301,2.5434,2.669,2.7623,2.8178,2.8404,2.7944,2.733,2.6632,2.7058,2.7459,2.7318,2.6977,2.6253,2.5563,2.5425,2.529,2.5421,2.5531,2.576,2.6352,2.7136,2.8089,2.9204,3.037,3.1644,3.2404,3.3047,3.3102,3.3113,3.3113,3.3126,3.3153,3.3228,3.3442,3.3581,3.387,3.3983,3.3983,3.3847,3.3658,3.3859,3.4149,2.109,2.0952,2.2666,2.345,2.3761,2.5399,2.6323,2.6426,2.6469,2.6487,2.6487,2.6487,2.6487,2.6487,2.6487,2.6487,2.6487,2.6487,2.6487,2.6487,2.6487,2.6487,2.6487,2.6487,2.6487,2.6499,2.6612,2.6868,2.7248,2.7578,2.8084,2.8678,2.896,2.922,2.944,2.9503,2.9503,2.9503,2.9541,2.9603,2.9666,2.9729,2.9779,2.9779,2.9779,2.9779,2.9779,2.9779,2.9779,2.9779,2.975,2.9135,2.8887,2.9177,2.8796,2.8646,2.8917,2.8809,2.8619,2.9248,2.9096,2.8289,2.7914,2.6787,2.5399,2.4403,2.3725,2.331,2.3135,2.3866,2.4382,2.4891,2.5434,2.6776,2.8173,2.8953,2.9521,2.9423,2.88,2.8044,2.7077,2.7065,2.7523,2.7601,2.7742,2.6539,2.5894,2.5998,2.5942,2.6082,2.6194,2.6299,2.7045,2.8181,2.9235,3.0248,3.1178,3.2228,3.259,3.3102,3.3113,3.3151,3.3215,3.3253,3.323,3.3393,3.3833,3.4198,3.4526,3.4589,3.4589,3.4413,3.4237,3.4488,3.4741,2.113,2.165,2.2215,2.242,2.273,2.4579,2.5423,2.5511,2.615,2.6487,2.6487,2.6487,2.6487,2.6487,2.6487,2.6487,2.6487,2.6487,2.6487,2.6487,2.6487,2.6487,2.6487,2.6487,2.6487,2.6646,2.6839,2.7131,2.7474,2.7905,2.8725,2.9428,2.9443,2.9654,2.9716,2.9779,2.9779,2.9779,2.9779,2.9779,2.9779,2.9779,2.9779,2.9779,2.9779,2.9779,2.9779,2.9779,2.9779,2.9779,2.9779,2.9463,2.9514,2.8937,2.8275,2.8327,2.8998,2.9614,2.9436,2.9592,2.9495,2.8887,2.8416,2.6921,2.5378,2.4168,2.3584,2.3299,2.3364,2.4059,2.503,2.5743,2.681,2.8339,2.9574,3.0272,3.0603,2.9921,2.9274,2.8202,2.7263,2.7311,2.7744,2.839,2.8332,2.6923,2.6209,2.6402,2.6546,2.668,2.703,2.7151,2.8004,2.9212,3.0022,3.0977,3.1843,3.2655,3.2939,3.3113,3.3126,3.3189,3.3329,3.3556,3.3822,3.4098,3.4412,3.4764,3.5103,3.5206,3.5206,3.5005,3.4892,3.513,3.5293,2.0924,2.146,2.1848,2.2215,2.2841,2.4319,2.4995,2.5194,2.6081,2.6487,2.6487,2.6487,2.6487,2.6487,2.6487,2.6487,2.6487,2.6487,2.6487,2.6487,2.6487,2.6487,2.6487,2.6487,2.6487,2.6688,2.7018,2.739,2.783,2.8671,2.9515,2.9704,2.9779,2.9779,2.9779,2.9779,2.9779,2.9779,2.9779,2.9779,2.9779,2.9779,2.9779,2.9779,2.9779,2.9779,2.9779,2.9779,2.9779,2.9779,2.9779,2.9779,2.9753,2.9138,2.8848,2.8956,2.9326,2.9753,2.9682,2.9711,2.9329,2.8633,2.7886,2.6305,2.5115,2.3963,2.3583,2.331,2.3755,2.4335,2.5434,2.6619,2.831,2.9987,3.0791,3.1584,3.1077,3.0366,2.9374,2.8265,2.7852,2.784,2.8262,2.8959,2.8727,2.6994,2.6462,2.6993,2.7124,2.722,2.7791,2.8261,2.9246,3.0338,3.1044,3.1622,3.2315,3.2862,3.2982,3.3126,3.3138,3.3416,3.3745,3.4175,3.4628,3.4852,3.5028,3.5341,3.5629,3.5718,3.5794,3.5705,3.5628,3.5754,3.5867,2.0605,2.0712,2.1631,2.2553,2.3569,2.4552,2.5058,2.5211,2.6141,2.6487,2.6487,2.6487,2.6487,2.6487,2.6487,2.6487,2.6487,2.6487,2.6487,2.6487,2.6487,2.6487,2.6487,2.6499,2.6596,2.6751,2.716,2.7821,2.8427,2.9139,2.9666,2.9779,2.9779,2.9779,2.9779,2.9779,2.9779,2.9779,2.9779,2.9779,2.9779,2.9779,2.9779,2.9779,2.9779,2.9779,2.9779,2.9779,2.9779,2.9779,2.9779,2.9779,2.9753,2.9714,2.9663,2.9663,2.9724,2.9753,2.9672,2.9543,2.8732,2.7728,2.6472,2.5849,2.5157,2.4017,2.3529,2.3992,2.4488,2.5765,2.6977,2.809,2.9586,3.0854,3.1753,3.2278,3.2127,3.0863,2.903,2.8273,2.8378,2.8285,2.7733,2.832,2.8785,2.7006,2.6596,2.7339,2.8191,2.8284,2.8715,2.9487,3.0519,3.1412,3.1688,3.2238,3.2732,3.3092,3.3176,3.3278,3.3416,3.3795,3.4225,3.4714,3.5192,3.5431,3.5656,3.588,3.6029,3.6143,3.6218,3.633,3.6343,3.6267,3.6242,2.0605,2.0693,2.1602,2.2571,2.359,2.4582,2.545,2.6138,2.6366,2.6487,2.6487,2.6487,2.6487,2.6487,2.6487,2.6487,2.6487,2.6487,2.6487,2.6487,2.6487,2.6487,2.6512,2.6575,2.6734,2.7173,2.7695,2.836,2.9114,2.9603,2.9779,2.9779,2.9779,2.9779,2.9779,2.9779,2.9779,2.9779,2.9779,2.9779,2.9779,2.9779,2.9779,2.9779,2.9779,2.9779,2.9779,2.9779,2.9779,2.9779,2.9779,2.9779,2.9779,2.9779,2.9779,2.9779,2.9779,2.9779,2.9634,2.9326,2.868,2.8069,2.725,2.6717,2.5828,2.4403,2.3998,2.4732,2.5753,2.7207,2.8494,2.9601,3.0642,3.1678,3.2534,3.2785,3.3015,3.0978,2.8832,2.86,2.8751,2.8448,2.7802,2.7814,2.8109,2.7943,2.7483,2.799,2.9613,3.0226,3.0237,3.0933,3.1833,3.2534,3.261,3.2658,3.3032,3.3329,3.3454,3.3556,3.3732,3.43,3.4879,3.5293,3.5694,3.5881,3.6043,3.6205,3.6343,3.6417,3.6417,3.6417,3.6417,3.6343,3.6368,2.0605,2.0721,2.1612,2.2581,2.3578,2.4582,2.5576,2.6383,2.6487,2.6487,2.6487,2.6487,2.6487,2.6487,2.6487,2.6487,2.6487,2.6487,2.6487,2.6487,2.6487,2.6487,2.6537,2.6713,2.6981,2.7428,2.8172,2.8903,2.9666,2.9779,2.9779,2.9779,2.9779,2.9779,2.9779,2.9779,2.9779,2.9779,2.9779,2.9779,2.9779,2.9779,2.9779,2.9779,2.9779,2.9779,2.9779,2.9779,2.9779,2.9779,2.9779,2.9779,2.9779,2.9779,2.9779,2.9779,2.9779,2.9779,2.9592,2.9275,2.885,2.8313,2.7867,2.73,2.6936,2.5733,2.568,2.6388,2.7511,2.8914,2.9695,3.0719,3.1546,3.2503,3.2578,3.2601,3.2085,3.0698,2.8993,2.8027,2.8506,2.9223,2.8889,2.9258,2.9292,2.8308,2.7979,2.9028,3.0597,3.1644,3.181,3.2041,3.2698,3.3015,3.2928,3.2968,3.3163,3.3431,3.3732,3.4161,3.4513,3.503,3.5557,3.5831,3.6055,3.6218,3.6368,3.6417,3.6417,3.6417,3.6417,3.6417,3.6417,3.6417,3.6417,2.0693,2.0905,2.1972,2.2795,2.3615,2.4752,2.5599,2.6228,2.6435,2.6487,2.6487,2.6487,2.6487,2.6487,2.6487,2.6487,2.6487,2.6487,2.6487,2.6487,2.6487,2.6487,2.6688,2.6968,2.7336,2.7896,2.8627,2.9167,2.9767,2.9779,2.9779,2.9779,2.9779,2.9779,2.9779,2.9779,2.9779,2.9779,2.9779,2.9779,2.9779,2.9779,2.9779,2.9779,2.9779,2.9779,2.9779,2.9779,2.9779,2.9779,2.9779,2.9779,2.9779,2.9779,2.9779,2.9779,2.9779,2.9779,2.9692,2.9404,2.9037,2.8654,2.8331,2.8008,2.767,2.7794,2.7731,2.836,2.9471,3.0142,3.0934,3.1602,3.2415,3.286,3.2679,3.2339,3.1423,3.063,2.9464,2.8155,2.8704,2.9647,2.9841,3.0237,2.9738,2.8762,2.9131,3.0406,3.1478,3.2085,3.2514,3.2579,3.2896,3.3092,3.3113,3.3316,3.3431,3.3782,3.4135,3.4728,3.528,3.5656,3.5968,3.618,3.638,3.6417,3.6417,3.6417,3.6417,3.6417,3.6417,3.6417,3.6417,3.6417,3.6417,2.1049,2.1886,2.3654,2.4063,2.3825,2.539,2.5882,2.5476,2.619,2.6487,2.6487,2.6487,2.6487,2.6487,2.6487,2.6487,2.6487,2.6487,2.6487,2.6487,2.6487,2.6487,2.6742,2.7324,2.7858,2.8514,2.9167,2.9591,2.9779,2.9779,2.9779,2.9779,2.9779,2.9779,2.9779,2.9779,2.9779,2.9779,2.9779,2.9779,2.9779,2.9779,2.9779,2.9779,2.9779,2.9779,2.9779,2.9779,2.9779,2.9779,2.9779,2.9779,2.9779,2.9779,2.9779,2.9829,2.9829,2.9905,2.981,2.9478,2.9145,2.9803,2.948,2.9015,2.9152,2.9889,3.0065,3.0592,3.1341,3.1386,3.1985,3.2391,3.304,3.304,3.2928,3.2228,3.1423,3.1189,3.0665,2.9841,2.9601,2.9772,2.9487,2.9624,2.9407,2.897,2.9544,3.0811,3.225,3.2754,3.3113,3.3113,3.3113,3.3113,3.3126,3.3556,3.3784,3.4135,3.46,3.5278,3.5793,3.6117,3.638,3.6393,3.6417,3.6417,3.6417,3.6417,3.6417,3.6417,3.6417,3.6417,3.6417,3.6417,3.6417]}]]